Darstellungsparameter: Aktuell verwendete Einstellungen:
Skalierung der Graphiken ... ?
xyx+y,   Skalierungsfaktor:      Skalierung: Modus: x, Faktor: 1
Darstellungszeitraum ... ?
Vom - - bis: - -   Zeitraum: 22.07.2015 - 21.07.2020
Min/Max/Avg-Anzeige ... ?
Zeige MMA aktuell
Zeige MMA Monat
Zeige MMA alles
Zeige --A aktuell
Zeige --A Monat
Zeige --A alles
Keine MMA-Anzeige
MMA:
Average (ber die Originaldaten)
MMA-Basis: 23.02.2003 - 03.08.2020
Quicknavigation für Darstellung... ?
Tage:      1T, 2T, 3T, 5T -1T -2T -3T -5T +1T +2T +3T +5T
Wochen: 1W, 2W, 3W -1W -2W -3W +1W +2W +3W
Monate: 1M, 3M, 6M -1M -3M -6M +1M +3M +6M
Jahre:    1J, 3J, 5J, 10J -1J -3J -5J -10J +1J +3J +5J +10J
Nutze für die Darstellung ... ?
Originaldaten oder ...
Mittelwerte Minima Maxima auf...
Stundenbasis Tagesbasis Wochenbasis
Monatsbasis Jahresbasis      Datenbasis: Mittelwerte auf Stundenbasis
Darstellen als:
Statistik (Auto) Statistik J:M      Darstellung:
Zur Graphik,    zurück zur Übersicht aller Sensoren.
 
Tabellarische Datenbersicht: ?
 
Sensor: Nr:Datum:Temp:Abs-Feuchte:Windchill:Wind:
Aussen-T/F 1 22-07-2015 00:00:00 21.31667 C 16.84 g/m*3 21.32 C 0 km/h
2 22-07-2015 01:00:00 20.71667 C 16.55 g/m*3 20.72 C 0 km/h
3 22-07-2015 02:00:00 20.15 C 16.2 g/m*3 20.15 C 0 km/h
4 22-07-2015 03:00:00 19.48333 C 15.68 g/m*3 19.48 C 0 km/h
5 22-07-2015 04:00:00 19.09167 C 15.43 g/m*3 19.09 C 0 km/h
6 22-07-2015 05:00:00 18.7 C 15.21 g/m*3 18.7 C 0 km/h
7 22-07-2015 06:00:00 18.80833 C 15.41 g/m*3 18.81 C 0 km/h
8 22-07-2015 07:00:00 19.26 C 15.89 g/m*3 19.26 C 0.48 km/h
9 22-07-2015 08:00:00 22.01667 C 17.23 g/m*3 22.02 C 3.75 km/h
10 22-07-2015 09:00:00 22.76667 C 16.73 g/m*3 22.77 C 6.025 km/h
11 22-07-2015 10:00:00 24.15833 C 16.9 g/m*3 24.16 C 8.05 km/h
12 22-07-2015 11:00:00 24.80833 C 17.06 g/m*3 24.81 C 7.10833 km/h
13 22-07-2015 12:00:00 26.20833 C 17.3 g/m*3 26.21 C 6.16667 km/h
14 22-07-2015 13:00:00 27.09167 C 16.99 g/m*3 27.09 C 6.3 km/h
15 22-07-2015 14:00:00 26.78333 C 15.94 g/m*3 26.78 C 9.00833 km/h
16 22-07-2015 15:00:00 27.00833 C 15.92 g/m*3 27.01 C 7.79167 km/h
17 22-07-2015 16:00:00 26.84167 C 15.92 g/m*3 26.84 C 7.39167 km/h
18 22-07-2015 17:00:00 27.56667 C 15.6 g/m*3 27.57 C 8.58333 km/h
19 22-07-2015 18:00:00 27.13333 C 14.3 g/m*3 27.13 C 7.925 km/h
20 22-07-2015 19:00:00 25.71667 C 13.78 g/m*3 25.72 C 7.90833 km/h
21 22-07-2015 20:00:00 24.625 C 13.02 g/m*3 24.63 C 9.83333 km/h
22 22-07-2015 21:00:00 23.825 C 12.05 g/m*3 23.83 C 10.06667 km/h
23 22-07-2015 22:00:00 22.75833 C 11.3 g/m*3 22.76 C 8.31667 km/h
24 22-07-2015 23:00:00 21.69167 C 11.87 g/m*3 21.69 C 2.93333 km/h
25 23-07-2015 00:00:00 20.00833 C 12.56 g/m*3 20.01 C 0 km/h
Sensor: Nr:Datum:Temp:Abs-Feuchte:Windchill:Wind:
Aussen-T/F 26 23-07-2015 01:00:00 18.55833 C 12.29 g/m*3 18.56 C 0.66667 km/h
27 23-07-2015 02:00:00 17.725 C 11.92 g/m*3 17.73 C 0.53333 km/h
28 23-07-2015 03:00:00 16.96667 C 11.64 g/m*3 16.97 C 0.8 km/h
29 23-07-2015 04:00:00 16.61667 C 11.68 g/m*3 16.62 C 1.46667 km/h
30 23-07-2015 05:00:00 16.88333 C 11.89 g/m*3 16.88 C 0.13333 km/h
31 23-07-2015 06:00:00 17.16667 C 11.67 g/m*3 17.17 C 1.2 km/h
32 23-07-2015 07:00:00 17.80833 C 11 g/m*3 17.81 C 3.46667 km/h
33 23-07-2015 08:00:00 18.5 C 10.92 g/m*3 18.5 C 7.65833 km/h
34 23-07-2015 09:00:00 19.125 C 10.88 g/m*3 19.13 C 6.03333 km/h
35 23-07-2015 10:00:00 20.55 C 10.99 g/m*3 20.55 C 8.33333 km/h
36 23-07-2015 11:00:00 22.43333 C 11.14 g/m*3 22.43 C 8.34167 km/h
37 23-07-2015 12:00:00 22.49167 C 11.26 g/m*3 22.49 C 5.75833 km/h
38 23-07-2015 13:00:00 23.65 C 11.45 g/m*3 23.65 C 4.68333 km/h
39 23-07-2015 14:00:00 24.55833 C 11.36 g/m*3 24.56 C 6.83333 km/h
40 23-07-2015 15:00:00 24.86667 C 10.93 g/m*3 24.87 C 6.70833 km/h
41 23-07-2015 16:00:00 25.16667 C 10.94 g/m*3 25.17 C 7.375 km/h
42 23-07-2015 17:00:00 24.55 C 10.7 g/m*3 24.55 C 8.21667 km/h
43 23-07-2015 18:00:00 25.46667 C 10.87 g/m*3 25.47 C 7.93333 km/h
44 23-07-2015 19:00:00 25.24167 C 10.79 g/m*3 25.24 C 6.96667 km/h
45 23-07-2015 20:00:00 22.375 C 11.4 g/m*3 22.38 C 2.13333 km/h
46 23-07-2015 21:00:00 19.06667 C 11.67 g/m*3 19.07 C 0.13333 km/h
47 23-07-2015 22:00:00 17.75 C 11.48 g/m*3 17.75 C 0.13333 km/h
48 23-07-2015 23:00:00 16.95 C 11.35 g/m*3 16.95 C 0 km/h
49 24-07-2015 00:00:00 16.3 C 11.04 g/m*3 16.3 C 0 km/h
50 24-07-2015 01:00:00 15.33333 C 10.83 g/m*3 15.33 C 0 km/h
Sensor: Nr:Datum:Temp:Abs-Feuchte:Windchill:Wind:
Aussen-T/F 51 24-07-2015 02:00:00 14.475 C 10.68 g/m*3 14.48 C 0 km/h
52 24-07-2015 03:00:00 14.26667 C 10.71 g/m*3 14.27 C 0 km/h
53 24-07-2015 04:00:00 13.91667 C 10.68 g/m*3 13.92 C 0 km/h
54 24-07-2015 05:00:00 13.80833 C 10.73 g/m*3 13.81 C 0 km/h
55 24-07-2015 06:00:00 13.73333 C 10.8 g/m*3 13.73 C 0 km/h
56 24-07-2015 07:00:00 14.52 C 11.26 g/m*3 14.52 C 1.28 km/h
57 24-07-2015 09:00:00 18.88 C 12.46 g/m*3 18.88 C 0.64 km/h
58 24-07-2015 10:00:00 20.79167 C 12.85 g/m*3 20.79 C 2.4 km/h
59 24-07-2015 11:00:00 23.71667 C 13.15 g/m*3 23.72 C 4 km/h
60 24-07-2015 12:00:00 25.90833 C 12.9 g/m*3 25.91 C 4.55 km/h
61 24-07-2015 13:00:00 26.60833 C 12.44 g/m*3 26.61 C 5.88333 km/h
62 24-07-2015 14:00:00 27.1 C 12.34 g/m*3 27.1 C 6.43333 km/h
63 24-07-2015 15:00:00 28.84167 C 12.81 g/m*3 28.84 C 8.33333 km/h
64 24-07-2015 16:00:00 29.8 C 12.92 g/m*3 29.8 C 6.425 km/h
65 24-07-2015 17:00:00 29.7 C 13.48 g/m*3 29.7 C 4.13333 km/h
66 24-07-2015 18:00:00 26.91667 C 15.8 g/m*3 26.92 C 0.8 km/h
67 24-07-2015 19:00:00 25.76667 C 15.56 g/m*3 25.77 C 0.13333 km/h
68 24-07-2015 20:00:00 24.55 C 15.15 g/m*3 24.55 C 0.13333 km/h
69 24-07-2015 21:00:00 23.03333 C 14.4 g/m*3 23.03 C 0.26667 km/h
70 24-07-2015 22:00:00 22.875 C 14.44 g/m*3 22.88 C 5.89167 km/h
71 24-07-2015 23:00:00 19.975 C 14.73 g/m*3 19.98 C 10.475 km/h
72 25-07-2015 00:00:00 18.375 C 14.46 g/m*3 18.38 C 1.2 km/h
73 25-07-2015 01:00:00 17.78333 C 14.34 g/m*3 17.78 C 0.13333 km/h
74 25-07-2015 02:00:00 17.46667 C 14.14 g/m*3 17.47 C 0.13333 km/h
75 25-07-2015 03:00:00 16.95833 C 13.8 g/m*3 16.96 C 0.4 km/h
Sensor: Nr:Datum:Temp:Abs-Feuchte:Windchill:Wind:
Aussen-T/F 76 25-07-2015 04:00:00 16.6 C 13.56 g/m*3 16.6 C 0.26667 km/h
77 25-07-2015 06:00:00 16.8 C 13.73 g/m*3 16.8 C 2.13333 km/h
78 25-07-2015 07:00:00 17.33333 C 13.73 g/m*3 17.33 C 6.96667 km/h
79 25-07-2015 08:00:00 18.89167 C 13.39 g/m*3 18.89 C 13.825 km/h
80 25-07-2015 09:00:00 20 C 12.59 g/m*3 20 C 21.84167 km/h
81 25-07-2015 10:00:00 19.35833 C 13.09 g/m*3 19.36 C 24.25833 km/h
82 25-07-2015 11:00:00 18.20833 C 12.87 g/m*3 18.21 C 18.375 km/h
83 25-07-2015 12:00:00 18.15833 C 12.73 g/m*3 18.16 C 13.825 km/h
84 25-07-2015 13:00:00 17.69167 C 11.78 g/m*3 17.69 C 16.49167 km/h
85 25-07-2015 14:00:00 18.83333 C 10.8 g/m*3 18.83 C 25.60833 km/h
86 25-07-2015 15:00:00 18.79167 C 10.28 g/m*3 18.79 C 23.99167 km/h
87 25-07-2015 16:00:00 18.175 C 10.18 g/m*3 18.18 C 24.8 km/h
88 25-07-2015 17:00:00 17.325 C 10.12 g/m*3 17.33 C 23.59167 km/h
89 25-07-2015 18:00:00 16.81667 C 9.73 g/m*3 16.82 C 23.30833 km/h
90 25-07-2015 19:00:00 16.6 C 9.54 g/m*3 16.6 C 18.23333 km/h
91 25-07-2015 20:00:00 16.13333 C 9.19 g/m*3 16.13 C 19.44167 km/h
92 25-07-2015 21:00:00 15.15833 C 8.89 g/m*3 15.16 C 11.825 km/h
93 25-07-2015 22:00:00 14.16667 C 8.89 g/m*3 14.17 C 8.86667 km/h
94 25-07-2015 23:00:00 13.43333 C 9.03 g/m*3 13.43 C 2.66667 km/h
95 26-07-2015 00:00:00 12.85833 C 9.09 g/m*3 12.86 C 3.6 km/h
96 26-07-2015 01:00:00 12.325 C 9.04 g/m*3 12.33 C 3.46667 km/h
97 26-07-2015 02:00:00 12.025 C 9.03 g/m*3 12.03 C 2.53333 km/h
98 26-07-2015 03:00:00 11.86364 C 8.98 g/m*3 11.86 C 3.92727 km/h
99 26-07-2015 04:00:00 10.71111 C 8.74 g/m*3 10.71 C 0.71111 km/h
100 26-07-2015 05:00:00 10.225 C 8.67 g/m*3 10.23 C 1.73333 km/h
Sensor: Nr:Datum:Temp:Abs-Feuchte:Windchill:Wind:
Aussen-T/F 101 26-07-2015 06:00:00 9.88333 C 8.57 g/m*3 9.88 C 2.8 km/h
102 26-07-2015 07:00:00 10.15 C 8.77 g/m*3 10.15 C 2.66667 km/h
103 26-07-2015 08:00:00 11.63333 C 9.39 g/m*3 11.63 C 2.55 km/h
104 26-07-2015 09:00:00 14.66667 C 9.78 g/m*3 14.67 C 6.00833 km/h
105 26-07-2015 10:00:00 16.95833 C 9.56 g/m*3 16.96 C 6.3 km/h
106 26-07-2015 11:00:00 18.98333 C 8.9 g/m*3 18.98 C 6.575 km/h
107 26-07-2015 12:00:00 20.85 C 8.87 g/m*3 20.85 C 7.25833 km/h
108 26-07-2015 13:00:00 21.25833 C 8.6 g/m*3 21.26 C 7.38333 km/h
109 26-07-2015 14:00:00 22.05833 C 8.42 g/m*3 22.06 C 8.325 km/h
110 26-07-2015 15:00:00 23.31667 C 8.25 g/m*3 23.32 C 8.34167 km/h
111 26-07-2015 16:00:00 23.26667 C 8.05 g/m*3 23.27 C 9.54167 km/h
112 26-07-2015 17:00:00 21.85 C 8.64 g/m*3 21.85 C 2.66667 km/h
113 26-07-2015 18:00:00 17.875 C 11.45 g/m*3 17.88 C 1.06667 km/h
114 26-07-2015 19:00:00 15.225 C 11.53 g/m*3 15.23 C 0.53333 km/h
115 26-07-2015 20:00:00 14.22857 C 11.32 g/m*3 14.23 C 1.82857 km/h
116 26-07-2015 22:00:00 13.53333 C 11.13 g/m*3 13.53 C 0 km/h
117 26-07-2015 23:00:00 13.3625 C 11.1 g/m*3 13.36 C 0 km/h
118 27-07-2015 00:00:00 13.27273 C 11.11 g/m*3 13.27 C 0.14545 km/h
119 27-07-2015 01:00:00 12.8 C 10.98 g/m*3 12.8 C 2.4 km/h
120 27-07-2015 02:00:00 12.76667 C 10.73 g/m*3 12.77 C 0.8 km/h
121 27-07-2015 03:00:00 12.7 C 10.69 g/m*3 12.7 C 3.2 km/h
122 27-07-2015 04:00:00 13.92727 C 11.53 g/m*3 13.93 C 0.58182 km/h
123 27-07-2015 05:00:00 14.225 C 11.74 g/m*3 14.23 C 0 km/h
124 27-07-2015 06:00:00 14.8 C 12.21 g/m*3 14.8 C 3.34167 km/h
125 27-07-2015 07:00:00 15.55 C 12.66 g/m*3 15.55 C 4.28333 km/h
Sensor: Nr:Datum:Temp:Abs-Feuchte:Windchill:Wind:
Aussen-T/F 126 27-07-2015 08:00:00 15.925 C 12.88 g/m*3 15.93 C 4.425 km/h
127 27-07-2015 09:00:00 16.175 C 12.84 g/m*3 16.18 C 7.90833 km/h
128 27-07-2015 10:00:00 17.11667 C 12.69 g/m*3 17.12 C 10.48333 km/h
129 27-07-2015 11:00:00 18.40833 C 12.55 g/m*3 18.41 C 17.43333 km/h
130 27-07-2015 12:00:00 18.04167 C 12.43 g/m*3 18.04 C 14.1 km/h
131 27-07-2015 13:00:00 19.15 C 12.52 g/m*3 19.15 C 19.83333 km/h
132 27-07-2015 14:00:00 18.68333 C 12.54 g/m*3 18.68 C 17.3 km/h
133 27-07-2015 15:00:00 20.18333 C 12.27 g/m*3 20.18 C 20.9 km/h
134 27-07-2015 16:00:00 20.63333 C 12.42 g/m*3 20.63 C 16.63333 km/h
135 27-07-2015 17:00:00 20.50833 C 12.51 g/m*3 20.51 C 16.1 km/h
136 27-07-2015 18:00:00 20.75833 C 12.79 g/m*3 20.76 C 10.88333 km/h
137 27-07-2015 19:00:00 20.9 C 11.82 g/m*3 20.9 C 15.43333 km/h
138 27-07-2015 20:00:00 20.15 C 11.65 g/m*3 20.15 C 9.25833 km/h
139 27-07-2015 21:00:00 19.7 C 11.43 g/m*3 19.7 C 8.85 km/h
140 27-07-2015 22:00:00 18.94167 C 11.21 g/m*3 18.94 C 5.09167 km/h
141 27-07-2015 23:00:00 18.69167 C 11.33 g/m*3 18.69 C 11.95 km/h
142 28-07-2015 00:00:00 16.76667 C 11.38 g/m*3 16.77 C 8.45833 km/h
143 28-07-2015 01:00:00 16.05 C 11.5 g/m*3 16.05 C 0 km/h
144 28-07-2015 02:00:00 15.66667 C 11.49 g/m*3 15.67 C 2.15 km/h
145 28-07-2015 03:00:00 15.61667 C 9.98 g/m*3 15.62 C 8.31667 km/h
146 28-07-2015 04:00:00 14.41667 C 9.82 g/m*3 14.42 C 2.55 km/h
147 28-07-2015 05:00:00 13.875 C 9.49 g/m*3 13.88 C 2.53333 km/h
148 28-07-2015 06:00:00 13.71667 C 9.29 g/m*3 13.72 C 3.48333 km/h
149 28-07-2015 07:00:00 14.18333 C 9.48 g/m*3 14.18 C 9.93333 km/h
150 28-07-2015 08:00:00 15.20833 C 9.44 g/m*3 15.21 C 14.5 km/h
Sensor: Nr:Datum:Temp:Abs-Feuchte:Windchill:Wind:
Aussen-T/F 151 28-07-2015 09:00:00 16.225 C 9.17 g/m*3 16.23 C 15.96667 km/h
152 28-07-2015 10:00:00 17.5 C 9.12 g/m*3 17.5 C 19.70833 km/h
153 28-07-2015 11:00:00 18.025 C 9.09 g/m*3 18.02 C 18.1 km/h
154 28-07-2015 12:00:00 18.68333 C 8.81 g/m*3 18.68 C 17.83333 km/h
155 28-07-2015 13:00:00 19.59167 C 8.48 g/m*3 19.59 C 20.25 km/h
156 28-07-2015 14:00:00 19.75 C 8.16 g/m*3 19.75 C 15.55833 km/h
157 28-07-2015 15:00:00 21.01667 C 8.16 g/m*3 21.02 C 19.04167 km/h
158 28-07-2015 16:00:00 20.03333 C 8.1 g/m*3 20.03 C 14.76667 km/h
159 28-07-2015 17:00:00 19.49167 C 8.25 g/m*3 19.49 C 11.675 km/h
160 28-07-2015 18:00:00 19.04167 C 8.25 g/m*3 19.04 C 15.03333 km/h
161 28-07-2015 19:00:00 18.71667 C 8.2 g/m*3 18.72 C 9.40833 km/h
162 28-07-2015 20:00:00 18.13333 C 8.15 g/m*3 18.13 C 5.35 km/h
163 28-07-2015 21:00:00 17.71667 C 8.41 g/m*3 17.72 C 8.06667 km/h
164 28-07-2015 22:00:00 16.85833 C 8.91 g/m*3 16.86 C 6.71667 km/h
165 28-07-2015 23:00:00 15.32 C 9.44 g/m*3 15.32 C 0.16 km/h
166 29-07-2015 03:00:00 14.24 C 9.13 g/m*3 14.24 C 1.6 km/h
167 29-07-2015 05:00:00 12.43333 C 9.09 g/m*3 12.43 C 1.06667 km/h
168 29-07-2015 07:00:00 13.6 C 11.77 g/m*3 13.6 C 8.85 km/h
169 29-07-2015 08:00:00 14.4 C 9.35 g/m*3 14.4 C 10.35 km/h
170 29-07-2015 09:00:00 15.51667 C 9.09 g/m*3 15.52 C 15.16667 km/h
171 29-07-2015 10:00:00 16.95 C 8.7 g/m*3 16.95 C 14.625 km/h
172 29-07-2015 11:00:00 18.475 C 7.95 g/m*3 18.48 C 15.43333 km/h
173 29-07-2015 12:00:00 19.675 C 7.28 g/m*3 19.68 C 14.23333 km/h
174 29-07-2015 13:00:00 20.11667 C 7.4 g/m*3 20.12 C 16.23333 km/h
175 29-07-2015 14:00:00 20.69167 C 7.33 g/m*3 20.69 C 17.7 km/h
Sensor: Nr:Datum:Temp:Abs-Feuchte:Windchill:Wind:
Aussen-T/F 176 29-07-2015 15:00:00 21.31667 C 7.12 g/m*3 21.32 C 15.83333 km/h
177 29-07-2015 16:00:00 21.3 C 7.15 g/m*3 21.3 C 17.96667 km/h
178 29-07-2015 17:00:00 20.55833 C 7.65 g/m*3 20.56 C 16.76667 km/h
179 29-07-2015 18:00:00 18.5 C 9.56 g/m*3 18.5 C 10.05833 km/h
180 29-07-2015 19:00:00 19.075 C 8.62 g/m*3 19.08 C 10.73333 km/h
181 29-07-2015 20:00:00 18.60833 C 8.43 g/m*3 18.61 C 8.2 km/h
182 29-07-2015 21:00:00 16.71667 C 8.49 g/m*3 16.72 C 4.01667 km/h
183 29-07-2015 22:00:00 15.25833 C 8.24 g/m*3 15.26 C 2.53333 km/h
184 29-07-2015 23:00:00 13.65 C 8.37 g/m*3 13.65 C 0.53333 km/h
185 30-07-2015 00:00:00 12.24167 C 8.27 g/m*3 12.24 C 0.13333 km/h
186 30-07-2015 01:00:00 11.425 C 8.16 g/m*3 11.43 C 0.26667 km/h
187 30-07-2015 02:00:00 10.975 C 8.17 g/m*3 10.98 C 2.95 km/h
188 30-07-2015 03:00:00 10.44167 C 8.12 g/m*3 10.44 C 1.33333 km/h
189 30-07-2015 04:00:00 10.2 C 8.11 g/m*3 10.2 C 3.2 km/h
190 30-07-2015 05:00:00 10.13333 C 8.15 g/m*3 9.35 C 7.125 km/h
191 30-07-2015 06:00:00 9.89167 C 8.1 g/m*3 9.89 C 3.2 km/h
192 30-07-2015 07:00:00 10.775 C 8.39 g/m*3 10.49 C 5.5 km/h
193 30-07-2015 08:00:00 12.26667 C 8.73 g/m*3 12.27 C 7.10833 km/h
194 30-07-2015 09:00:00 13.41667 C 8.94 g/m*3 13.42 C 6.425 km/h
195 30-07-2015 10:00:00 15.63333 C 9.28 g/m*3 15.63 C 6.69167 km/h
196 30-07-2015 11:00:00 18.25833 C 9.23 g/m*3 18.26 C 6.96667 km/h
197 30-07-2015 12:00:00 18.975 C 9.09 g/m*3 18.98 C 5.21667 km/h
198 30-07-2015 13:00:00 18.94167 C 9.5 g/m*3 18.94 C 7.11667 km/h
199 30-07-2015 14:00:00 20.34167 C 9.24 g/m*3 20.34 C 9.26667 km/h
200 30-07-2015 15:00:00 17.9 C 9.72 g/m*3 17.9 C 8.6 km/h
Sensor: Nr:Datum:Temp:Abs-Feuchte:Windchill:Wind:
Aussen-T/F 201 30-07-2015 16:00:00 16.125 C 10.16 g/m*3 16.13 C 4.95833 km/h
202 30-07-2015 17:00:00 15.05 C 9.75 g/m*3 15.05 C 4.69167 km/h
203 30-07-2015 18:00:00 15.56667 C 9.79 g/m*3 15.57 C 1.73333 km/h
204 30-07-2015 19:00:00 15.85 C 9.92 g/m*3 15.85 C 2.8 km/h
205 30-07-2015 20:00:00 15.48 C 10.59 g/m*3 15.48 C 1.92 km/h
206 31-07-2015 00:00:00 11.15714 C 9.5 g/m*3 11.16 C 1.14286 km/h
207 31-07-2015 01:00:00 10.74286 C 9.26 g/m*3 10.74 C 0 km/h
208 31-07-2015 03:00:00 10.35 C 9.13 g/m*3 10.35 C 0 km/h
209 31-07-2015 04:00:00 10.55833 C 9.25 g/m*3 10.56 C 0.13333 km/h
210 31-07-2015 05:00:00 10.7 C 9.33 g/m*3 10.7 C 0 km/h
211 31-07-2015 07:00:00 10.79091 C 9.38 g/m*3 10.79 C 0 km/h
212 31-07-2015 08:00:00 11.96667 C 9.86 g/m*3 11.97 C 2 km/h
213 31-07-2015 09:00:00 13.53333 C 9.93 g/m*3 13.53 C 5.20833 km/h
214 31-07-2015 10:00:00 15.05 C 9.69 g/m*3 15.05 C 6.85833 km/h
215 31-07-2015 11:00:00 17.075 C 9.37 g/m*3 17.08 C 7.39167 km/h
216 31-07-2015 12:00:00 18.68333 C 9.25 g/m*3 18.68 C 7.65833 km/h
217 31-07-2015 13:00:00 20.1 C 8.82 g/m*3 20.1 C 7.24167 km/h
218 31-07-2015 14:00:00 21.425 C 8.32 g/m*3 21.43 C 10.49167 km/h
219 31-07-2015 15:00:00 22.5 C 8.01 g/m*3 22.5 C 9.68333 km/h
220 31-07-2015 16:00:00 22.525 C 7.93 g/m*3 22.53 C 9.15 km/h
221 31-07-2015 17:00:00 23.28333 C 7.89 g/m*3 23.28 C 8.73333 km/h
222 31-07-2015 18:00:00 23.70833 C 7.85 g/m*3 23.71 C 9.15 km/h
223 31-07-2015 19:00:00 22.525 C 7.92 g/m*3 22.53 C 10.49167 km/h
224 31-07-2015 20:00:00 20.63333 C 8.19 g/m*3 20.63 C 4.825 km/h
225 31-07-2015 21:00:00 16.63333 C 8.27 g/m*3 16.63 C 0.53333 km/h
Sensor: Nr:Datum:Temp:Abs-Feuchte:Windchill:Wind:
Aussen-T/F 226 31-07-2015 22:00:00 14.91667 C 8.8 g/m*3 14.92 C 0.8 km/h
227 31-07-2015 23:00:00 13.79167 C 8.52 g/m*3 13.79 C 0 km/h
228 01-08-2015 00:00:00 13.20833 C 8.53 g/m*3 13.21 C 0 km/h
229 01-08-2015 01:00:00 13.1 C 8.57 g/m*3 13.1 C 0 km/h
230 01-08-2015 02:00:00 12.85 C 8.46 g/m*3 12.85 C 0 km/h
231 01-08-2015 03:00:00 12.75833 C 8.3 g/m*3 12.76 C 0 km/h
232 01-08-2015 04:00:00 12.66667 C 8.37 g/m*3 12.67 C 0 km/h
233 01-08-2015 05:00:00 12.68333 C 8.43 g/m*3 12.68 C 0 km/h
234 01-08-2015 06:00:00 12.21667 C 8.43 g/m*3 12.22 C 0 km/h
235 01-08-2015 07:00:00 12.79167 C 9.04 g/m*3 12.79 C 0 km/h
236 01-08-2015 08:00:00 14.34167 C 9.25 g/m*3 14.34 C 0.13333 km/h
237 01-08-2015 09:00:00 15.43333 C 9.28 g/m*3 15.43 C 1.46667 km/h
238 01-08-2015 10:00:00 17.15833 C 9.4 g/m*3 17.16 C 3.6 km/h
239 01-08-2015 11:00:00 20.44167 C 9.65 g/m*3 20.44 C 5.35 km/h
240 01-08-2015 12:00:00 23.1 C 9.66 g/m*3 23.1 C 6.025 km/h
241 01-08-2015 13:00:00 25.25833 C 9.46 g/m*3 25.26 C 8.06667 km/h
242 01-08-2015 14:00:00 26.96667 C 9.5 g/m*3 26.97 C 8.875 km/h
243 01-08-2015 15:00:00 28.00833 C 9.43 g/m*3 28.01 C 8.625 km/h
244 01-08-2015 16:00:00 28.125 C 9.22 g/m*3 28.13 C 6.98333 km/h
245 01-08-2015 17:00:00 27.60833 C 9.32 g/m*3 27.61 C 5.89167 km/h
246 01-08-2015 18:00:00 26.31667 C 10.1 g/m*3 26.32 C 6.03333 km/h
247 01-08-2015 19:00:00 26.99167 C 9.69 g/m*3 26.99 C 9.80833 km/h
248 01-08-2015 20:00:00 23.00833 C 10.25 g/m*3 23.01 C 2.675 km/h
249 01-08-2015 21:00:00 20.3 C 10.39 g/m*3 20.3 C 0.8 km/h
250 01-08-2015 22:00:00 18.6 C 10.27 g/m*3 18.6 C 1.06667 km/h
Sensor: Nr:Datum:Temp:Abs-Feuchte:Windchill:Wind:
Aussen-T/F 251 01-08-2015 23:00:00 17.85 C 10.12 g/m*3 17.85 C 1.06667 km/h
252 02-08-2015 00:00:00 17.325 C 10.13 g/m*3 17.33 C 0.93333 km/h
253 02-08-2015 01:00:00 16.28333 C 9.99 g/m*3 16.28 C 0.26667 km/h
254 02-08-2015 02:00:00 15.575 C 9.89 g/m*3 15.58 C 0.8 km/h
255 02-08-2015 03:00:00 14.49167 C 9.85 g/m*3 14.49 C 0.53333 km/h
256 02-08-2015 04:00:00 13.5 C 9.74 g/m*3 13.5 C 0 km/h
257 02-08-2015 05:00:00 12.525 C 9.55 g/m*3 12.53 C 0 km/h
258 02-08-2015 06:00:00 12.025 C 9.46 g/m*3 12.03 C 0 km/h
259 02-08-2015 07:00:00 12.33333 C 9.68 g/m*3 12.33 C 0.13333 km/h
260 02-08-2015 08:00:00 13.51667 C 10.26 g/m*3 13.52 C 0 km/h
261 02-08-2015 09:00:00 15.48333 C 10.85 g/m*3 15.48 C 0 km/h
262 02-08-2015 10:00:00 17.90833 C 11.22 g/m*3 17.91 C 1.73333 km/h
263 02-08-2015 11:00:00 22.45 C 11.49 g/m*3 22.45 C 2.66667 km/h
264 02-08-2015 12:00:00 25.24167 C 11.45 g/m*3 25.24 C 5.88333 km/h
265 02-08-2015 13:00:00 27.275 C 11.21 g/m*3 27.28 C 7.375 km/h
266 02-08-2015 14:00:00 28.58333 C 11.02 g/m*3 28.58 C 7.11667 km/h
267 02-08-2015 15:00:00 29.575 C 10.72 g/m*3 29.58 C 7.525 km/h
268 02-08-2015 16:00:00 30.74167 C 10.39 g/m*3 30.74 C 10.225 km/h
269 02-08-2015 17:00:00 30.49167 C 10.38 g/m*3 30.49 C 9.26667 km/h
270 02-08-2015 18:00:00 29.90833 C 10.36 g/m*3 29.91 C 7.10833 km/h
271 02-08-2015 19:00:00 28.9 C 10.71 g/m*3 28.9 C 6.725 km/h
272 02-08-2015 20:00:00 25.39167 C 12.45 g/m*3 25.39 C 0.26667 km/h
273 02-08-2015 21:00:00 21.51667 C 10.68 g/m*3 21.52 C 1.6 km/h
274 02-08-2015 22:00:00 20.38333 C 10.18 g/m*3 20.38 C 0.93333 km/h
275 02-08-2015 23:00:00 18.90833 C 10.55 g/m*3 18.91 C 0 km/h
Sensor: Nr:Datum:Temp:Abs-Feuchte:Windchill:Wind:
Aussen-T/F 276 03-08-2015 00:00:00 17.80833 C 10.45 g/m*3 17.81 C 0.13333 km/h
277 03-08-2015 01:00:00 16.69167 C 10.33 g/m*3 16.69 C 0 km/h
278 03-08-2015 02:00:00 15.60833 C 10.27 g/m*3 15.61 C 0 km/h
279 03-08-2015 03:00:00 14.875 C 10.13 g/m*3 14.88 C 0 km/h
280 03-08-2015 04:00:00 14.225 C 10 g/m*3 14.23 C 0 km/h
281 03-08-2015 05:00:00 13.70833 C 9.94 g/m*3 13.71 C 0 km/h
282 03-08-2015 06:00:00 13.41667 C 9.91 g/m*3 13.42 C 0 km/h
283 03-08-2015 07:00:00 13.61667 C 10.2 g/m*3 13.62 C 0 km/h
284 03-08-2015 08:00:00 14.88333 C 10.79 g/m*3 14.88 C 0 km/h
285 03-08-2015 09:00:00 17.125 C 11.48 g/m*3 17.13 C 0 km/h
286 03-08-2015 10:00:00 19.575 C 12.46 g/m*3 19.58 C 0 km/h
287 03-08-2015 11:00:00 25.125 C 12.29 g/m*3 25.13 C 2.275 km/h
288 03-08-2015 12:00:00 30.45 C 10.64 g/m*3 30.45 C 7.8 km/h
289 03-08-2015 13:00:00 31.95 C 10.66 g/m*3 31.95 C 8.31667 km/h
290 03-08-2015 14:00:00 33.08333 C 10.13 g/m*3 33.08 C 8.98333 km/h
291 03-08-2015 15:00:00 33.99167 C 9.97 g/m*3 33.99 C 8.86667 km/h
292 03-08-2015 16:00:00 35.05 C 10.54 g/m*3 35.05 C 6.29167 km/h
293 03-08-2015 17:00:00 35.63333 C 10.04 g/m*3 35.63 C 7.93333 km/h
294 03-08-2015 18:00:00 34.86667 C 9.98 g/m*3 34.87 C 6.175 km/h
295 03-08-2015 19:00:00 29.35833 C 12.25 g/m*3 29.36 C 0.8 km/h
296 03-08-2015 20:00:00 25.85833 C 11.63 g/m*3 25.86 C 1.06667 km/h
297 03-08-2015 21:00:00 23.81 C 11.49 g/m*3 23.81 C 0.16 km/h
298 03-08-2015 22:00:00 23.28571 C 11.7 g/m*3 23.29 C 0.91429 km/h
299 03-08-2015 23:00:00 22.75833 C 11.84 g/m*3 22.76 C 0.66667 km/h
300 04-08-2015 00:00:00 21.81667 C 12.1 g/m*3 21.82 C 0 km/h
Sensor: Nr:Datum:Temp:Abs-Feuchte:Windchill:Wind:
Aussen-T/F 301 04-08-2015 01:00:00 19.275 C 12.01 g/m*3 19.27 C 0 km/h
302 04-08-2015 02:00:00 18.09167 C 11.66 g/m*3 18.09 C 0 km/h
303 04-08-2015 03:00:00 17.3 C 11.44 g/m*3 17.3 C 0 km/h
304 04-08-2015 04:00:00 16.74167 C 11.37 g/m*3 16.74 C 0 km/h
305 04-08-2015 05:00:00 16.24167 C 11.39 g/m*3 16.24 C 0 km/h
306 04-08-2015 06:00:00 16.075 C 11.55 g/m*3 16.08 C 0 km/h
307 04-08-2015 07:00:00 17.00833 C 12.11 g/m*3 17.01 C 0 km/h
308 04-08-2015 08:00:00 19.69167 C 12.76 g/m*3 19.69 C 0.8 km/h
309 04-08-2015 09:00:00 21.90833 C 13.43 g/m*3 21.91 C 1.60833 km/h
310 04-08-2015 10:00:00 23.99167 C 13.16 g/m*3 23.99 C 6.3 km/h
311 04-08-2015 11:00:00 24.10833 C 13.17 g/m*3 24.11 C 11.275 km/h
312 04-08-2015 12:00:00 21.38333 C 14.92 g/m*3 21.38 C 3.225 km/h
313 04-08-2015 13:00:00 19.75833 C 15.59 g/m*3 19.76 C 0.53333 km/h
314 04-08-2015 14:00:00 20.55 C 16.02 g/m*3 20.55 C 3.60833 km/h
315 04-08-2015 15:00:00 21.60833 C 16.32 g/m*3 21.61 C 6.31667 km/h
316 04-08-2015 16:00:00 21.08333 C 16.69 g/m*3 21.08 C 0.13333 km/h
317 04-08-2015 17:00:00 18.89167 C 14.44 g/m*3 18.89 C 9.55 km/h
318 04-08-2015 18:00:00 18.24167 C 13.95 g/m*3 18.24 C 6.16667 km/h
319 04-08-2015 19:00:00 18.6 C 14.1 g/m*3 18.6 C 1.6 km/h
320 04-08-2015 20:00:00 18.15833 C 14.08 g/m*3 18.16 C 0 km/h
321 04-08-2015 21:00:00 16.35 C 12.89 g/m*3 16.35 C 0.26667 km/h
322 04-08-2015 22:00:00 15.31667 C 12.3 g/m*3 15.32 C 0 km/h
323 04-08-2015 23:00:00 14.6 C 11.88 g/m*3 14.6 C 0 km/h
324 05-08-2015 00:00:00 14.00833 C 11.48 g/m*3 14.01 C 0 km/h
325 05-08-2015 01:00:00 13.61667 C 11.31 g/m*3 13.62 C 0 km/h
Sensor: Nr:Datum:Temp:Abs-Feuchte:Windchill:Wind:
Aussen-T/F 326 05-08-2015 02:00:00 14.03333 C 11.61 g/m*3 14.03 C 0 km/h
327 05-08-2015 03:00:00 14.1 C 11.65 g/m*3 14.1 C 0 km/h
328 05-08-2015 04:00:00 13.98333 C 11.6 g/m*3 13.98 C 0 km/h
329 05-08-2015 05:00:00 13.725 C 11.46 g/m*3 13.73 C 0 km/h
330 05-08-2015 06:00:00 13.70833 C 11.49 g/m*3 13.71 C 0 km/h
331 05-08-2015 07:00:00 13.83333 C 11.58 g/m*3 13.83 C 0 km/h
332 05-08-2015 08:00:00 14.24167 C 11.87 g/m*3 14.24 C 0 km/h
333 05-08-2015 09:00:00 15.15 C 12.5 g/m*3 15.15 C 0 km/h
334 05-08-2015 10:00:00 16.24167 C 13.01 g/m*3 16.24 C 0 km/h
335 05-08-2015 11:00:00 20.79167 C 14.33 g/m*3 20.79 C 5.75 km/h
336 05-08-2015 12:00:00 23.39167 C 13.19 g/m*3 23.39 C 6.55 km/h
337 05-08-2015 13:00:00 25.08333 C 12.45 g/m*3 25.08 C 7.38333 km/h
338 05-08-2015 14:00:00 26.90833 C 11.91 g/m*3 26.91 C 10.35 km/h
339 05-08-2015 15:00:00 28.10833 C 11.69 g/m*3 28.11 C 9 km/h
340 05-08-2015 16:00:00 28.33333 C 11.22 g/m*3 28.33 C 7.51667 km/h
341 05-08-2015 17:00:00 29.3 C 11.43 g/m*3 29.3 C 9.15 km/h
342 05-08-2015 18:00:00 28.875 C 12.08 g/m*3 28.88 C 4.00833 km/h
343 05-08-2015 19:00:00 25.675 C 14.44 g/m*3 25.68 C 1.33333 km/h
344 05-08-2015 20:00:00 22.34167 C 14.12 g/m*3 22.34 C 0.8 km/h
345 05-08-2015 21:00:00 20.625 C 13.43 g/m*3 20.63 C 1.46667 km/h
346 05-08-2015 22:00:00 19.88333 C 13.22 g/m*3 19.88 C 0.26667 km/h
347 05-08-2015 23:00:00 19.05 C 12.9 g/m*3 19.05 C 0 km/h
348 06-08-2015 00:00:00 17.99167 C 12.49 g/m*3 17.99 C 0 km/h
349 06-08-2015 01:00:00 17.13333 C 12.2 g/m*3 17.13 C 0 km/h
350 06-08-2015 02:00:00 16.39167 C 11.97 g/m*3 16.39 C 0 km/h
Sensor: Nr:Datum:Temp:Abs-Feuchte:Windchill:Wind:
Aussen-T/F 351 06-08-2015 03:00:00 15.525 C 11.8 g/m*3 15.53 C 0 km/h
352 06-08-2015 04:00:00 15.13333 C 11.77 g/m*3 15.13 C 0 km/h
353 06-08-2015 05:00:00 14.75 C 11.58 g/m*3 14.75 C 0 km/h
354 06-08-2015 06:00:00 14.54167 C 11.58 g/m*3 14.54 C 0 km/h
355 06-08-2015 07:00:00 14.95833 C 11.91 g/m*3 14.96 C 0 km/h
356 06-08-2015 08:00:00 15.975 C 12.6 g/m*3 15.98 C 0 km/h
357 06-08-2015 09:00:00 18.40833 C 13.56 g/m*3 18.41 C 0 km/h
358 06-08-2015 10:00:00 21.30833 C 14.06 g/m*3 21.31 C 0.13333 km/h
359 06-08-2015 11:00:00 23.80833 C 14.49 g/m*3 23.81 C 0 km/h
360 06-08-2015 12:00:00 26.89167 C 16.12 g/m*3 26.89 C 0.80833 km/h
361 06-08-2015 13:00:00 32.78333 C 14.55 g/m*3 32.78 C 6.575 km/h
362 06-08-2015 14:00:00 33.65 C 14.8 g/m*3 33.65 C 5.88333 km/h
363 06-08-2015 15:00:00 34.525 C 14.43 g/m*3 34.53 C 8.31667 km/h
364 06-08-2015 16:00:00 36.50833 C 11.97 g/m*3 36.51 C 11.95833 km/h
365 06-08-2015 17:00:00 36.79167 C 11.38 g/m*3 36.79 C 11.15833 km/h
366 06-08-2015 18:00:00 35.85833 C 11.68 g/m*3 35.86 C 7.53333 km/h
367 06-08-2015 19:00:00 30.63333 C 14.51 g/m*3 30.63 C 1.6 km/h
368 06-08-2015 20:00:00 27.80833 C 15.18 g/m*3 27.81 C 0.53333 km/h
369 06-08-2015 21:00:00 25.73333 C 14.45 g/m*3 25.73 C 0.53333 km/h
370 06-08-2015 22:00:00 24.93333 C 14.72 g/m*3 24.93 C 0 km/h
371 06-08-2015 23:00:00 23.95833 C 14.65 g/m*3 23.96 C 0 km/h
372 07-08-2015 00:00:00 22.475 C 14.26 g/m*3 22.48 C 0 km/h
373 07-08-2015 01:00:00 21 C 13.91 g/m*3 21 C 0 km/h
374 07-08-2015 02:00:00 19.91667 C 13.39 g/m*3 19.92 C 0 km/h
375 07-08-2015 03:00:00 19.4 C 12.6 g/m*3 19.4 C 0 km/h
Sensor: Nr:Datum:Temp:Abs-Feuchte:Windchill:Wind:
Aussen-T/F 376 07-08-2015 04:00:00 19.76667 C 12.53 g/m*3 19.77 C 0 km/h
377 07-08-2015 05:00:00 19.5 C 13.19 g/m*3 19.5 C 0 km/h
378 07-08-2015 06:00:00 19.65 C 13.74 g/m*3 19.65 C 0.26667 km/h
379 07-08-2015 07:00:00 20.7 C 14.48 g/m*3 20.7 C 1.33333 km/h
380 07-08-2015 08:00:00 21.21667 C 14.89 g/m*3 21.22 C 3.48333 km/h
381 07-08-2015 09:00:00 21.85833 C 15.05 g/m*3 21.86 C 2.66667 km/h
382 07-08-2015 10:00:00 24.18333 C 15.52 g/m*3 24.18 C 3.46667 km/h
383 07-08-2015 11:00:00 28.125 C 15.93 g/m*3 28.13 C 8.05833 km/h
384 07-08-2015 12:00:00 31.19167 C 15.55 g/m*3 31.19 C 8.475 km/h
385 07-08-2015 13:00:00 33.36667 C 15.48 g/m*3 33.37 C 8.46667 km/h
386 07-08-2015 14:00:00 35.46667 C 15.09 g/m*3 35.47 C 8.325 km/h
387 07-08-2015 15:00:00 36.75833 C 15.22 g/m*3 36.76 C 9.00833 km/h
388 07-08-2015 16:00:00 36.91667 C 15.35 g/m*3 36.92 C 9.01667 km/h
389 07-08-2015 17:00:00 36.725 C 16.53 g/m*3 36.73 C 11.43333 km/h
390 07-08-2015 18:00:00 35.075 C 17.2 g/m*3 35.08 C 12.23333 km/h
391 07-08-2015 19:00:00 33.09167 C 16.84 g/m*3 33.09 C 10.63333 km/h
392 07-08-2015 20:00:00 30.54167 C 15.79 g/m*3 30.54 C 7.53333 km/h
393 07-08-2015 21:00:00 27.775 C 16.14 g/m*3 27.78 C 2.54167 km/h
394 07-08-2015 22:00:00 26.53333 C 16.15 g/m*3 26.53 C 5.625 km/h
395 07-08-2015 23:00:00 25.4 C 16.3 g/m*3 25.4 C 4.15 km/h
396 08-08-2015 00:00:00 24.25833 C 16.89 g/m*3 24.26 C 6.025 km/h
397 08-08-2015 01:00:00 22.19167 C 16.6 g/m*3 22.19 C 0 km/h
398 08-08-2015 02:00:00 22.775 C 16.66 g/m*3 22.78 C 8.325 km/h
399 08-08-2015 03:00:00 23.25 C 16.51 g/m*3 23.25 C 2.675 km/h
400 08-08-2015 04:00:00 22.66667 C 16.2 g/m*3 22.67 C 0 km/h
Sensor: Nr:Datum:Temp:Abs-Feuchte:Windchill:Wind:
Aussen-T/F 401 08-08-2015 05:00:00 22.19167 C 16.06 g/m*3 22.19 C 6.96667 km/h
402 08-08-2015 06:00:00 21.03333 C 15.91 g/m*3 21.03 C 1.20833 km/h
403 08-08-2015 07:00:00 21.03333 C 16.52 g/m*3 21.03 C 1.33333 km/h
404 08-08-2015 08:00:00 21.98333 C 17.13 g/m*3 21.98 C 2.53333 km/h
405 08-08-2015 09:00:00 22.75 C 17.1 g/m*3 22.75 C 6.45 km/h
406 08-08-2015 10:00:00 23.4 C 16.93 g/m*3 23.4 C 10.48333 km/h
407 08-08-2015 11:00:00 24.29167 C 16.85 g/m*3 24.29 C 10.225 km/h
408 08-08-2015 12:00:00 24.20833 C 16.6 g/m*3 24.21 C 12.76667 km/h
409 08-08-2015 13:00:00 24.5 C 16.6 g/m*3 24.5 C 14.63333 km/h
410 08-08-2015 14:00:00 23.18333 C 15.99 g/m*3 23.18 C 15.43333 km/h
411 08-08-2015 15:00:00 22.76667 C 15.94 g/m*3 22.77 C 14.76667 km/h
412 08-08-2015 16:00:00 23.34167 C 16.03 g/m*3 23.34 C 13.03333 km/h
413 08-08-2015 17:00:00 24.90833 C 16.24 g/m*3 24.91 C 11.7 km/h
414 08-08-2015 18:00:00 24.54167 C 15.72 g/m*3 24.54 C 13.43333 km/h
415 08-08-2015 19:00:00 23.60833 C 15.55 g/m*3 23.61 C 10.09167 km/h
416 08-08-2015 20:00:00 22.33333 C 14.95 g/m*3 22.33 C 9.68333 km/h
417 08-08-2015 21:00:00 21.31667 C 14.58 g/m*3 21.32 C 6.56667 km/h
418 08-08-2015 22:00:00 20.51667 C 14.38 g/m*3 20.52 C 2.8 km/h
419 08-08-2015 23:00:00 20.63333 C 14.53 g/m*3 20.63 C 2.4 km/h
420 09-08-2015 00:00:00 20.35833 C 14.49 g/m*3 20.36 C 1.2 km/h
421 09-08-2015 01:00:00 19.88333 C 14.58 g/m*3 19.88 C 1.33333 km/h
422 09-08-2015 02:00:00 19.54167 C 14.47 g/m*3 19.54 C 0.93333 km/h
423 09-08-2015 03:00:00 19.03333 C 14.19 g/m*3 19.03 C 0.66667 km/h
424 09-08-2015 04:00:00 17.9 C 13.75 g/m*3 17.9 C 0 km/h
425 09-08-2015 05:00:00 17.50833 C 13.61 g/m*3 17.51 C 0 km/h
Sensor: Nr:Datum:Temp:Abs-Feuchte:Windchill:Wind:
Aussen-T/F 426 09-08-2015 06:00:00 17.63333 C 13.76 g/m*3 17.63 C 1.06667 km/h
427 09-08-2015 07:00:00 18.6 C 13.93 g/m*3 18.6 C 3.73333 km/h
428 09-08-2015 08:00:00 19.28333 C 13.93 g/m*3 19.28 C 1.06667 km/h
429 09-08-2015 09:00:00 19.91667 C 14.15 g/m*3 19.92 C 2.13333 km/h
430 09-08-2015 10:00:00 20.875 C 14.47 g/m*3 20.88 C 1.73333 km/h
431 09-08-2015 11:00:00 22.19167 C 15.01 g/m*3 22.19 C 4.28333 km/h
432 09-08-2015 12:00:00 23.40833 C 15.36 g/m*3 23.41 C 8.475 km/h
433 09-08-2015 13:00:00 24.7 C 16.01 g/m*3 24.7 C 9.825 km/h
434 09-08-2015 14:00:00 25.675 C 16.32 g/m*3 25.68 C 8.86667 km/h
435 09-08-2015 15:00:00 25.66667 C 16.35 g/m*3 25.67 C 8.35 km/h
436 09-08-2015 16:00:00 25.41667 C 16.38 g/m*3 25.42 C 9.13333 km/h
437 09-08-2015 17:00:00 26.23333 C 16.69 g/m*3 26.23 C 10.1 km/h
438 09-08-2015 18:00:00 27.3 C 16.68 g/m*3 27.3 C 10.1 km/h
439 09-08-2015 19:00:00 26.1 C 16.26 g/m*3 26.1 C 7.79167 km/h
440 09-08-2015 20:00:00 24.94167 C 15.66 g/m*3 24.94 C 6.15833 km/h
441 09-08-2015 21:00:00 23.01667 C 14.97 g/m*3 23.02 C 4.69167 km/h
442 09-08-2015 22:00:00 21.66667 C 14.53 g/m*3 21.67 C 2.13333 km/h
443 09-08-2015 23:00:00 20.85833 C 14.29 g/m*3 20.86 C 1.33333 km/h
444 10-08-2015 00:00:00 20.58333 C 14.2 g/m*3 20.58 C 2.13333 km/h
445 10-08-2015 01:00:00 20.4 C 14.14 g/m*3 20.4 C 1.6 km/h
446 10-08-2015 02:00:00 20.425 C 14 g/m*3 20.43 C 4.41667 km/h
447 10-08-2015 03:00:00 20.01667 C 14.14 g/m*3 20.02 C 0.53333 km/h
448 10-08-2015 04:00:00 19.25833 C 14.3 g/m*3 19.26 C 1.06667 km/h
449 10-08-2015 05:00:00 17.93333 C 14.15 g/m*3 17.93 C 3.20833 km/h
450 10-08-2015 06:00:00 17.48333 C 14.04 g/m*3 17.48 C 0.93333 km/h
Sensor: Nr:Datum:Temp:Abs-Feuchte:Windchill:Wind:
Aussen-T/F 451 10-08-2015 07:00:00 17.49167 C 14.17 g/m*3 17.49 C 0.13333 km/h
452 10-08-2015 08:00:00 17.98333 C 14.63 g/m*3 17.98 C 0.4 km/h
453 10-08-2015 09:00:00 18.35833 C 14.75 g/m*3 18.36 C 2.28333 km/h
454 10-08-2015 10:00:00 18.95833 C 14.71 g/m*3 18.96 C 4.56667 km/h
455 10-08-2015 11:00:00 20.84167 C 15.35 g/m*3 20.84 C 9.56667 km/h
456 10-08-2015 12:00:00 22.20833 C 15.24 g/m*3 22.21 C 11.7 km/h
457 10-08-2015 13:00:00 22.98333 C 15.16 g/m*3 22.98 C 14.5 km/h
458 10-08-2015 14:00:00 23.88333 C 15.18 g/m*3 23.88 C 14.1 km/h
459 10-08-2015 15:00:00 23.74167 C 14.94 g/m*3 23.74 C 12.63333 km/h
460 10-08-2015 16:00:00 22.575 C 14.49 g/m*3 22.58 C 13.83333 km/h
461 10-08-2015 17:00:00 21.09167 C 14.21 g/m*3 21.09 C 12.5 km/h
462 10-08-2015 18:00:00 19.81667 C 12.95 g/m*3 19.82 C 8.45833 km/h
463 10-08-2015 19:00:00 18.925 C 12.93 g/m*3 18.93 C 6.575 km/h
464 10-08-2015 20:00:00 17.84167 C 13.01 g/m*3 17.84 C 7.25833 km/h
465 10-08-2015 21:00:00 17.23333 C 12.78 g/m*3 17.23 C 7.65 km/h
466 10-08-2015 22:00:00 17.20833 C 12.89 g/m*3 17.21 C 5.08333 km/h
467 10-08-2015 23:00:00 17.225 C 12.97 g/m*3 17.23 C 2.4 km/h
468 11-08-2015 00:00:00 17.50833 C 13.16 g/m*3 17.51 C 0.8 km/h
469 11-08-2015 01:00:00 17.575 C 13.18 g/m*3 17.58 C 1.2 km/h
470 11-08-2015 02:00:00 17.425 C 13.06 g/m*3 17.43 C 1.73333 km/h
471 11-08-2015 03:00:00 17.40833 C 13.02 g/m*3 17.41 C 2.80833 km/h
472 11-08-2015 04:00:00 17.38333 C 13.14 g/m*3 17.38 C 0.13333 km/h
473 11-08-2015 05:00:00 17.36667 C 13.13 g/m*3 17.37 C 0.4 km/h
474 11-08-2015 06:00:00 17.15833 C 12.88 g/m*3 17.16 C 2.66667 km/h
475 11-08-2015 07:00:00 17.58333 C 13.14 g/m*3 17.58 C 0.13333 km/h
Sensor: Nr:Datum:Temp:Abs-Feuchte:Windchill:Wind:
Aussen-T/F 476 11-08-2015 08:00:00 18.175 C 13.45 g/m*3 18.18 C 1.06667 km/h
477 11-08-2015 09:00:00 19.11667 C 13.63 g/m*3 19.12 C 2.93333 km/h
478 11-08-2015 10:00:00 20.875 C 13.79 g/m*3 20.88 C 3.33333 km/h
479 11-08-2015 11:00:00 22.875 C 13.88 g/m*3 22.88 C 6.43333 km/h
480 11-08-2015 12:00:00 25.04167 C 14.54 g/m*3 25.04 C 9.95 km/h
481 11-08-2015 13:00:00 26.11667 C 14.89 g/m*3 26.12 C 10.48333 km/h
482 11-08-2015 14:00:00 27.475 C 13.8 g/m*3 27.48 C 12.09167 km/h
483 11-08-2015 15:00:00 27.24167 C 14.04 g/m*3 27.24 C 10.89167 km/h
484 11-08-2015 16:00:00 27.56667 C 15.31 g/m*3 27.57 C 11.96667 km/h
485 11-08-2015 17:00:00 28.24167 C 15.75 g/m*3 28.24 C 9.29167 km/h
486 11-08-2015 18:00:00 27.76667 C 15.73 g/m*3 27.77 C 10.49167 km/h
487 11-08-2015 19:00:00 25.9 C 15.23 g/m*3 25.9 C 9.14167 km/h
488 11-08-2015 20:00:00 24.4 C 15.21 g/m*3 24.4 C 4.29167 km/h
489 11-08-2015 21:00:00 23.15833 C 15.31 g/m*3 23.16 C 2.53333 km/h
490 11-08-2015 22:00:00 22.18333 C 15.09 g/m*3 22.18 C 1.2 km/h
491 11-08-2015 23:00:00 20.53333 C 14.75 g/m*3 20.53 C 0.13333 km/h
492 12-08-2015 00:00:00 20.46667 C 14.84 g/m*3 20.47 C 0 km/h
493 12-08-2015 01:00:00 19.975 C 14.48 g/m*3 19.98 C 0 km/h
494 12-08-2015 02:00:00 19.075 C 14.19 g/m*3 19.08 C 0 km/h
495 12-08-2015 03:00:00 18.35833 C 13.98 g/m*3 18.36 C 0 km/h
496 12-08-2015 04:00:00 17.73333 C 13.78 g/m*3 17.73 C 0 km/h
497 12-08-2015 05:00:00 17.325 C 13.62 g/m*3 17.33 C 0 km/h
498 12-08-2015 06:00:00 17.11667 C 13.59 g/m*3 17.12 C 0 km/h
499 12-08-2015 07:00:00 17.50833 C 14 g/m*3 17.51 C 0 km/h
500 12-08-2015 08:00:00 18.96667 C 14.87 g/m*3 18.97 C 0 km/h
Sensor: Nr:Datum:Temp:Abs-Feuchte:Windchill:Wind:
Aussen-T/F 501 12-08-2015 09:00:00 20.35 C 15.17 g/m*3 20.35 C 0.66667 km/h
502 12-08-2015 10:00:00 21.40833 C 15.47 g/m*3 21.41 C 0.53333 km/h
503 12-08-2015 11:00:00 22.44167 C 15.79 g/m*3 22.44 C 3.2 km/h
504 12-08-2015 12:00:00 24.125 C 16.1 g/m*3 24.13 C 4.94167 km/h
505 12-08-2015 13:00:00 25.79167 C 16.56 g/m*3 25.79 C 4.80833 km/h
506 12-08-2015 14:00:00 27.55 C 16.98 g/m*3 27.55 C 5.60833 km/h
507 12-08-2015 15:00:00 29.425 C 17.17 g/m*3 29.43 C 6.56667 km/h
508 12-08-2015 16:00:00 30.48333 C 17.04 g/m*3 30.48 C 8.05833 km/h
509 12-08-2015 17:00:00 30.53333 C 16.96 g/m*3 30.53 C 7.1 km/h
510 12-08-2015 18:00:00 29.84167 C 17.31 g/m*3 29.84 C 8.06667 km/h
511 12-08-2015 19:00:00 29.425 C 17.54 g/m*3 29.43 C 8.08333 km/h
512 12-08-2015 20:00:00 27.05 C 17.46 g/m*3 27.05 C 5.35 km/h
513 12-08-2015 21:00:00 24.30833 C 17.25 g/m*3 24.31 C 1.075 km/h
514 12-08-2015 22:00:00 23.06667 C 17.09 g/m*3 23.07 C 0.93333 km/h
515 12-08-2015 23:00:00 22.05 C 16.82 g/m*3 22.05 C 0 km/h
516 13-08-2015 00:00:00 21.225 C 16.55 g/m*3 21.23 C 0 km/h
517 13-08-2015 01:00:00 20.525 C 16.11 g/m*3 20.53 C 0 km/h
518 13-08-2015 02:00:00 19.60833 C 15.5 g/m*3 19.61 C 0 km/h
519 13-08-2015 03:00:00 19.00833 C 15 g/m*3 19.01 C 0 km/h
520 13-08-2015 04:00:00 18.51667 C 14.58 g/m*3 18.52 C 0 km/h
521 13-08-2015 05:00:00 18 C 14.22 g/m*3 18 C 0.13333 km/h
522 13-08-2015 06:00:00 17.8 C 14.12 g/m*3 17.8 C 0 km/h
523 13-08-2015 07:00:00 17.93333 C 14.19 g/m*3 17.93 C 0 km/h
524 13-08-2015 08:00:00 18.775 C 14.73 g/m*3 18.77 C 0 km/h
525 13-08-2015 09:00:00 20.425 C 15.35 g/m*3 20.43 C 0.53333 km/h
Sensor: Nr:Datum:Temp:Abs-Feuchte:Windchill:Wind:
Aussen-T/F 526 13-08-2015 10:00:00 23.025 C 15.68 g/m*3 23.03 C 3.46667 km/h
527 13-08-2015 11:00:00 26.025 C 16.19 g/m*3 26.03 C 5.75833 km/h
528 13-08-2015 12:00:00 28.85833 C 16.46 g/m*3 28.86 C 7.26667 km/h
529 13-08-2015 13:00:00 31.575 C 16.47 g/m*3 31.58 C 7.66667 km/h
530 13-08-2015 14:00:00 33.35833 C 16.2 g/m*3 33.36 C 10.225 km/h
531 13-08-2015 15:00:00 33.89167 C 15.76 g/m*3 33.89 C 8.60833 km/h
532 13-08-2015 16:00:00 33.28333 C 16.17 g/m*3 33.28 C 7.79167 km/h
533 13-08-2015 17:00:00 34.26667 C 16.11 g/m*3 34.27 C 14.76667 km/h
534 13-08-2015 18:00:00 34.50833 C 15.57 g/m*3 34.51 C 10.48333 km/h
535 13-08-2015 19:00:00 31.68333 C 17.07 g/m*3 31.68 C 2.55 km/h
536 13-08-2015 20:00:00 27.34167 C 16.76 g/m*3 27.34 C 0.93333 km/h
537 13-08-2015 21:00:00 26.50833 C 16.84 g/m*3 26.51 C 0.8 km/h
538 13-08-2015 22:00:00 26.75 C 16.69 g/m*3 26.75 C 3.625 km/h
539 13-08-2015 23:00:00 24.85833 C 16.69 g/m*3 24.86 C 0.13333 km/h
540 14-08-2015 00:00:00 25.09167 C 15.87 g/m*3 25.09 C 10.18333 km/h
541 14-08-2015 01:00:00 23.96667 C 15.18 g/m*3 23.97 C 17.175 km/h
542 14-08-2015 02:00:00 22.31667 C 15.73 g/m*3 22.32 C 9.4 km/h
543 14-08-2015 03:00:00 21.95 C 15.59 g/m*3 21.95 C 2.95 km/h
544 14-08-2015 04:00:00 21.13333 C 15.61 g/m*3 21.13 C 0.4 km/h
545 14-08-2015 05:00:00 20.09167 C 15.52 g/m*3 20.09 C 0.13333 km/h
546 14-08-2015 06:00:00 19.775 C 15.35 g/m*3 19.77 C 0.93333 km/h
547 14-08-2015 07:00:00 19.96667 C 15.52 g/m*3 19.97 C 0.13333 km/h
548 14-08-2015 08:00:00 20.98333 C 15.94 g/m*3 20.98 C 3.075 km/h
549 14-08-2015 09:00:00 22.225 C 15.58 g/m*3 22.23 C 9.26667 km/h
550 14-08-2015 10:00:00 22.61667 C 15.37 g/m*3 22.62 C 13.56667 km/h
Sensor: Nr:Datum:Temp:Abs-Feuchte:Windchill:Wind:
Aussen-T/F 551 14-08-2015 11:00:00 22.95833 C 15.55 g/m*3 22.96 C 9.00833 km/h
552 14-08-2015 12:00:00 25.19167 C 15.47 g/m*3 25.19 C 9.55833 km/h
553 14-08-2015 13:00:00 26.61667 C 15.24 g/m*3 26.62 C 12.76667 km/h
554 14-08-2015 14:00:00 27.44167 C 14.88 g/m*3 27.44 C 12.1 km/h
555 14-08-2015 15:00:00 28.14167 C 14.73 g/m*3 28.14 C 9.55 km/h
556 14-08-2015 16:00:00 28.61667 C 14.32 g/m*3 28.62 C 10.475 km/h
557 14-08-2015 17:00:00 28.95 C 14.25 g/m*3 28.95 C 10.9 km/h
558 14-08-2015 18:00:00 28.98333 C 13.77 g/m*3 28.98 C 11.025 km/h
559 14-08-2015 19:00:00 28.475 C 13.44 g/m*3 28.48 C 6.98333 km/h
560 14-08-2015 20:00:00 26.975 C 13.71 g/m*3 26.98 C 1.6 km/h
561 14-08-2015 21:00:00 23.675 C 13.95 g/m*3 23.68 C 0.13333 km/h
562 14-08-2015 22:00:00 22.26667 C 13.76 g/m*3 22.27 C 0 km/h
563 14-08-2015 23:00:00 21.76667 C 13.6 g/m*3 21.77 C 0.66667 km/h
564 15-08-2015 00:00:00 21.44167 C 13.64 g/m*3 21.44 C 2.14167 km/h
565 15-08-2015 01:00:00 21.04167 C 13.57 g/m*3 21.04 C 1.86667 km/h
566 15-08-2015 02:00:00 20.11667 C 13.11 g/m*3 20.12 C 1.33333 km/h
567 15-08-2015 03:00:00 19.23333 C 12.82 g/m*3 19.23 C 1.6 km/h
568 15-08-2015 04:00:00 18.40833 C 12.81 g/m*3 18.41 C 0.26667 km/h
569 15-08-2015 05:00:00 18.30833 C 12.92 g/m*3 18.31 C 2.13333 km/h
570 15-08-2015 06:00:00 17.95 C 12.98 g/m*3 17.95 C 0 km/h
571 15-08-2015 07:00:00 17.28333 C 12.89 g/m*3 17.28 C 0 km/h
572 15-08-2015 08:00:00 17.69167 C 13.13 g/m*3 17.69 C 0.26667 km/h
573 15-08-2015 09:00:00 19.35 C 13.71 g/m*3 19.35 C 2.4 km/h
574 15-08-2015 10:00:00 21.63333 C 13.24 g/m*3 21.63 C 5.60833 km/h
575 15-08-2015 11:00:00 22.9 C 12.93 g/m*3 22.9 C 7.90833 km/h
Sensor: Nr:Datum:Temp:Abs-Feuchte:Windchill:Wind:
Aussen-T/F 576 15-08-2015 12:00:00 22.85833 C 13.05 g/m*3 22.86 C 10.475 km/h
577 15-08-2015 13:00:00 23.775 C 13 g/m*3 23.78 C 13.56667 km/h
578 15-08-2015 14:00:00 23.71667 C 13.18 g/m*3 23.72 C 14.63333 km/h
579 15-08-2015 15:00:00 23.30833 C 12.81 g/m*3 23.31 C 11.53333 km/h
580 15-08-2015 16:00:00 23.84167 C 12.36 g/m*3 23.84 C 10.88333 km/h
581 15-08-2015 17:00:00 23.78333 C 12.48 g/m*3 23.78 C 8.19167 km/h
582 15-08-2015 18:00:00 23.44167 C 13.03 g/m*3 23.44 C 8.19167 km/h
583 15-08-2015 19:00:00 22.6 C 13.07 g/m*3 22.6 C 5.61667 km/h
584 15-08-2015 20:00:00 21.1 C 13.11 g/m*3 21.1 C 9.275 km/h
585 15-08-2015 21:00:00 19.75 C 13.14 g/m*3 19.75 C 2.4 km/h
586 15-08-2015 22:00:00 19.075 C 13.04 g/m*3 19.08 C 4.29167 km/h
587 15-08-2015 23:00:00 18.10833 C 12.71 g/m*3 18.11 C 8.74167 km/h
588 16-08-2015 00:00:00 17.68333 C 12.36 g/m*3 17.68 C 7.64167 km/h
589 16-08-2015 01:00:00 17.30833 C 12.29 g/m*3 17.31 C 7.23333 km/h
590 16-08-2015 02:00:00 17.13333 C 12.2 g/m*3 17.13 C 7.79167 km/h
591 16-08-2015 03:00:00 17.05833 C 12.2 g/m*3 17.06 C 6.83333 km/h
592 16-08-2015 04:00:00 16.88333 C 12.21 g/m*3 16.88 C 8.60833 km/h
593 16-08-2015 05:00:00 16.81667 C 12.16 g/m*3 16.82 C 9.41667 km/h
594 16-08-2015 06:00:00 16.45833 C 12.23 g/m*3 16.46 C 9.15 km/h
595 16-08-2015 07:00:00 15.93333 C 12.41 g/m*3 15.93 C 3.86667 km/h
596 16-08-2015 08:00:00 15.71667 C 12.38 g/m*3 15.72 C 6.175 km/h
597 16-08-2015 09:00:00 15.7 C 12.34 g/m*3 15.7 C 5.49167 km/h
598 16-08-2015 10:00:00 15.76667 C 12.39 g/m*3 15.77 C 7.25 km/h
599 16-08-2015 11:00:00 15.86667 C 12.37 g/m*3 15.87 C 7.375 km/h
600 16-08-2015 12:00:00 15.80833 C 12.26 g/m*3 15.81 C 7.24167 km/h
Sensor: Nr:Datum:Temp:Abs-Feuchte:Windchill:Wind:
Aussen-T/F 601 16-08-2015 13:00:00 15.90833 C 12.13 g/m*3 15.91 C 8.04167 km/h
602 16-08-2015 14:00:00 15.725 C 12.12 g/m*3 15.73 C 6.43333 km/h
603 16-08-2015 15:00:00 15.79167 C 12.28 g/m*3 15.79 C 5.9 km/h
604 16-08-2015 16:00:00 15.79167 C 12.47 g/m*3 15.79 C 3.60833 km/h
605 16-08-2015 17:00:00 15.375 C 12.2 g/m*3 15.38 C 4.41667 km/h
606 16-08-2015 18:00:00 15.25 C 12.14 g/m*3 15.25 C 3.88333 km/h
607 16-08-2015 19:00:00 15.075 C 11.98 g/m*3 15.08 C 4.15833 km/h
608 16-08-2015 20:00:00 14.59167 C 11.57 g/m*3 14.59 C 4.55 km/h
609 16-08-2015 21:00:00 14.34167 C 11.49 g/m*3 14.34 C 4.95833 km/h
610 16-08-2015 22:00:00 14.275 C 11.49 g/m*3 14.28 C 2.4 km/h
611 16-08-2015 23:00:00 14.33333 C 11.53 g/m*3 14.33 C 4.15 km/h
612 17-08-2015 00:00:00 14.43333 C 11.49 g/m*3 14.43 C 6.04167 km/h
613 17-08-2015 01:00:00 14.425 C 11.42 g/m*3 14.43 C 6.15833 km/h
614 17-08-2015 02:00:00 14.375 C 11.34 g/m*3 14.38 C 6.43333 km/h
615 17-08-2015 03:00:00 14.3 C 11.22 g/m*3 14.3 C 5.76667 km/h
616 17-08-2015 04:00:00 14.3 C 11.11 g/m*3 14.3 C 7.525 km/h
617 17-08-2015 05:00:00 14.25833 C 11.03 g/m*3 14.26 C 7.1 km/h
618 17-08-2015 06:00:00 14.125 C 10.94 g/m*3 14.13 C 7.525 km/h
619 17-08-2015 07:00:00 14.18333 C 10.98 g/m*3 14.18 C 3.875 km/h
620 17-08-2015 08:00:00 14.26667 C 10.99 g/m*3 14.27 C 6.15833 km/h
621 17-08-2015 09:00:00 14.6 C 11.24 g/m*3 14.6 C 4.26667 km/h
622 17-08-2015 10:00:00 14.78333 C 11.51 g/m*3 14.78 C 4.84167 km/h
623 17-08-2015 11:00:00 15.80833 C 11.56 g/m*3 15.81 C 7.25 km/h
624 17-08-2015 12:00:00 16.05833 C 11.63 g/m*3 16.06 C 8.2 km/h
625 17-08-2015 13:00:00 15.90833 C 11.65 g/m*3 15.91 C 7.79167 km/h
Sensor: Nr:Datum:Temp:Abs-Feuchte:Windchill:Wind:
Aussen-T/F 626 17-08-2015 14:00:00 15.86667 C 11.78 g/m*3 15.87 C 4.425 km/h
627 17-08-2015 15:00:00 15.85 C 11.8 g/m*3 15.85 C 5.49167 km/h
628 17-08-2015 16:00:00 15.50833 C 11.87 g/m*3 15.51 C 4.00833 km/h
629 17-08-2015 17:00:00 15.35833 C 11.9 g/m*3 15.36 C 0.8 km/h
630 17-08-2015 18:00:00 14.95833 C 11.79 g/m*3 14.96 C 0.8 km/h
631 17-08-2015 19:00:00 14.6 C 11.75 g/m*3 14.6 C 0.26667 km/h
632 17-08-2015 20:00:00 14.325 C 11.63 g/m*3 14.33 C 0 km/h
633 17-08-2015 21:00:00 14.24167 C 11.63 g/m*3 14.24 C 0 km/h
634 17-08-2015 22:00:00 14.2 C 11.64 g/m*3 14.2 C 0.13333 km/h
635 17-08-2015 23:00:00 14.2 C 11.68 g/m*3 14.2 C 0 km/h
636 18-08-2015 00:00:00 14.075 C 11.63 g/m*3 14.08 C 0 km/h
637 18-08-2015 01:00:00 13.91667 C 11.52 g/m*3 13.92 C 0 km/h
638 18-08-2015 02:00:00 13.84167 C 11.42 g/m*3 13.84 C 0 km/h
639 18-08-2015 03:00:00 13.625 C 11.2 g/m*3 13.63 C 0 km/h
640 18-08-2015 04:00:00 13.66667 C 11.06 g/m*3 13.67 C 0 km/h
641 18-08-2015 05:00:00 13.54167 C 11.08 g/m*3 13.54 C 0 km/h
642 18-08-2015 06:00:00 13.56667 C 10.99 g/m*3 13.57 C 1.06667 km/h
643 18-08-2015 07:00:00 13.73333 C 10.95 g/m*3 13.73 C 1.33333 km/h
644 18-08-2015 08:00:00 14.24167 C 10.66 g/m*3 14.24 C 4.14167 km/h
645 18-08-2015 09:00:00 15.05 C 10.74 g/m*3 15.05 C 5.89167 km/h
646 18-08-2015 10:00:00 15.81667 C 10.82 g/m*3 15.82 C 7.925 km/h
647 18-08-2015 11:00:00 16.91667 C 10.94 g/m*3 16.92 C 7.11667 km/h
648 18-08-2015 12:00:00 18.55 C 10.94 g/m*3 18.55 C 9.41667 km/h
649 18-08-2015 13:00:00 19.35 C 10.83 g/m*3 19.35 C 8.34167 km/h
650 18-08-2015 14:00:00 18.875 C 10.58 g/m*3 18.88 C 6.975 km/h
Sensor: Nr:Datum:Temp:Abs-Feuchte:Windchill:Wind:
Aussen-T/F 651 18-08-2015 15:00:00 17.95833 C 10.64 g/m*3 17.96 C 3.86667 km/h
652 18-08-2015 16:00:00 18.90833 C 10.81 g/m*3 18.91 C 3.46667 km/h
653 18-08-2015 17:00:00 18.15 C 11.74 g/m*3 18.15 C 0.26667 km/h
654 18-08-2015 18:00:00 17.90833 C 11.75 g/m*3 17.91 C 0.4 km/h
655 18-08-2015 19:00:00 18.21667 C 11.76 g/m*3 18.22 C 1.2 km/h
656 18-08-2015 20:00:00 16.61667 C 11.97 g/m*3 16.62 C 0 km/h
657 18-08-2015 21:00:00 15.51667 C 11.5 g/m*3 15.52 C 0 km/h
658 18-08-2015 22:00:00 14.95833 C 11.02 g/m*3 14.96 C 0.13333 km/h
659 18-08-2015 23:00:00 14.75 C 10.92 g/m*3 14.75 C 0 km/h
660 19-08-2015 00:00:00 14.05833 C 10.47 g/m*3 14.06 C 0 km/h
661 19-08-2015 01:00:00 12.81667 C 9.91 g/m*3 12.82 C 0 km/h
662 19-08-2015 02:00:00 11.93333 C 9.63 g/m*3 11.93 C 0 km/h
663 19-08-2015 03:00:00 11.23333 C 9.39 g/m*3 11.23 C 0 km/h
664 19-08-2015 04:00:00 10.75 C 9.23 g/m*3 10.75 C 0 km/h
665 19-08-2015 05:00:00 10.3 C 9.03 g/m*3 10.3 C 0.13333 km/h
666 19-08-2015 06:00:00 10.175 C 9.03 g/m*3 10.18 C 0.53333 km/h
667 19-08-2015 07:00:00 10.25 C 9.13 g/m*3 10.25 C 1.2 km/h
668 19-08-2015 08:00:00 10.86667 C 9.52 g/m*3 10.87 C 2.93333 km/h
669 19-08-2015 09:00:00 11.69167 C 9.92 g/m*3 11.69 C 1.46667 km/h
670 19-08-2015 10:00:00 13.48333 C 10.34 g/m*3 13.48 C 2 km/h
671 19-08-2015 11:00:00 15.85833 C 11.1 g/m*3 15.86 C 2.53333 km/h
672 19-08-2015 12:00:00 18.56667 C 10.91 g/m*3 18.57 C 6.3 km/h
673 19-08-2015 13:00:00 21.025 C 10.27 g/m*3 21.03 C 6.70833 km/h
674 19-08-2015 14:00:00 22.3 C 9.56 g/m*3 22.3 C 7.65833 km/h
675 19-08-2015 15:00:00 22.80833 C 9.4 g/m*3 22.81 C 8.325 km/h
Sensor: Nr:Datum:Temp:Abs-Feuchte:Windchill:Wind:
Aussen-T/F 676 19-08-2015 16:00:00 21.60833 C 9.66 g/m*3 21.61 C 7.8 km/h
677 19-08-2015 17:00:00 21.275 C 9.85 g/m*3 21.28 C 4 km/h
678 19-08-2015 18:00:00 21.16667 C 10.19 g/m*3 21.17 C 4.13333 km/h
679 19-08-2015 19:00:00 19.13333 C 11.92 g/m*3 19.13 C 0.26667 km/h
680 19-08-2015 20:00:00 17.38333 C 11.66 g/m*3 17.38 C 0 km/h
681 19-08-2015 21:00:00 16.575 C 11.4 g/m*3 16.58 C 0 km/h
682 19-08-2015 22:00:00 16.15833 C 11.34 g/m*3 16.16 C 0 km/h
683 19-08-2015 23:00:00 15.74167 C 11.32 g/m*3 15.74 C 0 km/h
684 20-08-2015 00:00:00 15.01667 C 10.79 g/m*3 15.02 C 0 km/h
685 20-08-2015 01:00:00 14.28333 C 10.52 g/m*3 14.28 C 0 km/h
686 20-08-2015 02:00:00 14.26667 C 10.64 g/m*3 14.27 C 0 km/h
687 20-08-2015 03:00:00 14.225 C 10.67 g/m*3 14.23 C 0 km/h
688 20-08-2015 04:00:00 14.05 C 10.71 g/m*3 14.05 C 0 km/h
689 20-08-2015 05:00:00 13.70833 C 10.64 g/m*3 13.71 C 0 km/h
690 20-08-2015 06:00:00 13.44167 C 10.49 g/m*3 13.44 C 0.13333 km/h
691 20-08-2015 07:00:00 13.60833 C 10.64 g/m*3 13.61 C 0.66667 km/h
692 20-08-2015 08:00:00 14.1 C 10.79 g/m*3 14.1 C 4.94167 km/h
693 20-08-2015 09:00:00 14.89167 C 10.92 g/m*3 14.89 C 3.46667 km/h
694 20-08-2015 10:00:00 16.08333 C 11.15 g/m*3 16.08 C 0.4 km/h
695 20-08-2015 11:00:00 18.45 C 12.12 g/m*3 18.45 C 1.2 km/h
696 20-08-2015 12:00:00 21.61667 C 11.09 g/m*3 21.62 C 4.26667 km/h
697 20-08-2015 13:00:00 24.83333 C 10.45 g/m*3 24.83 C 5.475 km/h
698 20-08-2015 14:00:00 25.51667 C 9.95 g/m*3 25.52 C 7.11667 km/h
699 20-08-2015 15:00:00 25.4 C 10.04 g/m*3 25.4 C 4.29167 km/h
700 20-08-2015 16:00:00 24.35833 C 11.08 g/m*3 24.36 C 3.75 km/h
Sensor: Nr:Datum:Temp:Abs-Feuchte:Windchill:Wind:
Aussen-T/F 701 20-08-2015 17:00:00 22.61667 C 12.48 g/m*3 22.62 C 1.2 km/h
702 20-08-2015 18:00:00 22.7 C 12.16 g/m*3 22.7 C 2.4 km/h
703 20-08-2015 19:00:00 21.15833 C 13 g/m*3 21.16 C 0.93333 km/h
704 20-08-2015 20:00:00 19.38333 C 12.45 g/m*3 19.38 C 0 km/h
705 20-08-2015 21:00:00 18.06667 C 11.9 g/m*3 18.07 C 0 km/h
706 20-08-2015 22:00:00 16.69167 C 11.2 g/m*3 16.69 C 0 km/h
707 20-08-2015 23:00:00 16.025 C 10.92 g/m*3 16.02 C 0 km/h
708 21-08-2015 00:00:00 15.225 C 10.51 g/m*3 15.23 C 0.26667 km/h
709 21-08-2015 01:00:00 14.53333 C 10.31 g/m*3 14.53 C 0 km/h
710 21-08-2015 02:00:00 13.78333 C 10.24 g/m*3 13.78 C 0 km/h
711 21-08-2015 03:00:00 13.19167 C 10.16 g/m*3 13.19 C 0 km/h
712 21-08-2015 04:00:00 12.65833 C 10.06 g/m*3 12.66 C 0 km/h
713 21-08-2015 05:00:00 12.225 C 9.97 g/m*3 12.23 C 0 km/h
714 21-08-2015 06:00:00 11.89167 C 9.91 g/m*3 11.89 C 0 km/h
715 21-08-2015 07:00:00 11.94167 C 9.99 g/m*3 11.94 C 0 km/h
716 21-08-2015 08:00:00 12.65 C 10.52 g/m*3 12.65 C 0 km/h
717 21-08-2015 09:00:00 14.16667 C 11.34 g/m*3 14.17 C 0 km/h
718 21-08-2015 10:00:00 16.525 C 12.35 g/m*3 16.52 C 0.4 km/h
719 21-08-2015 11:00:00 20.01667 C 12.71 g/m*3 20.02 C 6.05 km/h
720 21-08-2015 12:00:00 22.65833 C 12.3 g/m*3 22.66 C 6.44167 km/h
721 21-08-2015 13:00:00 25.625 C 11.64 g/m*3 25.63 C 7.925 km/h
722 21-08-2015 14:00:00 26.76667 C 10.54 g/m*3 26.77 C 7.50833 km/h
723 21-08-2015 15:00:00 27.16667 C 10.24 g/m*3 27.17 C 6.15833 km/h
724 21-08-2015 16:00:00 27.54167 C 10.74 g/m*3 27.54 C 8.60833 km/h
725 21-08-2015 17:00:00 27.64167 C 10.53 g/m*3 27.64 C 10.49167 km/h
Sensor: Nr:Datum:Temp:Abs-Feuchte:Windchill:Wind:
Aussen-T/F 726 21-08-2015 18:00:00 27.55833 C 10.35 g/m*3 27.56 C 6.175 km/h
727 21-08-2015 19:00:00 25.50833 C 11.37 g/m*3 25.51 C 2.66667 km/h
728 21-08-2015 20:00:00 20.84167 C 11.03 g/m*3 20.84 C 1.73333 km/h
729 21-08-2015 21:00:00 18.70833 C 10.29 g/m*3 18.71 C 1.33333 km/h
730 21-08-2015 22:00:00 17.61667 C 10.5 g/m*3 17.62 C 0.26667 km/h
731 21-08-2015 23:00:00 16.14167 C 10.17 g/m*3 16.14 C 0 km/h
732 22-08-2015 00:00:00 14.95833 C 9.9 g/m*3 14.96 C 0 km/h
733 22-08-2015 01:00:00 14.075 C 9.7 g/m*3 14.08 C 0 km/h
734 22-08-2015 02:00:00 13.51667 C 9.59 g/m*3 13.52 C 0 km/h
735 22-08-2015 03:00:00 12.84167 C 9.44 g/m*3 12.84 C 0 km/h
736 22-08-2015 04:00:00 12.21667 C 9.37 g/m*3 12.22 C 0 km/h
737 22-08-2015 05:00:00 11.725 C 9.29 g/m*3 11.73 C 0 km/h
738 22-08-2015 06:00:00 11.25 C 9.23 g/m*3 11.25 C 0 km/h
739 22-08-2015 07:00:00 11.30833 C 9.41 g/m*3 11.31 C 0 km/h
740 22-08-2015 08:00:00 12.05 C 9.84 g/m*3 12.05 C 0 km/h
741 22-08-2015 09:00:00 13.60833 C 10.6 g/m*3 13.61 C 0.13333 km/h
742 22-08-2015 10:00:00 15.96667 C 11.59 g/m*3 15.97 C 0.26667 km/h
743 22-08-2015 11:00:00 19.54167 C 12 g/m*3 19.54 C 3.61667 km/h
744 22-08-2015 12:00:00 24.08333 C 11.09 g/m*3 24.08 C 7.80833 km/h
745 22-08-2015 13:00:00 26.74167 C 10.42 g/m*3 26.74 C 7.24167 km/h
746 22-08-2015 14:00:00 27.35 C 9.75 g/m*3 27.35 C 9.94167 km/h
747 22-08-2015 15:00:00 28.61667 C 9.19 g/m*3 28.62 C 8.6 km/h
748 22-08-2015 16:00:00 29.2 C 8.78 g/m*3 29.2 C 9.425 km/h
749 22-08-2015 17:00:00 27.95833 C 8.55 g/m*3 27.96 C 8.33333 km/h
750 22-08-2015 18:00:00 27.95 C 8.7 g/m*3 27.95 C 6.71667 km/h
Sensor: Nr:Datum:Temp:Abs-Feuchte:Windchill:Wind:
Aussen-T/F 751 22-08-2015 19:00:00 26.48333 C 9.42 g/m*3 26.48 C 2.8 km/h
752 22-08-2015 20:00:00 21.70833 C 10.02 g/m*3 21.71 C 1.2 km/h
753 22-08-2015 21:00:00 19.6 C 9.14 g/m*3 19.6 C 1.6 km/h
754 22-08-2015 22:00:00 18.33333 C 9.28 g/m*3 18.33 C 0.13333 km/h
755 22-08-2015 23:00:00 17.49167 C 9.39 g/m*3 17.49 C 0 km/h
756 23-08-2015 00:00:00 16.75833 C 9.64 g/m*3 16.76 C 0 km/h
757 23-08-2015 01:00:00 16.15833 C 9.61 g/m*3 16.16 C 0 km/h
758 23-08-2015 02:00:00 15.7 C 9.62 g/m*3 15.7 C 0 km/h
759 23-08-2015 03:00:00 15.09167 C 9.52 g/m*3 15.09 C 0 km/h
760 23-08-2015 04:00:00 14.71667 C 9.38 g/m*3 14.72 C 0 km/h
761 23-08-2015 05:00:00 14.30833 C 9.3 g/m*3 14.31 C 0 km/h
762 23-08-2015 06:00:00 13.90833 C 9.25 g/m*3 13.91 C 0 km/h
763 23-08-2015 07:00:00 13.81667 C 9.41 g/m*3 13.82 C 0 km/h
764 23-08-2015 08:00:00 14.125 C 9.82 g/m*3 14.13 C 0 km/h
765 23-08-2015 09:00:00 15.50833 C 10.27 g/m*3 15.51 C 0 km/h
766 23-08-2015 10:00:00 18.23333 C 10.68 g/m*3 18.23 C 3.06667 km/h
767 23-08-2015 11:00:00 22.325 C 9.95 g/m*3 22.33 C 8.6 km/h
768 23-08-2015 12:00:00 25.65 C 8.42 g/m*3 25.65 C 12.36667 km/h
769 23-08-2015 13:00:00 27.54167 C 8.26 g/m*3 27.54 C 10.21667 km/h
770 23-08-2015 14:00:00 28.61667 C 8.3 g/m*3 28.62 C 10.49167 km/h
771 23-08-2015 15:00:00 27.85833 C 8.48 g/m*3 27.86 C 9.95 km/h
772 23-08-2015 16:00:00 27.25833 C 8.88 g/m*3 27.26 C 8.875 km/h
773 23-08-2015 17:00:00 27 C 9.05 g/m*3 27 C 6.44167 km/h
774 23-08-2015 18:00:00 25.63333 C 10.06 g/m*3 25.63 C 4.01667 km/h
775 23-08-2015 19:00:00 23.05833 C 13.04 g/m*3 23.06 C 10.20833 km/h
Sensor: Nr:Datum:Temp:Abs-Feuchte:Windchill:Wind:
Aussen-T/F 776 23-08-2015 20:00:00 20.275 C 14.09 g/m*3 20.27 C 4.96667 km/h
777 23-08-2015 21:00:00 18.39167 C 14.44 g/m*3 18.39 C 0 km/h
778 23-08-2015 22:00:00 17.95 C 14.43 g/m*3 17.95 C 0.13333 km/h
779 23-08-2015 23:00:00 17.65 C 14.29 g/m*3 17.65 C 0 km/h
780 24-08-2015 00:00:00 17.48333 C 14.27 g/m*3 17.48 C 0 km/h
781 24-08-2015 01:00:00 17.29167 C 14.14 g/m*3 17.29 C 0 km/h
782 24-08-2015 02:00:00 17.05 C 13.93 g/m*3 17.05 C 0.53333 km/h
783 24-08-2015 03:00:00 16.88333 C 13.79 g/m*3 16.88 C 0 km/h
784 24-08-2015 04:00:00 16.85 C 13.77 g/m*3 16.85 C 1.2 km/h
785 24-08-2015 05:00:00 16.33333 C 13.35 g/m*3 16.33 C 0.4 km/h
786 24-08-2015 06:00:00 15.63333 C 12.79 g/m*3 15.63 C 0 km/h
787 24-08-2015 07:00:00 15.30833 C 12.61 g/m*3 15.31 C 0 km/h
788 24-08-2015 08:00:00 16.43333 C 13.57 g/m*3 16.43 C 0.26667 km/h
789 24-08-2015 09:00:00 17.35 C 14.17 g/m*3 17.35 C 0.4 km/h
790 24-08-2015 10:00:00 18.96667 C 14.5 g/m*3 18.97 C 3.88333 km/h
791 24-08-2015 11:00:00 20.825 C 14.91 g/m*3 20.83 C 7.79167 km/h
792 24-08-2015 12:00:00 22.275 C 15.13 g/m*3 22.28 C 4.93333 km/h
793 24-08-2015 13:00:00 21.75 C 16.05 g/m*3 21.75 C 5.475 km/h
794 24-08-2015 14:00:00 21.35833 C 15.69 g/m*3 21.36 C 4.00833 km/h
795 24-08-2015 15:00:00 21.91667 C 15.42 g/m*3 21.92 C 5.74167 km/h
796 24-08-2015 16:00:00 23.75 C 14.43 g/m*3 23.75 C 8.86667 km/h
797 24-08-2015 17:00:00 24.14167 C 12.67 g/m*3 24.14 C 11.53333 km/h
798 24-08-2015 18:00:00 23.75833 C 12.82 g/m*3 23.76 C 10.61667 km/h
799 24-08-2015 19:00:00 22.20833 C 12.21 g/m*3 22.21 C 9.25833 km/h
800 24-08-2015 20:00:00 20.15 C 11.67 g/m*3 20.15 C 6.43333 km/h
Sensor: Nr:Datum:Temp:Abs-Feuchte:Windchill:Wind:
Aussen-T/F 801 24-08-2015 21:00:00 19.01667 C 11.66 g/m*3 19.02 C 5.49167 km/h
802 24-08-2015 22:00:00 18.76667 C 11.97 g/m*3 18.77 C 6.83333 km/h
803 24-08-2015 23:00:00 15.825 C 11.34 g/m*3 15.83 C 3.34167 km/h
804 25-08-2015 00:00:00 14.93333 C 10.65 g/m*3 14.93 C 5.08333 km/h
805 25-08-2015 01:00:00 16.01667 C 10.08 g/m*3 16.02 C 9.40833 km/h
806 25-08-2015 02:00:00 16.65833 C 9.32 g/m*3 16.66 C 15.7 km/h
807 25-08-2015 03:00:00 16.075 C 9.28 g/m*3 16.08 C 17.16667 km/h
808 25-08-2015 04:00:00 14.625 C 10.09 g/m*3 14.63 C 16.1 km/h
809 25-08-2015 05:00:00 14.55833 C 10.3 g/m*3 14.56 C 20.50833 km/h
810 25-08-2015 06:00:00 14.60833 C 10.42 g/m*3 14.61 C 18.775 km/h
811 25-08-2015 07:00:00 14.68333 C 10.54 g/m*3 14.68 C 13.96667 km/h
812 25-08-2015 08:00:00 15.175 C 10.69 g/m*3 15.18 C 15.56667 km/h
813 25-08-2015 09:00:00 16.08333 C 10.84 g/m*3 16.08 C 14.63333 km/h
814 25-08-2015 10:00:00 16.525 C 10.83 g/m*3 16.52 C 16.76667 km/h
815 25-08-2015 11:00:00 16.9 C 10.76 g/m*3 16.9 C 16.5 km/h
816 25-08-2015 12:00:00 17.64167 C 10.74 g/m*3 17.64 C 18.24167 km/h
817 25-08-2015 13:00:00 18.44167 C 10.63 g/m*3 18.44 C 16.1 km/h
818 25-08-2015 14:00:00 19.95833 C 10.3 g/m*3 19.96 C 15.83333 km/h
819 25-08-2015 15:00:00 21.06667 C 9.55 g/m*3 21.07 C 13.7 km/h
820 25-08-2015 16:00:00 21.48333 C 8.81 g/m*3 21.48 C 14.76667 km/h
821 25-08-2015 17:00:00 22.63333 C 8.3 g/m*3 22.63 C 16.36667 km/h
822 25-08-2015 18:00:00 21.79167 C 7.91 g/m*3 21.79 C 13.95833 km/h
823 25-08-2015 19:00:00 20.26667 C 8.45 g/m*3 20.27 C 4.41667 km/h
824 25-08-2015 20:00:00 17.91667 C 9.9 g/m*3 17.92 C 0.13333 km/h
825 25-08-2015 21:00:00 16.53333 C 9.91 g/m*3 16.53 C 0 km/h
Sensor: Nr:Datum:Temp:Abs-Feuchte:Windchill:Wind:
Aussen-T/F 826 25-08-2015 22:00:00 16.74167 C 9.97 g/m*3 16.74 C 0.8 km/h
827 25-08-2015 23:00:00 16.45833 C 10.19 g/m*3 16.46 C 0.66667 km/h
828 26-08-2015 00:00:00 15.59167 C 9.54 g/m*3 15.59 C 0.80833 km/h
829 26-08-2015 01:00:00 14.725 C 9.64 g/m*3 14.73 C 0.26667 km/h
830 26-08-2015 02:00:00 14.55 C 9.78 g/m*3 14.55 C 0.4 km/h
831 26-08-2015 03:00:00 14.36667 C 9.9 g/m*3 14.37 C 0.4 km/h
832 26-08-2015 04:00:00 14.525 C 10.19 g/m*3 14.53 C 0 km/h
833 26-08-2015 05:00:00 15.075 C 10.54 g/m*3 15.08 C 0 km/h
834 26-08-2015 06:00:00 15.25833 C 10.58 g/m*3 15.26 C 0.4 km/h
835 26-08-2015 07:00:00 15.875 C 10.71 g/m*3 15.88 C 1.73333 km/h
836 26-08-2015 08:00:00 16.29167 C 11.12 g/m*3 16.29 C 2 km/h
837 26-08-2015 09:00:00 16.89167 C 11.66 g/m*3 16.89 C 0 km/h
838 26-08-2015 10:00:00 18.725 C 12.12 g/m*3 18.73 C 2.66667 km/h
839 26-08-2015 11:00:00 22.15 C 12.45 g/m*3 22.15 C 7.39167 km/h
840 26-08-2015 12:00:00 24.26667 C 12.3 g/m*3 24.27 C 11.43333 km/h
841 26-08-2015 13:00:00 26.25833 C 12.21 g/m*3 26.26 C 9.41667 km/h
842 26-08-2015 14:00:00 28.00833 C 11.88 g/m*3 28.01 C 13.56667 km/h
843 26-08-2015 15:00:00 28.84167 C 11.53 g/m*3 28.84 C 11.28333 km/h
844 26-08-2015 16:00:00 29.725 C 11.4 g/m*3 29.73 C 12.89167 km/h
845 26-08-2015 17:00:00 29.60833 C 11.38 g/m*3 29.61 C 8.725 km/h
846 26-08-2015 18:00:00 28.98333 C 11.48 g/m*3 28.98 C 6.15833 km/h
847 26-08-2015 19:00:00 25.85 C 12.61 g/m*3 25.85 C 2.80833 km/h
848 26-08-2015 20:00:00 21.89167 C 12.44 g/m*3 21.89 C 1.06667 km/h
849 26-08-2015 21:00:00 20.53333 C 12.21 g/m*3 20.53 C 0.4 km/h
850 26-08-2015 22:00:00 19.81667 C 12.04 g/m*3 19.82 C 0 km/h
Sensor: Nr:Datum:Temp:Abs-Feuchte:Windchill:Wind:
Aussen-T/F 851 26-08-2015 23:00:00 19.34167 C 11.85 g/m*3 19.34 C 0 km/h
852 27-08-2015 00:00:00 18.99167 C 11.74 g/m*3 18.99 C 0 km/h
853 27-08-2015 01:00:00 18.925 C 11.79 g/m*3 18.93 C 0.8 km/h
854 27-08-2015 02:00:00 18.73333 C 11.79 g/m*3 18.73 C 0.4 km/h
855 27-08-2015 03:00:00 18.9 C 12 g/m*3 18.9 C 0 km/h
856 27-08-2015 04:00:00 19.04167 C 12.24 g/m*3 19.04 C 0.26667 km/h
857 27-08-2015 05:00:00 19.00833 C 12.32 g/m*3 19.01 C 1.2 km/h
858 27-08-2015 06:00:00 20.58333 C 12.49 g/m*3 20.58 C 4.95833 km/h
859 27-08-2015 07:00:00 21.63333 C 12.62 g/m*3 21.63 C 4.425 km/h
860 27-08-2015 08:00:00 21.175 C 12.77 g/m*3 21.18 C 5.9 km/h
861 27-08-2015 09:00:00 20.18333 C 12.85 g/m*3 20.18 C 5.89167 km/h
862 27-08-2015 10:00:00 17.45833 C 13.41 g/m*3 17.46 C 0.66667 km/h
863 27-08-2015 11:00:00 17.375 C 13.85 g/m*3 17.38 C 0 km/h
864 27-08-2015 12:00:00 17.96667 C 14.36 g/m*3 17.97 C 1.33333 km/h
865 27-08-2015 13:00:00 19.09167 C 14.73 g/m*3 19.09 C 2.53333 km/h
866 27-08-2015 14:00:00 19.98333 C 15.15 g/m*3 19.98 C 0.8 km/h
867 27-08-2015 15:00:00 19.94167 C 15.24 g/m*3 19.94 C 1.33333 km/h
868 27-08-2015 16:00:00 20.475 C 15.31 g/m*3 20.48 C 1.86667 km/h
869 27-08-2015 17:00:00 20.38333 C 15.21 g/m*3 20.38 C 5.49167 km/h
870 27-08-2015 18:00:00 18.14167 C 13.89 g/m*3 18.14 C 5.625 km/h
871 27-08-2015 19:00:00 16.375 C 12.88 g/m*3 16.38 C 3.89167 km/h
872 27-08-2015 20:00:00 15.88333 C 12.8 g/m*3 15.88 C 0 km/h
873 27-08-2015 21:00:00 15.85 C 12.83 g/m*3 15.85 C 0.4 km/h
874 27-08-2015 22:00:00 15.45 C 12.52 g/m*3 15.45 C 2.275 km/h
875 27-08-2015 23:00:00 14.96667 C 12.16 g/m*3 14.97 C 1.2 km/h
Sensor: Nr:Datum:Temp:Abs-Feuchte:Windchill:Wind:
Aussen-T/F 876 28-08-2015 00:00:00 14.49167 C 11.82 g/m*3 14.49 C 2.53333 km/h
877 28-08-2015 01:00:00 14.225 C 11.69 g/m*3 14.23 C 0.4 km/h
878 28-08-2015 02:00:00 14.10833 C 11.66 g/m*3 14.11 C 0.4 km/h
879 28-08-2015 03:00:00 13.93333 C 11.53 g/m*3 13.93 C 0.93333 km/h
880 28-08-2015 04:00:00 13.89167 C 11.5 g/m*3 13.89 C 0 km/h
881 28-08-2015 05:00:00 13.84167 C 11.57 g/m*3 13.84 C 0 km/h
882 28-08-2015 06:00:00 13.89167 C 11.62 g/m*3 13.89 C 0 km/h
883 28-08-2015 07:00:00 14.025 C 11.72 g/m*3 14.03 C 0 km/h
884 28-08-2015 08:00:00 14.35833 C 11.96 g/m*3 14.36 C 0 km/h
885 28-08-2015 09:00:00 14.975 C 12.4 g/m*3 14.98 C 0.8 km/h
886 28-08-2015 10:00:00 15.71667 C 12.6 g/m*3 15.72 C 1.46667 km/h
887 28-08-2015 11:00:00 16.93333 C 12.61 g/m*3 16.93 C 1.6 km/h
888 28-08-2015 12:00:00 18.14167 C 12.64 g/m*3 18.14 C 2.26667 km/h
889 28-08-2015 13:00:00 18.825 C 12.84 g/m*3 18.83 C 2.93333 km/h
890 28-08-2015 14:00:00 19.10833 C 12.94 g/m*3 19.11 C 2.93333 km/h
891 28-08-2015 15:00:00 19.94167 C 13.13 g/m*3 19.94 C 3.2 km/h
892 28-08-2015 16:00:00 20.63333 C 13.76 g/m*3 20.63 C 2.8 km/h
893 28-08-2015 17:00:00 21.30833 C 13.68 g/m*3 21.31 C 3.06667 km/h
894 28-08-2015 18:00:00 22.05 C 13.74 g/m*3 22.05 C 3.33333 km/h
895 28-08-2015 19:00:00 18.66667 C 14.09 g/m*3 18.67 C 0 km/h
896 28-08-2015 20:00:00 17.075 C 13.38 g/m*3 17.08 C 0 km/h
897 28-08-2015 21:00:00 16.675 C 13.2 g/m*3 16.68 C 0 km/h
898 28-08-2015 22:00:00 15.95 C 12.71 g/m*3 15.95 C 0 km/h
899 28-08-2015 23:00:00 14.98333 C 12.04 g/m*3 14.98 C 0 km/h
900 29-08-2015 00:00:00 14.225 C 11.57 g/m*3 14.23 C 0 km/h
Sensor: Nr:Datum:Temp:Abs-Feuchte:Windchill:Wind:
Aussen-T/F 901 29-08-2015 01:00:00 13.625 C 11.21 g/m*3 13.63 C 0 km/h
902 29-08-2015 02:00:00 13.24167 C 11.05 g/m*3 13.24 C 0 km/h
903 29-08-2015 03:00:00 13.54167 C 11.3 g/m*3 13.54 C 0 km/h
904 29-08-2015 04:00:00 13.75 C 11.47 g/m*3 13.75 C 0.53333 km/h
905 29-08-2015 05:00:00 13.68333 C 11.45 g/m*3 13.68 C 0 km/h
906 29-08-2015 06:00:00 13.90833 C 11.63 g/m*3 13.91 C 0 km/h
907 29-08-2015 07:00:00 14.24167 C 11.87 g/m*3 14.24 C 0 km/h
908 29-08-2015 08:00:00 14.725 C 12.23 g/m*3 14.73 C 0.13333 km/h
909 29-08-2015 09:00:00 15.2 C 12.59 g/m*3 15.2 C 0 km/h
910 29-08-2015 10:00:00 17.475 C 13.77 g/m*3 17.48 C 3.6 km/h
911 29-08-2015 11:00:00 18.525 C 14.45 g/m*3 18.52 C 1.73333 km/h
912 29-08-2015 12:00:00 21.6 C 15.77 g/m*3 21.6 C 4 km/h
913 29-08-2015 13:00:00 25.70833 C 16.77 g/m*3 25.71 C 3.33333 km/h
914 29-08-2015 14:00:00 26.58333 C 17.35 g/m*3 26.58 C 4 km/h
915 29-08-2015 15:00:00 25.94167 C 18.26 g/m*3 25.94 C 1.46667 km/h
916 29-08-2015 16:00:00 25.69167 C 18.74 g/m*3 25.69 C 2.13333 km/h
917 29-08-2015 17:00:00 27.7 C 18.75 g/m*3 27.7 C 3.06667 km/h
918 29-08-2015 18:00:00 26.15833 C 19.16 g/m*3 26.16 C 1.6 km/h
919 29-08-2015 19:00:00 23.8 C 18.19 g/m*3 23.8 C 0.8 km/h
920 29-08-2015 20:00:00 22.09167 C 17.38 g/m*3 22.09 C 1.6 km/h
921 29-08-2015 21:00:00 21.25 C 16.9 g/m*3 21.25 C 0.26667 km/h
922 29-08-2015 22:00:00 20.66667 C 16.63 g/m*3 20.67 C 0 km/h
923 29-08-2015 23:00:00 20.15 C 16.3 g/m*3 20.15 C 0 km/h
924 30-08-2015 00:00:00 19.59167 C 15.9 g/m*3 19.59 C 0 km/h
925 30-08-2015 01:00:00 19.15833 C 15.63 g/m*3 19.16 C 0 km/h
Sensor: Nr:Datum:Temp:Abs-Feuchte:Windchill:Wind:
Aussen-T/F 926 30-08-2015 02:00:00 18.79167 C 15.33 g/m*3 18.79 C 0 km/h
927 30-08-2015 03:00:00 18.31667 C 15 g/m*3 18.32 C 0 km/h
928 30-08-2015 04:00:00 17.9 C 14.66 g/m*3 17.9 C 0 km/h
929 30-08-2015 05:00:00 17.675 C 14.48 g/m*3 17.68 C 0 km/h
930 30-08-2015 06:00:00 17.50833 C 14.42 g/m*3 17.51 C 0 km/h
931 30-08-2015 07:00:00 17.4 C 14.35 g/m*3 17.4 C 0 km/h
932 30-08-2015 08:00:00 18.075 C 14.97 g/m*3 18.08 C 0 km/h
933 30-08-2015 09:00:00 18.61667 C 15.45 g/m*3 18.62 C 0.13333 km/h
934 30-08-2015 10:00:00 19.825 C 16.59 g/m*3 19.83 C 0 km/h
935 30-08-2015 11:00:00 21.55 C 18.27 g/m*3 21.55 C 0.13333 km/h
936 30-08-2015 12:00:00 23.63333 C 19.52 g/m*3 23.63 C 0 km/h
937 30-08-2015 13:00:00 29.09167 C 18.81 g/m*3 29.09 C 7.65 km/h
938 30-08-2015 14:00:00 32.28333 C 16.54 g/m*3 32.28 C 9.95 km/h
939 30-08-2015 15:00:00 32.66667 C 16.79 g/m*3 32.67 C 10.35833 km/h
940 30-08-2015 16:00:00 32.8 C 17.88 g/m*3 32.8 C 8.05 km/h
941 30-08-2015 17:00:00 31.55 C 17.83 g/m*3 31.55 C 7.11667 km/h
942 30-08-2015 18:00:00 29.675 C 18.72 g/m*3 29.68 C 3.20833 km/h
943 30-08-2015 19:00:00 26.89167 C 18.55 g/m*3 26.89 C 2.53333 km/h
944 30-08-2015 20:00:00 24.7 C 18.09 g/m*3 24.7 C 2.53333 km/h
945 30-08-2015 21:00:00 23.375 C 17.55 g/m*3 23.38 C 0.4 km/h
946 30-08-2015 22:00:00 22.425 C 17.2 g/m*3 22.43 C 0 km/h
947 30-08-2015 23:00:00 21.475 C 16.77 g/m*3 21.48 C 0 km/h
948 31-08-2015 00:00:00 20.64167 C 16.37 g/m*3 20.64 C 0 km/h
949 31-08-2015 01:00:00 20 C 16.14 g/m*3 20 C 0 km/h
950 31-08-2015 02:00:00 19.775 C 16.09 g/m*3 19.77 C 0.4 km/h
Sensor: Nr:Datum:Temp:Abs-Feuchte:Windchill:Wind:
Aussen-T/F 951 31-08-2015 03:00:00 19.61667 C 15.95 g/m*3 19.62 C 0 km/h
952 31-08-2015 04:00:00 19.04167 C 15.56 g/m*3 19.04 C 0 km/h
953 31-08-2015 05:00:00 18.54167 C 15.12 g/m*3 18.54 C 0 km/h
954 31-08-2015 06:00:00 17.94167 C 14.66 g/m*3 17.94 C 0.53333 km/h
955 31-08-2015 07:00:00 17.98333 C 14.73 g/m*3 17.98 C 0.8 km/h
956 31-08-2015 08:00:00 18.475 C 15.27 g/m*3 18.48 C 1.6 km/h
957 31-08-2015 09:00:00 18.79167 C 15.52 g/m*3 18.79 C 0 km/h
958 31-08-2015 10:00:00 20.425 C 15.72 g/m*3 20.43 C 3.35 km/h
959 31-08-2015 11:00:00 25.76667 C 13.26 g/m*3 25.77 C 10.35 km/h
960 31-08-2015 12:00:00 28.29167 C 12.96 g/m*3 28.29 C 11.15833 km/h
961 31-08-2015 13:00:00 31.25833 C 12.6 g/m*3 31.26 C 11.3 km/h
962 31-08-2015 14:00:00 32.46667 C 12.4 g/m*3 32.47 C 11.56667 km/h
963 31-08-2015 15:00:00 33.14167 C 11.6 g/m*3 33.14 C 10.23333 km/h
964 31-08-2015 16:00:00 33.775 C 11.4 g/m*3 33.78 C 10.625 km/h
965 31-08-2015 17:00:00 33.66667 C 11.58 g/m*3 33.67 C 13.7 km/h
966 31-08-2015 18:00:00 31.86667 C 12.37 g/m*3 31.87 C 7.79167 km/h
967 31-08-2015 19:00:00 26.90833 C 14.47 g/m*3 26.91 C 2.4 km/h
968 31-08-2015 20:00:00 24.35 C 14.33 g/m*3 24.35 C 1.2 km/h
969 31-08-2015 21:00:00 23.69167 C 14.07 g/m*3 23.69 C 1.06667 km/h
970 31-08-2015 22:00:00 23.75833 C 14.59 g/m*3 23.76 C 6.725 km/h
971 31-08-2015 23:00:00 22.86667 C 15.01 g/m*3 22.87 C 2.275 km/h
972 01-09-2015 00:00:00 20.80833 C 14.87 g/m*3 20.81 C 0.13333 km/h
973 01-09-2015 01:00:00 20.25833 C 14.87 g/m*3 20.26 C 0.13333 km/h
974 01-09-2015 02:00:00 19.4 C 14.63 g/m*3 19.4 C 0 km/h
975 01-09-2015 03:00:00 18.64167 C 14.4 g/m*3 18.64 C 0 km/h
Sensor: Nr:Datum:Temp:Abs-Feuchte:Windchill:Wind:
Aussen-T/F 976 01-09-2015 04:00:00 18.225 C 14.31 g/m*3 18.23 C 0 km/h
977 01-09-2015 05:00:00 18.1 C 14.32 g/m*3 18.1 C 0 km/h
978 01-09-2015 06:00:00 18.425 C 14.68 g/m*3 18.43 C 1.73333 km/h
979 01-09-2015 07:00:00 18.3 C 14.8 g/m*3 18.3 C 0.8 km/h
980 01-09-2015 08:00:00 17.95833 C 14.5 g/m*3 17.96 C 4.80833 km/h
981 01-09-2015 09:00:00 17.30833 C 13.83 g/m*3 17.31 C 2 km/h
982 01-09-2015 10:00:00 16.9 C 13.47 g/m*3 16.9 C 7.925 km/h
983 01-09-2015 11:00:00 16.41667 C 13.26 g/m*3 16.42 C 1.86667 km/h
984 01-09-2015 12:00:00 16.775 C 13.62 g/m*3 16.77 C 4.03333 km/h
985 01-09-2015 13:00:00 17.03333 C 13.77 g/m*3 17.03 C 6.43333 km/h
986 01-09-2015 14:00:00 16.975 C 13.42 g/m*3 16.98 C 11.01667 km/h
987 01-09-2015 15:00:00 16.89167 C 13.11 g/m*3 16.89 C 7.91667 km/h
988 01-09-2015 16:00:00 17.03333 C 12.93 g/m*3 17.03 C 9.14167 km/h
989 01-09-2015 17:00:00 17.09167 C 12.73 g/m*3 17.09 C 7.23333 km/h
990 01-09-2015 18:00:00 17.725 C 12.91 g/m*3 17.73 C 4.54167 km/h
991 01-09-2015 19:00:00 18.325 C 12.53 g/m*3 18.33 C 5.75833 km/h
992 01-09-2015 20:00:00 16.24167 C 12.44 g/m*3 16.24 C 1.6 km/h
993 01-09-2015 21:00:00 14.95 C 11.91 g/m*3 14.95 C 0.66667 km/h
994 01-09-2015 22:00:00 14.19167 C 11.54 g/m*3 14.19 C 0 km/h
995 01-09-2015 23:00:00 13.76667 C 11.3 g/m*3 13.77 C 0.13333 km/h
996 02-09-2015 00:00:00 13.44167 C 11.07 g/m*3 13.44 C 0.4 km/h
997 02-09-2015 01:00:00 13.73333 C 11.21 g/m*3 13.73 C 0.53333 km/h
998 02-09-2015 02:00:00 13.26667 C 10.94 g/m*3 13.27 C 0 km/h
999 02-09-2015 03:00:00 12.46667 C 10.45 g/m*3 12.47 C 0 km/h
1000 02-09-2015 04:00:00 11.83333 C 10.11 g/m*3 11.83 C 0 km/h
Sensor: Nr:Datum:Temp:Abs-Feuchte:Windchill:Wind:
Aussen-T/F 1001 02-09-2015 05:00:00 11.65833 C 10.01 g/m*3 11.66 C 0.13333 km/h
1002 02-09-2015 06:00:00 11.28333 C 9.78 g/m*3 11.28 C 0.8 km/h
1003 02-09-2015 07:00:00 11.19167 C 9.78 g/m*3 11.19 C 0 km/h
1004 02-09-2015 08:00:00 11.69167 C 10.14 g/m*3 11.69 C 2.54167 km/h
1005 02-09-2015 09:00:00 12.33333 C 10.53 g/m*3 12.33 C 6.28333 km/h
1006 02-09-2015 10:00:00 12.86667 C 10.7 g/m*3 12.87 C 4.93333 km/h
1007 02-09-2015 11:00:00 14.45 C 11.24 g/m*3 14.45 C 4.13333 km/h
1008 02-09-2015 12:00:00 16.24167 C 11.73 g/m*3 16.24 C 3.20833 km/h
1009 02-09-2015 13:00:00 19.41667 C 11.34 g/m*3 19.42 C 8.85833 km/h
1010 02-09-2015 14:00:00 20.575 C 10.54 g/m*3 20.58 C 10.49167 km/h
1011 02-09-2015 15:00:00 21.49167 C 10.15 g/m*3 21.49 C 9.95 km/h
1012 02-09-2015 16:00:00 20.81667 C 10.72 g/m*3 20.82 C 8.74167 km/h
1013 02-09-2015 17:00:00 20.86667 C 11.15 g/m*3 20.87 C 7.10833 km/h
1014 02-09-2015 18:00:00 18.75 C 12.36 g/m*3 18.75 C 0 km/h
1015 02-09-2015 19:00:00 17.46667 C 11.82 g/m*3 17.47 C 0 km/h
1016 02-09-2015 20:00:00 15.40833 C 11.14 g/m*3 15.41 C 0.4 km/h
1017 02-09-2015 21:00:00 14.625 C 10.99 g/m*3 14.63 C 0 km/h
1018 02-09-2015 22:00:00 14.05833 C 10.79 g/m*3 14.06 C 0 km/h
1019 02-09-2015 23:00:00 13.24167 C 10.48 g/m*3 13.24 C 0 km/h
1020 03-09-2015 00:00:00 12.74167 C 10.33 g/m*3 12.74 C 0 km/h
1021 03-09-2015 01:00:00 12.09167 C 10.02 g/m*3 12.09 C 0 km/h
1022 03-09-2015 02:00:00 11.55833 C 9.75 g/m*3 11.56 C 0 km/h
1023 03-09-2015 03:00:00 11.1 C 9.54 g/m*3 11.1 C 0 km/h
1024 03-09-2015 04:00:00 10.68333 C 9.32 g/m*3 10.68 C 0.53333 km/h
1025 03-09-2015 05:00:00 10.33333 C 9.17 g/m*3 10.33 C 0.26667 km/h
Sensor: Nr:Datum:Temp:Abs-Feuchte:Windchill:Wind:
Aussen-T/F 1026 03-09-2015 06:00:00 10.6 C 9.37 g/m*3 10.6 C 1.73333 km/h
1027 03-09-2015 07:00:00 10.575 C 9.36 g/m*3 10.58 C 1.33333 km/h
1028 03-09-2015 08:00:00 11.125 C 9.69 g/m*3 11.13 C 5.775 km/h
1029 03-09-2015 09:00:00 11.75833 C 10.02 g/m*3 11.76 C 4.13333 km/h
1030 03-09-2015 10:00:00 12.94167 C 10.52 g/m*3 12.94 C 1.06667 km/h
1031 03-09-2015 11:00:00 14.05833 C 11.02 g/m*3 14.06 C 0.13333 km/h
1032 03-09-2015 12:00:00 16.95 C 10.78 g/m*3 16.95 C 5.625 km/h
1033 03-09-2015 13:00:00 17.58333 C 10.83 g/m*3 17.58 C 5.09167 km/h
1034 03-09-2015 14:00:00 14.1 C 11.24 g/m*3 14.1 C 2 km/h
1035 03-09-2015 15:00:00 17.06667 C 11.74 g/m*3 17.07 C 3.075 km/h
1036 03-09-2015 16:00:00 19.96667 C 9.7 g/m*3 19.97 C 9.68333 km/h
1037 03-09-2015 17:00:00 19.35833 C 9.57 g/m*3 19.36 C 5.75833 km/h
1038 03-09-2015 18:00:00 19.14167 C 9.7 g/m*3 19.14 C 4.95 km/h
1039 03-09-2015 19:00:00 17.09167 C 10.18 g/m*3 17.09 C 2.14167 km/h
1040 03-09-2015 20:00:00 15.50833 C 9.48 g/m*3 15.51 C 6.04167 km/h
1041 03-09-2015 21:00:00 13.7 C 9.85 g/m*3 13.7 C 1.33333 km/h
1042 03-09-2015 22:00:00 13.19167 C 10.3 g/m*3 13.19 C 0.8 km/h
1043 03-09-2015 23:00:00 11.8 C 9.78 g/m*3 11.8 C 0 km/h
1044 04-09-2015 00:00:00 10.875 C 9.38 g/m*3 10.88 C 0 km/h
1045 04-09-2015 01:00:00 10.7 C 9.33 g/m*3 10.7 C 0 km/h
1046 04-09-2015 02:00:00 10.78333 C 9.42 g/m*3 10.78 C 0 km/h
1047 04-09-2015 03:00:00 11.175 C 9.65 g/m*3 11.18 C 0.26667 km/h
1048 04-09-2015 04:00:00 10.60833 C 9.28 g/m*3 10.61 C 0 km/h
1049 04-09-2015 05:00:00 10.35833 C 9.2 g/m*3 10.36 C 0.4 km/h
1050 04-09-2015 06:00:00 10.59167 C 9.27 g/m*3 10.59 C 0 km/h
Sensor: Nr:Datum:Temp:Abs-Feuchte:Windchill:Wind:
Aussen-T/F 1051 04-09-2015 07:00:00 10.975 C 9.43 g/m*3 10.98 C 0.8 km/h
1052 04-09-2015 08:00:00 11.73333 C 9.53 g/m*3 11.73 C 4.55 km/h
1053 04-09-2015 09:00:00 12.78333 C 9.65 g/m*3 12.78 C 6.55833 km/h
1054 04-09-2015 10:00:00 13.6 C 9.57 g/m*3 13.6 C 6.7 km/h
1055 04-09-2015 11:00:00 15.18333 C 9.53 g/m*3 15.18 C 13.03333 km/h
1056 04-09-2015 12:00:00 16.11667 C 9.2 g/m*3 16.12 C 14.23333 km/h
1057 04-09-2015 13:00:00 16.125 C 9.05 g/m*3 16.13 C 16.5 km/h
1058 04-09-2015 14:00:00 16.81667 C 8.85 g/m*3 16.82 C 12.9 km/h
1059 04-09-2015 15:00:00 17.33333 C 8.71 g/m*3 17.33 C 12.36667 km/h
1060 04-09-2015 16:00:00 17.61667 C 8.42 g/m*3 17.62 C 11.96667 km/h
1061 04-09-2015 17:00:00 17.075 C 8.54 g/m*3 17.08 C 8.06667 km/h
1062 04-09-2015 18:00:00 16.13333 C 9.17 g/m*3 16.13 C 3.075 km/h
1063 04-09-2015 19:00:00 15.93333 C 9.3 g/m*3 15.93 C 1.33333 km/h
1064 04-09-2015 20:00:00 13.66667 C 9.35 g/m*3 13.67 C 0.93333 km/h
1065 04-09-2015 21:00:00 13.21667 C 9.04 g/m*3 13.22 C 2.40833 km/h
1066 04-09-2015 22:00:00 13.49167 C 8.82 g/m*3 13.49 C 2.8 km/h
1067 04-09-2015 23:00:00 12.25833 C 8.74 g/m*3 12.26 C 1.33333 km/h
1068 05-09-2015 00:00:00 11.40833 C 8.59 g/m*3 11.41 C 1.86667 km/h
1069 05-09-2015 01:00:00 10.575 C 8.52 g/m*3 10.58 C 0.53333 km/h
1070 05-09-2015 02:00:00 10.48333 C 8.55 g/m*3 10.48 C 1.46667 km/h
1071 05-09-2015 03:00:00 10.2 C 8.56 g/m*3 10.2 C 0.4 km/h
1072 05-09-2015 04:00:00 10.525 C 8.73 g/m*3 10.53 C 2.15 km/h
1073 05-09-2015 05:00:00 11.48333 C 8.96 g/m*3 11.48 C 5.35833 km/h
1074 05-09-2015 06:00:00 12.03333 C 9.02 g/m*3 12.03 C 6.56667 km/h
1075 05-09-2015 07:00:00 11.90833 C 9.17 g/m*3 11.91 C 6.3 km/h
Sensor: Nr:Datum:Temp:Abs-Feuchte:Windchill:Wind:
Aussen-T/F 1076 05-09-2015 08:00:00 12.64167 C 9.42 g/m*3 12.64 C 9.275 km/h
1077 05-09-2015 09:00:00 13.21667 C 9.69 g/m*3 13.22 C 7.375 km/h
1078 05-09-2015 10:00:00 13.49167 C 10.17 g/m*3 13.49 C 8.45833 km/h
1079 05-09-2015 11:00:00 13.475 C 10.58 g/m*3 13.48 C 6.975 km/h
1080 05-09-2015 12:00:00 14.30833 C 11.12 g/m*3 14.31 C 5.1 km/h
1081 05-09-2015 13:00:00 14.70833 C 11.49 g/m*3 14.71 C 1.2 km/h
1082 05-09-2015 14:00:00 15.04167 C 11.25 g/m*3 15.04 C 4.41667 km/h
1083 05-09-2015 15:00:00 16.56667 C 10.12 g/m*3 16.57 C 13.7 km/h
1084 05-09-2015 16:00:00 18.2 C 9.57 g/m*3 18.2 C 15.16667 km/h
1085 05-09-2015 17:00:00 17.45 C 9.41 g/m*3 17.45 C 16.1 km/h
1086 05-09-2015 18:00:00 15.45 C 10.11 g/m*3 15.45 C 9.93333 km/h
1087 05-09-2015 19:00:00 13.53333 C 10.48 g/m*3 13.53 C 4.15 km/h
1088 05-09-2015 20:00:00 12.83333 C 10.31 g/m*3 12.83 C 2.13333 km/h
1089 05-09-2015 21:00:00 12.825 C 9.94 g/m*3 12.83 C 6.29167 km/h
1090 05-09-2015 22:00:00 12.55 C 9.43 g/m*3 12.55 C 6.98333 km/h
1091 05-09-2015 23:00:00 12.3 C 9.21 g/m*3 12.3 C 7.79167 km/h
1092 06-09-2015 00:00:00 11.89167 C 8.69 g/m*3 11.89 C 8.85833 km/h
1093 06-09-2015 01:00:00 11.59167 C 8.56 g/m*3 11.59 C 3.875 km/h
1094 06-09-2015 02:00:00 11.08333 C 8.49 g/m*3 11.08 C 2.66667 km/h
1095 06-09-2015 03:00:00 10.94167 C 8.45 g/m*3 10.94 C 3.86667 km/h
1096 06-09-2015 04:00:00 10.7 C 8.36 g/m*3 10.7 C 2 km/h
1097 06-09-2015 05:00:00 9.84167 C 8.23 g/m*3 9.84 C 0.26667 km/h
1098 06-09-2015 06:00:00 9.53333 C 8.04 g/m*3 9.53 C 2.4 km/h
1099 06-09-2015 07:00:00 9.78333 C 8.09 g/m*3 9.78 C 3.73333 km/h
1100 06-09-2015 08:00:00 10.025 C 8.2 g/m*3 10.03 C 1.86667 km/h
Sensor: Nr:Datum:Temp:Abs-Feuchte:Windchill:Wind:
Aussen-T/F 1101 06-09-2015 09:00:00 11.84167 C 8.55 g/m*3 11.84 C 8.74167 km/h
1102 06-09-2015 10:00:00 12.93333 C 8.38 g/m*3 12.93 C 12.625 km/h
1103 06-09-2015 11:00:00 13.96667 C 8.39 g/m*3 13.97 C 13.43333 km/h
1104 06-09-2015 12:00:00 14.83333 C 8.26 g/m*3 14.83 C 15.03333 km/h
1105 06-09-2015 13:00:00 15.35833 C 8.16 g/m*3 15.36 C 14.76667 km/h
1106 06-09-2015 14:00:00 15.85833 C 8.23 g/m*3 15.86 C 13.03333 km/h
1107 06-09-2015 15:00:00 15.96667 C 8.39 g/m*3 15.97 C 9.81667 km/h
1108 06-09-2015 16:00:00 16.48333 C 8.44 g/m*3 16.48 C 10.5 km/h
1109 06-09-2015 17:00:00 16.125 C 8.21 g/m*3 16.13 C 11.425 km/h
1110 06-09-2015 18:00:00 16.86667 C 8.19 g/m*3 16.87 C 10.88333 km/h
1111 06-09-2015 19:00:00 15.2 C 8.38 g/m*3 15.2 C 7.51667 km/h
1112 06-09-2015 20:00:00 14.35833 C 8.45 g/m*3 14.36 C 7.65 km/h
1113 06-09-2015 21:00:00 13.73333 C 8.57 g/m*3 13.73 C 6.15833 km/h
1114 06-09-2015 22:00:00 13.06667 C 8.55 g/m*3 13.07 C 6.15833 km/h
1115 06-09-2015 23:00:00 12.80833 C 8.54 g/m*3 12.81 C 2.66667 km/h
1116 07-09-2015 00:00:00 12.55 C 8.57 g/m*3 12.55 C 3.60833 km/h
1117 07-09-2015 01:00:00 12.25833 C 8.65 g/m*3 12.26 C 3.2 km/h
1118 07-09-2015 02:00:00 12.15 C 8.67 g/m*3 12.15 C 3.06667 km/h
1119 07-09-2015 03:00:00 11.54167 C 9.04 g/m*3 11.54 C 5.48333 km/h
1120 07-09-2015 04:00:00 11.2 C 9.26 g/m*3 11.2 C 5.49167 km/h
1121 07-09-2015 05:00:00 11.63333 C 9.35 g/m*3 11.63 C 4.69167 km/h
1122 07-09-2015 06:00:00 11.71667 C 9.31 g/m*3 11.72 C 2.53333 km/h
1123 07-09-2015 07:00:00 11.96667 C 9.48 g/m*3 11.97 C 5.63333 km/h
1124 07-09-2015 08:00:00 12.51667 C 9.66 g/m*3 12.52 C 5.9 km/h
1125 07-09-2015 09:00:00 13.05 C 9.81 g/m*3 13.05 C 4.675 km/h
Sensor: Nr:Datum:Temp:Abs-Feuchte:Windchill:Wind:
Aussen-T/F 1126 07-09-2015 10:00:00 13.43333 C 10.12 g/m*3 13.43 C 6.56667 km/h
1127 07-09-2015 11:00:00 13.78333 C 10.38 g/m*3 13.78 C 9.69167 km/h
1128 07-09-2015 12:00:00 14.35 C 10.58 g/m*3 14.35 C 7.79167 km/h
1129 07-09-2015 13:00:00 15.04167 C 10.77 g/m*3 15.04 C 10.2 km/h
1130 07-09-2015 14:00:00 16.1 C 11.03 g/m*3 16.1 C 9.83333 km/h
1131 07-09-2015 15:00:00 16.275 C 11.04 g/m*3 16.27 C 7.38333 km/h
1132 07-09-2015 16:00:00 15.95833 C 11.11 g/m*3 15.96 C 7.10833 km/h
1133 07-09-2015 17:00:00 15.18333 C 11.63 g/m*3 15.18 C 0 km/h
1134 07-09-2015 18:00:00 14.85 C 11.55 g/m*3 14.85 C 0.13333 km/h
1135 07-09-2015 19:00:00 14.525 C 11.34 g/m*3 14.53 C 0.66667 km/h
1136 07-09-2015 20:00:00 13.95833 C 11.12 g/m*3 13.96 C 0.13333 km/h
1137 07-09-2015 21:00:00 13.8 C 11.08 g/m*3 13.8 C 0.13333 km/h
1138 07-09-2015 22:00:00 13.88333 C 11.14 g/m*3 13.88 C 1.33333 km/h
1139 07-09-2015 23:00:00 13.83333 C 11.19 g/m*3 13.83 C 0.26667 km/h
1140 08-09-2015 00:00:00 13.63333 C 11.19 g/m*3 13.63 C 0.13333 km/h
1141 08-09-2015 01:00:00 13.59167 C 11.17 g/m*3 13.59 C 0 km/h
1142 08-09-2015 02:00:00 13.56667 C 11.16 g/m*3 13.57 C 0 km/h
1143 08-09-2015 03:00:00 13.225 C 10.92 g/m*3 13.23 C 0.13333 km/h
1144 08-09-2015 04:00:00 13.025 C 10.89 g/m*3 13.03 C 0.4 km/h
1145 08-09-2015 05:00:00 13.10833 C 10.96 g/m*3 13.11 C 0 km/h
1146 08-09-2015 06:00:00 12.84167 C 10.78 g/m*3 12.84 C 0 km/h
1147 08-09-2015 07:00:00 12.68333 C 10.68 g/m*3 12.68 C 0 km/h
1148 08-09-2015 08:00:00 13.06667 C 10.93 g/m*3 13.07 C 0.26667 km/h
1149 08-09-2015 09:00:00 13.98333 C 11.05 g/m*3 13.98 C 4.275 km/h
1150 08-09-2015 10:00:00 14.75 C 10.82 g/m*3 14.75 C 3.2 km/h
Sensor: Nr:Datum:Temp:Abs-Feuchte:Windchill:Wind:
Aussen-T/F 1151 08-09-2015 11:00:00 15.4 C 10.58 g/m*3 15.4 C 1.2 km/h
1152 08-09-2015 12:00:00 16.13333 C 10.31 g/m*3 16.13 C 4.275 km/h
1153 08-09-2015 13:00:00 16.725 C 10.26 g/m*3 16.73 C 3.06667 km/h
1154 08-09-2015 14:00:00 17.825 C 11.03 g/m*3 17.83 C 9.425 km/h
1155 08-09-2015 15:00:00 17.50833 C 10.94 g/m*3 17.51 C 7.39167 km/h
1156 08-09-2015 16:00:00 18.94167 C 11.18 g/m*3 18.94 C 8.625 km/h
1157 08-09-2015 17:00:00 19.7 C 11 g/m*3 19.7 C 8.74167 km/h
1158 08-09-2015 18:00:00 18.71667 C 10.94 g/m*3 18.72 C 8.61667 km/h
1159 08-09-2015 19:00:00 16.88333 C 10.79 g/m*3 16.88 C 6.85 km/h
1160 08-09-2015 20:00:00 14.46667 C 10.54 g/m*3 14.47 C 1.33333 km/h
1161 08-09-2015 21:00:00 14.38333 C 10.89 g/m*3 14.38 C 0.4 km/h
1162 08-09-2015 22:00:00 14.175 C 10.75 g/m*3 14.18 C 0.13333 km/h
1163 08-09-2015 23:00:00 13.88333 C 10.71 g/m*3 13.88 C 0 km/h
1164 09-09-2015 00:00:00 13.78333 C 10.73 g/m*3 13.78 C 0 km/h
1165 09-09-2015 01:00:00 13.55833 C 10.66 g/m*3 13.56 C 0 km/h
1166 09-09-2015 02:00:00 13.45 C 10.67 g/m*3 13.45 C 0 km/h
1167 09-09-2015 03:00:00 13.35 C 10.66 g/m*3 13.35 C 0 km/h
1168 09-09-2015 04:00:00 13.24167 C 10.59 g/m*3 13.24 C 0 km/h
1169 09-09-2015 05:00:00 13.05 C 10.47 g/m*3 13.05 C 0 km/h
1170 09-09-2015 06:00:00 12.84167 C 10.43 g/m*3 12.84 C 0 km/h
1171 09-09-2015 07:00:00 12.94167 C 10.51 g/m*3 12.94 C 0 km/h
1172 09-09-2015 08:00:00 12.73333 C 10.36 g/m*3 12.73 C 0 km/h
1173 09-09-2015 09:00:00 13.56667 C 10.75 g/m*3 13.57 C 2.29167 km/h
1174 09-09-2015 10:00:00 14.99167 C 10.59 g/m*3 14.99 C 4.275 km/h
1175 09-09-2015 11:00:00 16.68333 C 10.64 g/m*3 16.68 C 9.54167 km/h
Sensor: Nr:Datum:Temp:Abs-Feuchte:Windchill:Wind:
Aussen-T/F 1176 09-09-2015 12:00:00 17.41667 C 10.38 g/m*3 17.42 C 8.45833 km/h
1177 09-09-2015 13:00:00 18.61667 C 10.4 g/m*3 18.62 C 8.45 km/h
1178 09-09-2015 14:00:00 19.86667 C 10 g/m*3 19.87 C 11.01667 km/h
1179 09-09-2015 15:00:00 20.09167 C 9.76 g/m*3 20.09 C 10.61667 km/h
1180 09-09-2015 16:00:00 21.29167 C 9.39 g/m*3 21.29 C 10.46667 km/h
1181 09-09-2015 17:00:00 21.425 C 9.12 g/m*3 21.43 C 10.75 km/h
1182 09-09-2015 18:00:00 20.575 C 8.89 g/m*3 20.58 C 9.14167 km/h
1183 09-09-2015 19:00:00 18.54167 C 9.01 g/m*3 18.54 C 2.13333 km/h
1184 09-09-2015 20:00:00 14.60833 C 8.71 g/m*3 14.61 C 1.06667 km/h
1185 09-09-2015 21:00:00 13.2 C 8.53 g/m*3 13.2 C 1.33333 km/h
1186 09-09-2015 22:00:00 12.575 C 8.42 g/m*3 12.58 C 1.46667 km/h
1187 09-09-2015 23:00:00 12.03333 C 8.25 g/m*3 12.03 C 0.8 km/h
1188 10-09-2015 00:00:00 11.15 C 8.13 g/m*3 11.15 C 0.26667 km/h
1189 10-09-2015 01:00:00 10.75 C 8.05 g/m*3 10.75 C 0.8 km/h
1190 10-09-2015 02:00:00 10.33333 C 8.01 g/m*3 10.33 C 0.8 km/h
1191 10-09-2015 03:00:00 9.625 C 7.9 g/m*3 9.63 C 0.13333 km/h
1192 10-09-2015 04:00:00 9.125 C 7.84 g/m*3 9.13 C 0 km/h
1193 10-09-2015 05:00:00 8.51667 C 7.72 g/m*3 8.52 C 0 km/h
1194 10-09-2015 06:00:00 8.2 C 7.69 g/m*3 8.2 C 0 km/h
1195 10-09-2015 07:00:00 8.15 C 7.75 g/m*3 8.15 C 0 km/h
1196 10-09-2015 08:00:00 8.7 C 8.06 g/m*3 8.7 C 0 km/h
1197 10-09-2015 09:00:00 9.625 C 8.53 g/m*3 9.63 C 0.13333 km/h
1198 10-09-2015 10:00:00 11.63333 C 9.31 g/m*3 11.63 C 1.33333 km/h
1199 10-09-2015 11:00:00 13.89167 C 9.55 g/m*3 13.89 C 4.55 km/h
1200 10-09-2015 12:00:00 16.375 C 9.29 g/m*3 16.38 C 9.275 km/h
Sensor: Nr:Datum:Temp:Abs-Feuchte:Windchill:Wind:
Aussen-T/F 1201 10-09-2015 13:00:00 18.625 C 9.46 g/m*3 18.63 C 6.7 km/h
1202 10-09-2015 14:00:00 19.75 C 9.07 g/m*3 19.75 C 10.1 km/h
1203 10-09-2015 15:00:00 19.2 C 8.92 g/m*3 19.2 C 10.20833 km/h
1204 10-09-2015 16:00:00 19.33333 C 9.1 g/m*3 19.33 C 7.8 km/h
1205 10-09-2015 17:00:00 19.225 C 9.37 g/m*3 19.23 C 6.025 km/h
1206 10-09-2015 18:00:00 18.20833 C 9.58 g/m*3 18.21 C 3.625 km/h
1207 10-09-2015 19:00:00 16.73333 C 9.51 g/m*3 16.73 C 1.33333 km/h
1208 10-09-2015 20:00:00 13.73333 C 8.98 g/m*3 13.73 C 0.8 km/h
1209 10-09-2015 21:00:00 12.85 C 8.77 g/m*3 12.85 C 0.8 km/h
1210 10-09-2015 22:00:00 12.28333 C 8.69 g/m*3 12.28 C 1.46667 km/h
1211 10-09-2015 23:00:00 11.70833 C 8.49 g/m*3 11.71 C 0.4 km/h
1212 11-09-2015 00:00:00 11.29167 C 8.41 g/m*3 11.29 C 0.93333 km/h
1213 11-09-2015 01:00:00 11.225 C 8.34 g/m*3 11.23 C 1.2 km/h
1214 11-09-2015 02:00:00 10.5 C 8.28 g/m*3 10.5 C 1.46667 km/h
1215 11-09-2015 03:00:00 10.00833 C 8.16 g/m*3 10.01 C 1.46667 km/h
1216 11-09-2015 04:00:00 9.4 C 8 g/m*3 9.4 C 0.26667 km/h
1217 11-09-2015 05:00:00 8.84167 C 7.91 g/m*3 8.84 C 0 km/h
1218 11-09-2015 06:00:00 8.225 C 7.72 g/m*3 8.23 C 0 km/h
1219 11-09-2015 07:00:00 7.9 C 7.68 g/m*3 7.9 C 0 km/h
1220 11-09-2015 08:00:00 8.46667 C 8.01 g/m*3 8.47 C 0.13333 km/h
1221 11-09-2015 09:00:00 9.65 C 8.56 g/m*3 9.65 C 0.93333 km/h
1222 11-09-2015 10:00:00 11.59167 C 9.11 g/m*3 11.59 C 3.06667 km/h
1223 11-09-2015 11:00:00 13.6 C 9.42 g/m*3 13.6 C 5.21667 km/h
1224 11-09-2015 12:00:00 15.59167 C 9.77 g/m*3 15.59 C 5.89167 km/h
1225 11-09-2015 13:00:00 19.00833 C 10.57 g/m*3 19.01 C 8.33333 km/h
Sensor: Nr:Datum:Temp:Abs-Feuchte:Windchill:Wind:
Aussen-T/F 1226 11-09-2015 14:00:00 19.86667 C 10.47 g/m*3 19.87 C 6.975 km/h
1227 11-09-2015 15:00:00 21.08333 C 9.51 g/m*3 21.08 C 7.925 km/h
1228 11-09-2015 16:00:00 19.11667 C 10.61 g/m*3 19.12 C 1.33333 km/h
1229 11-09-2015 17:00:00 18.30833 C 10.59 g/m*3 18.31 C 0.8 km/h
1230 11-09-2015 18:00:00 17.75 C 10.33 g/m*3 17.75 C 0.93333 km/h
1231 11-09-2015 19:00:00 15.71667 C 9.84 g/m*3 15.72 C 1.2 km/h
1232 11-09-2015 20:00:00 14.05833 C 9.25 g/m*3 14.06 C 1.6 km/h
1233 11-09-2015 21:00:00 13.06667 C 8.9 g/m*3 13.07 C 0.4 km/h
1234 11-09-2015 22:00:00 11.7 C 8.62 g/m*3 11.7 C 0 km/h
1235 11-09-2015 23:00:00 10.78333 C 8.34 g/m*3 10.78 C 0 km/h
1236 12-09-2015 00:00:00 9.99167 C 8.17 g/m*3 9.99 C 0 km/h
1237 12-09-2015 01:00:00 9.78333 C 8.31 g/m*3 9.78 C 0 km/h
1238 12-09-2015 02:00:00 9.75 C 8.35 g/m*3 9.75 C 0 km/h
1239 12-09-2015 03:00:00 9.4 C 8.23 g/m*3 9.4 C 0 km/h
1240 12-09-2015 04:00:00 9.4 C 8.31 g/m*3 9.4 C 0 km/h
1241 12-09-2015 05:00:00 9.36667 C 8.33 g/m*3 9.37 C 0 km/h
1242 12-09-2015 06:00:00 9.66667 C 8.56 g/m*3 9.67 C 0 km/h
1243 12-09-2015 07:00:00 9.66667 C 8.56 g/m*3 9.67 C 0.53333 km/h
1244 12-09-2015 08:00:00 9.91667 C 8.72 g/m*3 9.92 C 0 km/h
1245 12-09-2015 09:00:00 11.725 C 9.71 g/m*3 11.73 C 0 km/h
1246 12-09-2015 10:00:00 14.26667 C 10.53 g/m*3 14.27 C 1.33333 km/h
1247 12-09-2015 11:00:00 17.125 C 10.61 g/m*3 17.13 C 3.2 km/h
1248 12-09-2015 12:00:00 18.425 C 11.28 g/m*3 18.43 C 3.86667 km/h
1249 12-09-2015 13:00:00 21.33333 C 12.51 g/m*3 21.33 C 5.89167 km/h
1250 12-09-2015 14:00:00 23.125 C 13.21 g/m*3 23.13 C 7.11667 km/h
Sensor: Nr:Datum:Temp:Abs-Feuchte:Windchill:Wind:
Aussen-T/F 1251 12-09-2015 15:00:00 22.54167 C 13.53 g/m*3 22.54 C 4.01667 km/h
1252 12-09-2015 16:00:00 21.65833 C 14.07 g/m*3 21.66 C 1.86667 km/h
1253 12-09-2015 17:00:00 21.975 C 14.2 g/m*3 21.98 C 1.06667 km/h
1254 12-09-2015 18:00:00 19.38333 C 13.71 g/m*3 19.38 C 0.4 km/h
1255 12-09-2015 19:00:00 18.55 C 13.33 g/m*3 18.55 C 0.8 km/h
1256 12-09-2015 20:00:00 18.15 C 13.26 g/m*3 18.15 C 0.13333 km/h
1257 12-09-2015 21:00:00 18.24167 C 13.41 g/m*3 18.24 C 1.475 km/h
1258 12-09-2015 22:00:00 18.11667 C 13.71 g/m*3 18.12 C 1.475 km/h
1259 12-09-2015 23:00:00 16.91667 C 13.39 g/m*3 16.92 C 0 km/h
1260 13-09-2015 00:00:00 16.18333 C 12.95 g/m*3 16.18 C 0 km/h
1261 13-09-2015 01:00:00 15.83333 C 12.78 g/m*3 15.83 C 0 km/h
1262 13-09-2015 02:00:00 15.64167 C 12.67 g/m*3 15.64 C 0 km/h
1263 13-09-2015 03:00:00 15.76667 C 12.76 g/m*3 15.77 C 0 km/h
1264 13-09-2015 04:00:00 16.01667 C 12.91 g/m*3 16.02 C 0 km/h
1265 13-09-2015 05:00:00 16.05833 C 12.85 g/m*3 16.06 C 0 km/h
1266 13-09-2015 06:00:00 16.075 C 12.87 g/m*3 16.08 C 0.26667 km/h
1267 13-09-2015 07:00:00 16.7 C 13.06 g/m*3 16.7 C 0.66667 km/h
1268 13-09-2015 08:00:00 17.34167 C 13.22 g/m*3 17.34 C 1.46667 km/h
1269 13-09-2015 09:00:00 17.88333 C 13.51 g/m*3 17.88 C 0.66667 km/h
1270 13-09-2015 10:00:00 18.7 C 13.41 g/m*3 18.7 C 3.46667 km/h
1271 13-09-2015 11:00:00 19.08333 C 13.69 g/m*3 19.08 C 1.86667 km/h
1272 13-09-2015 12:00:00 18.275 C 14.1 g/m*3 18.27 C 2.26667 km/h
1273 13-09-2015 13:00:00 18.48333 C 13.96 g/m*3 18.48 C 3.46667 km/h
1274 13-09-2015 14:00:00 18.24167 C 14.18 g/m*3 18.24 C 2.53333 km/h
1275 13-09-2015 15:00:00 18.05833 C 14.32 g/m*3 18.06 C 0.93333 km/h
Sensor: Nr:Datum:Temp:Abs-Feuchte:Windchill:Wind:
Aussen-T/F 1276 13-09-2015 16:00:00 18.225 C 14.59 g/m*3 18.23 C 1.33333 km/h
1277 13-09-2015 17:00:00 18.16667 C 14.68 g/m*3 18.17 C 0.66667 km/h
1278 13-09-2015 18:00:00 18.475 C 14.9 g/m*3 18.48 C 0.4 km/h
1279 13-09-2015 19:00:00 17.68333 C 14.13 g/m*3 17.68 C 0 km/h
1280 13-09-2015 20:00:00 16.075 C 13.05 g/m*3 16.08 C 0 km/h
1281 13-09-2015 21:00:00 15.64167 C 12.8 g/m*3 15.64 C 0.13333 km/h
1282 13-09-2015 22:00:00 15.4 C 12.66 g/m*3 15.4 C 0 km/h
1283 13-09-2015 23:00:00 15.70833 C 12.98 g/m*3 15.71 C 1.34167 km/h
1284 14-09-2015 00:00:00 15.88333 C 13.12 g/m*3 15.88 C 0 km/h
1285 14-09-2015 01:00:00 15.65833 C 12.95 g/m*3 15.66 C 0 km/h
1286 14-09-2015 02:00:00 15.525 C 12.84 g/m*3 15.53 C 0 km/h
1287 14-09-2015 03:00:00 15.38333 C 12.73 g/m*3 15.38 C 0 km/h
1288 14-09-2015 04:00:00 15.18333 C 12.58 g/m*3 15.18 C 0 km/h
1289 14-09-2015 05:00:00 14.68333 C 12.2 g/m*3 14.68 C 0.4 km/h
1290 14-09-2015 06:00:00 14.41667 C 12 g/m*3 14.42 C 0 km/h
1291 14-09-2015 07:00:00 14.4 C 11.99 g/m*3 14.4 C 0 km/h
1292 14-09-2015 08:00:00 14.9 C 12.39 g/m*3 14.9 C 0 km/h
1293 14-09-2015 09:00:00 15.65 C 12.99 g/m*3 15.65 C 0.93333 km/h
1294 14-09-2015 10:00:00 15.89167 C 12.83 g/m*3 15.89 C 8.325 km/h
1295 14-09-2015 11:00:00 17.50833 C 13.01 g/m*3 17.51 C 4.275 km/h
1296 14-09-2015 12:00:00 18.66667 C 12.52 g/m*3 18.67 C 12.20833 km/h
1297 14-09-2015 13:00:00 20.075 C 12.35 g/m*3 20.08 C 10.625 km/h
1298 14-09-2015 14:00:00 18.35833 C 13.04 g/m*3 18.36 C 7.23333 km/h
1299 14-09-2015 15:00:00 16.83333 C 13.32 g/m*3 16.83 C 0.66667 km/h
1300 14-09-2015 16:00:00 15.625 C 12.44 g/m*3 15.63 C 3.20833 km/h
Sensor: Nr:Datum:Temp:Abs-Feuchte:Windchill:Wind:
Aussen-T/F 1301 14-09-2015 17:00:00 16.05833 C 12.53 g/m*3 16.06 C 4.96667 km/h
1302 14-09-2015 18:00:00 16.55 C 12.5 g/m*3 16.55 C 3.20833 km/h
1303 14-09-2015 19:00:00 15.23333 C 11.58 g/m*3 15.23 C 4.29167 km/h
1304 14-09-2015 20:00:00 13.74167 C 10.46 g/m*3 13.74 C 4.025 km/h
1305 14-09-2015 21:00:00 12.13333 C 10.16 g/m*3 12.13 C 1.6 km/h
1306 14-09-2015 22:00:00 12.125 C 9.7 g/m*3 12.13 C 2.54167 km/h
1307 14-09-2015 23:00:00 12.15 C 9.45 g/m*3 12.15 C 2 km/h
1308 15-09-2015 00:00:00 10.95833 C 9.33 g/m*3 10.96 C 0.13333 km/h
1309 15-09-2015 01:00:00 10.35 C 9.08 g/m*3 10.35 C 0 km/h
1310 15-09-2015 02:00:00 10.2 C 9.04 g/m*3 10.2 C 0 km/h
1311 15-09-2015 03:00:00 9.93333 C 8.89 g/m*3 9.93 C 0.26667 km/h
1312 15-09-2015 04:00:00 9.85 C 8.8 g/m*3 9.85 C 1.33333 km/h
1313 15-09-2015 05:00:00 9.74167 C 8.66 g/m*3 9.74 C 1.46667 km/h
1314 15-09-2015 06:00:00 9.83333 C 8.65 g/m*3 9.83 C 2.26667 km/h
1315 15-09-2015 07:00:00 9.925 C 8.71 g/m*3 9.93 C 1.46667 km/h
1316 15-09-2015 08:00:00 11.225 C 9.23 g/m*3 11.23 C 3.6 km/h
1317 15-09-2015 09:00:00 13.11667 C 9.53 g/m*3 13.12 C 4 km/h
1318 15-09-2015 10:00:00 13.975 C 10.01 g/m*3 13.98 C 3.475 km/h
1319 15-09-2015 11:00:00 13.00833 C 10.44 g/m*3 13.01 C 1.33333 km/h
1320 15-09-2015 12:00:00 14.175 C 11.13 g/m*3 14.18 C 5.36667 km/h
1321 15-09-2015 13:00:00 15.175 C 11.05 g/m*3 15.18 C 11.54167 km/h
1322 15-09-2015 14:00:00 14.96667 C 10.63 g/m*3 14.97 C 10.89167 km/h
1323 15-09-2015 15:00:00 16.26667 C 10.97 g/m*3 16.27 C 7.24167 km/h
1324 15-09-2015 16:00:00 18.13333 C 11.08 g/m*3 18.13 C 7.91667 km/h
1325 15-09-2015 17:00:00 18.53333 C 10.09 g/m*3 18.53 C 11.94167 km/h
Sensor: Nr:Datum:Temp:Abs-Feuchte:Windchill:Wind:
Aussen-T/F 1326 15-09-2015 18:00:00 17.50833 C 10.38 g/m*3 17.51 C 4.95833 km/h
1327 15-09-2015 19:00:00 15.06667 C 10.46 g/m*3 15.07 C 1.06667 km/h
1328 15-09-2015 20:00:00 12.35 C 9.88 g/m*3 12.35 C 0.13333 km/h
1329 15-09-2015 21:00:00 11.75 C 9.74 g/m*3 11.75 C 0.8 km/h
1330 15-09-2015 22:00:00 11.93333 C 9.79 g/m*3 11.93 C 1.73333 km/h
1331 15-09-2015 23:00:00 12.80833 C 9.84 g/m*3 12.81 C 1.2 km/h
1332 16-09-2015 00:00:00 12.025 C 9.81 g/m*3 12.03 C 0.53333 km/h
1333 16-09-2015 01:00:00 12.43333 C 10.08 g/m*3 12.43 C 0.26667 km/h
1334 16-09-2015 02:00:00 12.35833 C 10.19 g/m*3 12.36 C 0.8 km/h
1335 16-09-2015 03:00:00 12.38333 C 10.33 g/m*3 12.38 C 1.6 km/h
1336 16-09-2015 04:00:00 12.31667 C 10.38 g/m*3 12.32 C 0 km/h
1337 16-09-2015 05:00:00 12.525 C 10.57 g/m*3 12.53 C 3.6 km/h
1338 16-09-2015 06:00:00 12.94167 C 10.8 g/m*3 12.94 C 5.49167 km/h
1339 16-09-2015 07:00:00 13.1 C 10.82 g/m*3 13.1 C 3.075 km/h
1340 16-09-2015 08:00:00 13.19167 C 10.98 g/m*3 13.19 C 0.8 km/h
1341 16-09-2015 09:00:00 13.71667 C 11.38 g/m*3 13.72 C 4.55 km/h
1342 16-09-2015 10:00:00 14.5 C 11.86 g/m*3 14.5 C 4.13333 km/h
1343 16-09-2015 11:00:00 15.05 C 12.19 g/m*3 15.05 C 3.2 km/h
1344 16-09-2015 12:00:00 16.03333 C 12.8 g/m*3 16.03 C 6.85 km/h
1345 16-09-2015 13:00:00 17.10833 C 13.39 g/m*3 17.11 C 6.04167 km/h
1346 16-09-2015 14:00:00 17.90833 C 13.88 g/m*3 17.91 C 4.54167 km/h
1347 16-09-2015 15:00:00 18.38333 C 14.18 g/m*3 18.38 C 5.21667 km/h
1348 16-09-2015 16:00:00 19.49167 C 14.66 g/m*3 19.49 C 5.09167 km/h
1349 16-09-2015 17:00:00 18.04167 C 14.22 g/m*3 18.04 C 2.80833 km/h
1350 16-09-2015 18:00:00 17.30833 C 13.55 g/m*3 17.31 C 5.35833 km/h
Sensor: Nr:Datum:Temp:Abs-Feuchte:Windchill:Wind:
Aussen-T/F 1351 16-09-2015 19:00:00 16.78333 C 13.43 g/m*3 16.78 C 5.36667 km/h
1352 16-09-2015 20:00:00 16 C 12.99 g/m*3 16 C 2.26667 km/h
1353 16-09-2015 21:00:00 16.13333 C 13.2 g/m*3 16.13 C 1.06667 km/h
1354 16-09-2015 22:00:00 15.875 C 13.04 g/m*3 15.88 C 5.1 km/h
1355 16-09-2015 23:00:00 14.79167 C 11.79 g/m*3 14.79 C 5.90833 km/h
1356 17-09-2015 00:00:00 14.16667 C 11.58 g/m*3 14.17 C 2.14167 km/h
1357 17-09-2015 01:00:00 13.84167 C 11.47 g/m*3 13.84 C 1.2 km/h
1358 17-09-2015 02:00:00 13.625 C 11.34 g/m*3 13.63 C 1.2 km/h
1359 17-09-2015 03:00:00 13.73333 C 11.51 g/m*3 13.73 C 3.74167 km/h
1360 17-09-2015 04:00:00 13.80833 C 11.56 g/m*3 13.81 C 2.53333 km/h
1361 17-09-2015 05:00:00 13.89167 C 11.62 g/m*3 13.89 C 1.73333 km/h
1362 17-09-2015 06:00:00 13.88333 C 11.62 g/m*3 13.88 C 1.74167 km/h
1363 17-09-2015 07:00:00 14.19167 C 11.84 g/m*3 14.19 C 1.86667 km/h
1364 17-09-2015 08:00:00 14.475 C 12.05 g/m*3 14.48 C 1.06667 km/h
1365 17-09-2015 09:00:00 14.78333 C 12.26 g/m*3 14.78 C 2.00833 km/h
1366 17-09-2015 10:00:00 15.29167 C 12.38 g/m*3 15.29 C 5.63333 km/h
1367 17-09-2015 11:00:00 15.7 C 12.29 g/m*3 15.7 C 5.35833 km/h
1368 17-09-2015 12:00:00 16.09167 C 12.02 g/m*3 16.09 C 5.89167 km/h
1369 17-09-2015 13:00:00 15.88333 C 11.66 g/m*3 15.88 C 5.1 km/h
1370 17-09-2015 14:00:00 16.025 C 11.2 g/m*3 16.02 C 6.3 km/h
1371 17-09-2015 15:00:00 16.28333 C 11.23 g/m*3 16.28 C 5.48333 km/h
1372 17-09-2015 16:00:00 16.2 C 11.47 g/m*3 16.2 C 6.58333 km/h
1373 17-09-2015 17:00:00 16.21667 C 11.51 g/m*3 16.22 C 5.49167 km/h
1374 17-09-2015 18:00:00 16.36667 C 11.34 g/m*3 16.37 C 10.075 km/h
1375 17-09-2015 19:00:00 16.075 C 11.1 g/m*3 16.08 C 8.99167 km/h
Sensor: Nr:Datum:Temp:Abs-Feuchte:Windchill:Wind:
Aussen-T/F 1376 17-09-2015 20:00:00 14.65 C 10.93 g/m*3 14.65 C 3.08333 km/h
1377 17-09-2015 21:00:00 12.98333 C 10.54 g/m*3 12.98 C 0.13333 km/h
1378 17-09-2015 22:00:00 12.09167 C 10.15 g/m*3 12.09 C 0.26667 km/h
1379 17-09-2015 23:00:00 11.5 C 9.85 g/m*3 11.5 C 0.53333 km/h
1380 18-09-2015 00:00:00 12.05 C 10.26 g/m*3 12.05 C 0 km/h
1381 18-09-2015 01:00:00 12.30833 C 10.43 g/m*3 12.31 C 0 km/h
1382 18-09-2015 02:00:00 11.925 C 10.17 g/m*3 11.93 C 0 km/h
1383 18-09-2015 03:00:00 11.18333 C 9.72 g/m*3 11.18 C 0 km/h
1384 18-09-2015 04:00:00 11.48333 C 9.94 g/m*3 11.48 C 0 km/h
1385 18-09-2015 05:00:00 11.775 C 10.08 g/m*3 11.78 C 0.93333 km/h
1386 18-09-2015 06:00:00 12.18333 C 10.35 g/m*3 12.18 C 1.46667 km/h
1387 18-09-2015 07:00:00 12.01667 C 10.24 g/m*3 12.02 C 0.26667 km/h
1388 18-09-2015 08:00:00 12.80833 C 10.77 g/m*3 12.81 C 0.53333 km/h
1389 18-09-2015 09:00:00 13.41667 C 10.91 g/m*3 13.42 C 2.4 km/h
1390 18-09-2015 10:00:00 15.05 C 11.13 g/m*3 15.05 C 8.89167 km/h
1391 18-09-2015 11:00:00 16.05 C 11.04 g/m*3 16.05 C 10.60833 km/h
1392 18-09-2015 12:00:00 16.70833 C 10.74 g/m*3 16.71 C 10.61667 km/h
1393 18-09-2015 13:00:00 18.93333 C 10.63 g/m*3 18.93 C 13.3 km/h
1394 18-09-2015 14:00:00 19.14167 C 10.27 g/m*3 19.14 C 11.26667 km/h
1395 18-09-2015 15:00:00 19.475 C 10.32 g/m*3 19.48 C 12.63333 km/h
1396 18-09-2015 16:00:00 20.075 C 10.28 g/m*3 20.08 C 11.96667 km/h
1397 18-09-2015 17:00:00 18.75833 C 11.21 g/m*3 18.76 C 3.60833 km/h
1398 18-09-2015 18:00:00 16.45833 C 11.45 g/m*3 16.46 C 0.93333 km/h
1399 18-09-2015 19:00:00 15.575 C 11.35 g/m*3 15.58 C 0 km/h
1400 18-09-2015 20:00:00 13.55 C 10.54 g/m*3 13.55 C 0 km/h
Sensor: Nr:Datum:Temp:Abs-Feuchte:Windchill:Wind:
Aussen-T/F 1401 18-09-2015 21:00:00 12.75 C 10.27 g/m*3 12.75 C 0 km/h
1402 18-09-2015 22:00:00 12.925 C 10.36 g/m*3 12.93 C 0 km/h
1403 18-09-2015 23:00:00 12.25 C 10.01 g/m*3 12.25 C 0.53333 km/h
1404 19-09-2015 00:00:00 13.25 C 10.25 g/m*3 13.25 C 1.46667 km/h
1405 19-09-2015 01:00:00 13 C 10.23 g/m*3 13 C 0.4 km/h
1406 19-09-2015 02:00:00 12.05833 C 9.9 g/m*3 12.06 C 0.26667 km/h
1407 19-09-2015 03:00:00 11.65 C 9.64 g/m*3 11.65 C 0.66667 km/h
1408 19-09-2015 04:00:00 11.775 C 9.86 g/m*3 11.78 C 0 km/h
1409 19-09-2015 05:00:00 12.175 C 10.09 g/m*3 12.18 C 0.13333 km/h
1410 19-09-2015 06:00:00 12.225 C 10.11 g/m*3 12.23 C 0 km/h
1411 19-09-2015 07:00:00 12.43333 C 10.29 g/m*3 12.43 C 0 km/h
1412 19-09-2015 08:00:00 12.89167 C 10.56 g/m*3 12.89 C 0.13333 km/h
1413 19-09-2015 09:00:00 14.1 C 10.83 g/m*3 14.1 C 3.2 km/h
1414 19-09-2015 10:00:00 14.925 C 10.87 g/m*3 14.93 C 7.65 km/h
1415 19-09-2015 11:00:00 15.64167 C 10.87 g/m*3 15.64 C 9.40833 km/h
1416 19-09-2015 12:00:00 16.76667 C 10.81 g/m*3 16.77 C 7.25 km/h
1417 19-09-2015 13:00:00 17.41667 C 10.73 g/m*3 17.42 C 6.31667 km/h
1418 19-09-2015 14:00:00 18.09167 C 10.71 g/m*3 18.09 C 4.14167 km/h
1419 19-09-2015 15:00:00 17.525 C 10.78 g/m*3 17.52 C 5.49167 km/h
1420 19-09-2015 16:00:00 16.70833 C 11.21 g/m*3 16.71 C 4.95833 km/h
1421 19-09-2015 17:00:00 15.70833 C 11.38 g/m*3 15.71 C 1.6 km/h
1422 19-09-2015 18:00:00 14.99167 C 11.44 g/m*3 14.99 C 2.00833 km/h
1423 19-09-2015 19:00:00 14.56667 C 11.23 g/m*3 14.57 C 0.26667 km/h
1424 19-09-2015 20:00:00 13.76667 C 11.13 g/m*3 13.77 C 0 km/h
1425 19-09-2015 21:00:00 14 C 11.25 g/m*3 14 C 2.675 km/h
Sensor: Nr:Datum:Temp:Abs-Feuchte:Windchill:Wind:
Aussen-T/F 1426 19-09-2015 22:00:00 14.25833 C 11.23 g/m*3 14.26 C 3.08333 km/h
1427 19-09-2015 23:00:00 13.825 C 11.1 g/m*3 13.83 C 2.26667 km/h
1428 20-09-2015 00:00:00 13.575 C 10.97 g/m*3 13.58 C 0.93333 km/h
1429 20-09-2015 01:00:00 12.68333 C 10.45 g/m*3 12.68 C 0.66667 km/h
1430 20-09-2015 02:00:00 12.09167 C 10.17 g/m*3 12.09 C 0 km/h
1431 20-09-2015 03:00:00 11.75833 C 10.03 g/m*3 11.76 C 0.13333 km/h
1432 20-09-2015 04:00:00 11.875 C 10.15 g/m*3 11.88 C 0.53333 km/h
1433 20-09-2015 05:00:00 11.78333 C 10.08 g/m*3 11.78 C 0.26667 km/h
1434 20-09-2015 06:00:00 11.7 C 10.02 g/m*3 11.7 C 2.13333 km/h
1435 20-09-2015 07:00:00 11.7 C 9.94 g/m*3 11.7 C 2.13333 km/h
1436 20-09-2015 08:00:00 12.21667 C 10.05 g/m*3 12.22 C 1.2 km/h
1437 20-09-2015 09:00:00 12.925 C 10.21 g/m*3 12.93 C 2 km/h
1438 20-09-2015 10:00:00 13.43333 C 10.32 g/m*3 13.43 C 3.48333 km/h
1439 20-09-2015 11:00:00 14.30833 C 9.93 g/m*3 14.31 C 7.11667 km/h
1440 20-09-2015 12:00:00 15.15833 C 9.85 g/m*3 15.16 C 5.76667 km/h
1441 20-09-2015 13:00:00 16.8 C 9.77 g/m*3 16.8 C 5.9 km/h
1442 20-09-2015 14:00:00 17.225 C 9.15 g/m*3 17.23 C 6.55833 km/h
1443 20-09-2015 15:00:00 18.11667 C 9.22 g/m*3 18.12 C 6.16667 km/h
1444 20-09-2015 16:00:00 18.00833 C 9.37 g/m*3 18.01 C 6.425 km/h
1445 20-09-2015 17:00:00 16.51667 C 9.62 g/m*3 16.52 C 5.63333 km/h
1446 20-09-2015 18:00:00 15.05833 C 10.42 g/m*3 15.06 C 0.13333 km/h
1447 20-09-2015 19:00:00 13.95833 C 10.38 g/m*3 13.96 C 0 km/h
1448 20-09-2015 20:00:00 13.54167 C 10.3 g/m*3 13.54 C 0 km/h
1449 20-09-2015 21:00:00 13.08333 C 10.09 g/m*3 13.08 C 0 km/h
1450 20-09-2015 22:00:00 11.95833 C 9.58 g/m*3 11.96 C 0 km/h
Sensor: Nr:Datum:Temp:Abs-Feuchte:Windchill:Wind:
Aussen-T/F 1451 20-09-2015 23:00:00 11.05 C 9.23 g/m*3 11.05 C 0 km/h
1452 21-09-2015 00:00:00 10.88333 C 9.24 g/m*3 10.88 C 0.4 km/h
1453 21-09-2015 01:00:00 10.70833 C 9.18 g/m*3 10.71 C 0 km/h
1454 21-09-2015 02:00:00 10.575 C 9.16 g/m*3 10.58 C 0.13333 km/h
1455 21-09-2015 03:00:00 9.85 C 8.78 g/m*3 9.85 C 0.26667 km/h
1456 21-09-2015 04:00:00 9.20833 C 8.49 g/m*3 9.21 C 0.26667 km/h
1457 21-09-2015 05:00:00 8.71667 C 8.27 g/m*3 8.72 C 0 km/h
1458 21-09-2015 06:00:00 8.64167 C 8.27 g/m*3 8.64 C 0.26667 km/h
1459 21-09-2015 07:00:00 8.34167 C 8.11 g/m*3 8.34 C 0.66667 km/h
1460 21-09-2015 08:00:00 8.45833 C 8.17 g/m*3 8.46 C 0.26667 km/h
1461 21-09-2015 09:00:00 8.90833 C 8.44 g/m*3 8.91 C 0.53333 km/h
1462 21-09-2015 10:00:00 9.6 C 8.83 g/m*3 9.6 C 2.26667 km/h
1463 21-09-2015 11:00:00 10.44167 C 9.28 g/m*3 10.44 C 0 km/h
1464 21-09-2015 12:00:00 12.24167 C 10.25 g/m*3 12.24 C 0.4 km/h
1465 21-09-2015 13:00:00 16.275 C 11.21 g/m*3 16.27 C 2 km/h
1466 21-09-2015 14:00:00 17.05 C 11.26 g/m*3 17.05 C 2 km/h
1467 21-09-2015 15:00:00 17.20833 C 11.44 g/m*3 17.21 C 0.8 km/h
1468 21-09-2015 16:00:00 17.64167 C 11.44 g/m*3 17.64 C 0.66667 km/h
1469 21-09-2015 17:00:00 16.38333 C 11.74 g/m*3 16.38 C 0 km/h
1470 21-09-2015 18:00:00 15.38333 C 11.31 g/m*3 15.38 C 0 km/h
1471 21-09-2015 19:00:00 14.05 C 10.59 g/m*3 14.05 C 0.26667 km/h
1472 21-09-2015 20:00:00 13.6 C 10.4 g/m*3 13.6 C 0 km/h
1473 21-09-2015 21:00:00 13.4 C 10.28 g/m*3 13.4 C 0 km/h
1474 21-09-2015 22:00:00 13.025 C 10.14 g/m*3 13.03 C 0 km/h
1475 21-09-2015 23:00:00 12.89167 C 10.14 g/m*3 12.89 C 0 km/h
Sensor: Nr:Datum:Temp:Abs-Feuchte:Windchill:Wind:
Aussen-T/F 1476 22-09-2015 00:00:00 12.75833 C 10.16 g/m*3 12.76 C 0 km/h
1477 22-09-2015 01:00:00 12.25833 C 9.86 g/m*3 12.26 C 0 km/h
1478 22-09-2015 02:00:00 12.13333 C 9.77 g/m*3 12.13 C 0 km/h
1479 22-09-2015 03:00:00 12.15833 C 9.79 g/m*3 12.16 C 0 km/h
1480 22-09-2015 04:00:00 12.45 C 9.87 g/m*3 12.45 C 0 km/h
1481 22-09-2015 05:00:00 12.9 C 9.91 g/m*3 12.9 C 1.6 km/h
1482 22-09-2015 06:00:00 13.2 C 9.94 g/m*3 13.2 C 0.66667 km/h
1483 22-09-2015 07:00:00 12.56667 C 10.2 g/m*3 12.57 C 0.8 km/h
1484 22-09-2015 08:00:00 13.01667 C 10.56 g/m*3 13.02 C 1.06667 km/h
1485 22-09-2015 09:00:00 13.6 C 10.77 g/m*3 13.6 C 0.4 km/h
1486 22-09-2015 10:00:00 13.825 C 10.98 g/m*3 13.83 C 1.33333 km/h
1487 22-09-2015 11:00:00 14.05833 C 11.36 g/m*3 14.06 C 0.93333 km/h
1488 22-09-2015 12:00:00 14.55833 C 11.73 g/m*3 14.56 C 1.2 km/h
1489 22-09-2015 13:00:00 14.49167 C 11.51 g/m*3 14.49 C 4.41667 km/h
1490 22-09-2015 14:00:00 13.93333 C 11.15 g/m*3 13.93 C 2.14167 km/h
1491 22-09-2015 15:00:00 15.65833 C 11.54 g/m*3 15.66 C 6.44167 km/h
1492 22-09-2015 16:00:00 16.33333 C 11.58 g/m*3 16.33 C 3.06667 km/h
1493 22-09-2015 17:00:00 14.70833 C 11.59 g/m*3 14.71 C 0.4 km/h
1494 22-09-2015 18:00:00 13.74167 C 11.16 g/m*3 13.74 C 0.53333 km/h
1495 22-09-2015 19:00:00 12.75833 C 10.47 g/m*3 12.76 C 1.6 km/h
1496 22-09-2015 20:00:00 11.425 C 9.66 g/m*3 11.43 C 2 km/h
1497 22-09-2015 21:00:00 10.86667 C 9.35 g/m*3 10.87 C 2.13333 km/h
1498 22-09-2015 22:00:00 10.36667 C 9.14 g/m*3 10.37 C 0.4 km/h
1499 22-09-2015 23:00:00 9.84167 C 8.91 g/m*3 9.84 C 0.13333 km/h
1500 23-09-2015 00:00:00 9.875 C 8.95 g/m*3 9.88 C 0.93333 km/h
Sensor: Nr:Datum:Temp:Abs-Feuchte:Windchill:Wind:
Aussen-T/F 1501 23-09-2015 01:00:00 10.06667 C 9.06 g/m*3 10.07 C 0.4 km/h
1502 23-09-2015 02:00:00 10.25 C 9.05 g/m*3 10.25 C 0.53333 km/h
1503 23-09-2015 03:00:00 10.15833 C 9.07 g/m*3 10.16 C 0 km/h
1504 23-09-2015 04:00:00 10.28333 C 9.18 g/m*3 10.28 C 0 km/h
1505 23-09-2015 05:00:00 10.275 C 9.18 g/m*3 10.28 C 0.26667 km/h
1506 23-09-2015 06:00:00 10.48333 C 9.19 g/m*3 10.48 C 0.93333 km/h
1507 23-09-2015 07:00:00 10.69167 C 9.23 g/m*3 10.69 C 1.73333 km/h
1508 23-09-2015 08:00:00 10.80833 C 9.26 g/m*3 10.81 C 2.26667 km/h
1509 23-09-2015 09:00:00 11.225 C 9.38 g/m*3 11.23 C 3.75 km/h
1510 23-09-2015 10:00:00 11.825 C 9.63 g/m*3 11.83 C 3.46667 km/h
1511 23-09-2015 11:00:00 12.44167 C 10.11 g/m*3 12.44 C 4.40833 km/h
1512 23-09-2015 12:00:00 13.65 C 10.54 g/m*3 13.65 C 4.95 km/h
1513 23-09-2015 13:00:00 14.35 C 10.67 g/m*3 14.35 C 12.1 km/h
1514 23-09-2015 14:00:00 14.45833 C 10.7 g/m*3 14.46 C 11.83333 km/h
1515 23-09-2015 15:00:00 13.76667 C 10.78 g/m*3 13.77 C 10.75833 km/h
1516 23-09-2015 16:00:00 13.44167 C 10.76 g/m*3 13.44 C 6.85833 km/h
1517 23-09-2015 17:00:00 12.95833 C 10.57 g/m*3 12.96 C 7.51667 km/h
1518 23-09-2015 18:00:00 12.89167 C 10.59 g/m*3 12.89 C 4.69167 km/h
1519 23-09-2015 19:00:00 12.8 C 10.53 g/m*3 12.8 C 3.20833 km/h
1520 23-09-2015 20:00:00 12.74167 C 10.48 g/m*3 12.74 C 0.53333 km/h
1521 23-09-2015 21:00:00 12.45 C 10.36 g/m*3 12.45 C 0.8 km/h
1522 23-09-2015 22:00:00 12.25 C 10.34 g/m*3 12.25 C 0.8 km/h
1523 23-09-2015 23:00:00 12.06667 C 10.27 g/m*3 12.07 C 2.01667 km/h
1524 24-09-2015 00:00:00 12.05833 C 10.27 g/m*3 12.06 C 0.4 km/h
1525 24-09-2015 01:00:00 12.1 C 10.31 g/m*3 12.1 C 0 km/h
Sensor: Nr:Datum:Temp:Abs-Feuchte:Windchill:Wind:
Aussen-T/F 1526 24-09-2015 02:00:00 11.86667 C 10.17 g/m*3 11.87 C 0 km/h
1527 24-09-2015 03:00:00 11.34167 C 9.82 g/m*3 11.34 C 0 km/h
1528 24-09-2015 04:00:00 11.025 C 9.62 g/m*3 11.03 C 0.13333 km/h
1529 24-09-2015 05:00:00 10.30833 C 9.2 g/m*3 10.31 C 0.13333 km/h
1530 24-09-2015 06:00:00 10.05833 C 9.07 g/m*3 10.06 C 0 km/h
1531 24-09-2015 07:00:00 10.18333 C 9.2 g/m*3 10.18 C 0 km/h
1532 24-09-2015 08:00:00 10.30833 C 9.29 g/m*3 10.31 C 0 km/h
1533 24-09-2015 09:00:00 10.275 C 9.24 g/m*3 10.28 C 0 km/h
1534 24-09-2015 10:00:00 11.5 C 10.02 g/m*3 11.5 C 0 km/h
1535 24-09-2015 11:00:00 13.06667 C 11.03 g/m*3 13.07 C 1.2 km/h
1536 24-09-2015 12:00:00 14.55833 C 11.11 g/m*3 14.56 C 6.70833 km/h
1537 24-09-2015 13:00:00 16.69167 C 10.8 g/m*3 16.69 C 12.35833 km/h
1538 24-09-2015 14:00:00 16.93333 C 10.99 g/m*3 16.93 C 9.25833 km/h
1539 24-09-2015 15:00:00 17.86667 C 11.05 g/m*3 17.87 C 4.94167 km/h
1540 24-09-2015 16:00:00 17.29167 C 11.57 g/m*3 17.29 C 3.34167 km/h
1541 24-09-2015 17:00:00 16.78333 C 11.72 g/m*3 16.78 C 4.43333 km/h
1542 24-09-2015 18:00:00 15.24167 C 11.46 g/m*3 15.24 C 0.53333 km/h
1543 24-09-2015 19:00:00 13.66667 C 10.77 g/m*3 13.67 C 1.06667 km/h
1544 24-09-2015 20:00:00 12.79167 C 10.39 g/m*3 12.79 C 1.6 km/h
1545 24-09-2015 21:00:00 12.70833 C 10.35 g/m*3 12.71 C 0.13333 km/h
1546 24-09-2015 22:00:00 12.65 C 10.43 g/m*3 12.65 C 0 km/h
1547 24-09-2015 23:00:00 13.03333 C 10.48 g/m*3 13.03 C 1.6 km/h
1548 25-09-2015 00:00:00 13.21667 C 10.53 g/m*3 13.22 C 0.4 km/h
1549 25-09-2015 01:00:00 13.225 C 10.58 g/m*3 13.23 C 0.26667 km/h
1550 25-09-2015 02:00:00 13.40833 C 10.62 g/m*3 13.41 C 0 km/h
Sensor: Nr:Datum:Temp:Abs-Feuchte:Windchill:Wind:
Aussen-T/F 1551 25-09-2015 03:00:00 13.16667 C 10.55 g/m*3 13.17 C 0.26667 km/h
1552 25-09-2015 04:00:00 13.20833 C 10.41 g/m*3 13.21 C 0.8 km/h
1553 25-09-2015 05:00:00 12.29167 C 10.17 g/m*3 12.29 C 0.13333 km/h
1554 25-09-2015 06:00:00 12.48333 C 10.31 g/m*3 12.48 C 0.26667 km/h
1555 25-09-2015 07:00:00 11.30833 C 9.64 g/m*3 11.31 C 0.13333 km/h
1556 25-09-2015 08:00:00 10.98333 C 9.57 g/m*3 10.98 C 0.13333 km/h
1557 25-09-2015 09:00:00 12.21667 C 10.33 g/m*3 12.22 C 1.06667 km/h
1558 25-09-2015 10:00:00 12.85 C 10.48 g/m*3 12.85 C 0 km/h
1559 25-09-2015 11:00:00 13.84167 C 10.51 g/m*3 13.84 C 0.66667 km/h
1560 25-09-2015 12:00:00 14.59167 C 10.77 g/m*3 14.59 C 0.53333 km/h
1561 25-09-2015 13:00:00 16.975 C 10.73 g/m*3 16.98 C 2.13333 km/h
1562 25-09-2015 14:00:00 16.73333 C 10.76 g/m*3 16.73 C 2.15 km/h
1563 25-09-2015 15:00:00 18.2 C 9.62 g/m*3 18.2 C 8.34167 km/h
1564 25-09-2015 16:00:00 17.59167 C 10.27 g/m*3 17.59 C 2.94167 km/h
1565 25-09-2015 17:00:00 15.925 C 11.22 g/m*3 15.93 C 0.13333 km/h
1566 25-09-2015 18:00:00 15.175 C 10.72 g/m*3 15.18 C 2.00833 km/h
1567 25-09-2015 19:00:00 14.5 C 10.61 g/m*3 14.5 C 0.66667 km/h
1568 25-09-2015 20:00:00 13.53333 C 10.63 g/m*3 13.53 C 0 km/h
1569 25-09-2015 21:00:00 13.30833 C 10.55 g/m*3 13.31 C 0 km/h
1570 25-09-2015 22:00:00 13.19167 C 10.44 g/m*3 13.19 C 0.26667 km/h
1571 25-09-2015 23:00:00 12.94167 C 10.29 g/m*3 12.94 C 0 km/h
1572 26-09-2015 00:00:00 12.6 C 10.03 g/m*3 12.6 C 0 km/h
1573 26-09-2015 01:00:00 12.21667 C 9.85 g/m*3 12.22 C 0 km/h
1574 26-09-2015 02:00:00 11.95833 C 9.69 g/m*3 11.96 C 0 km/h
1575 26-09-2015 03:00:00 11.55833 C 9.45 g/m*3 11.56 C 0.26667 km/h
Sensor: Nr:Datum:Temp:Abs-Feuchte:Windchill:Wind:
Aussen-T/F 1576 26-09-2015 04:00:00 11.25 C 9.33 g/m*3 11.25 C 0 km/h
1577 26-09-2015 05:00:00 11.125 C 9.34 g/m*3 11.13 C 0 km/h
1578 26-09-2015 06:00:00 11.075 C 9.32 g/m*3 11.08 C 0 km/h
1579 26-09-2015 07:00:00 10.80833 C 9.21 g/m*3 10.81 C 0 km/h
1580 26-09-2015 08:00:00 11.10833 C 9.42 g/m*3 11.11 C 0.26667 km/h
1581 26-09-2015 09:00:00 12.00833 C 9.72 g/m*3 12.01 C 0.53333 km/h
1582 26-09-2015 10:00:00 13.08333 C 10.1 g/m*3 13.08 C 1.73333 km/h
1583 26-09-2015 11:00:00 14.04167 C 10.38 g/m*3 14.04 C 6.15 km/h
1584 26-09-2015 12:00:00 14.63333 C 10.52 g/m*3 14.63 C 3.73333 km/h
1585 26-09-2015 13:00:00 15.525 C 10.71 g/m*3 15.53 C 2.4 km/h
1586 26-09-2015 14:00:00 15.58333 C 10.6 g/m*3 15.58 C 3.06667 km/h
1587 26-09-2015 15:00:00 14.34167 C 10.89 g/m*3 14.34 C 1.46667 km/h
1588 26-09-2015 16:00:00 15.075 C 10.73 g/m*3 15.08 C 6.29167 km/h
1589 26-09-2015 17:00:00 14.625 C 10.51 g/m*3 14.63 C 4.15 km/h
1590 26-09-2015 18:00:00 13.75 C 10.62 g/m*3 13.75 C 0.53333 km/h
1591 26-09-2015 19:00:00 13.06667 C 10.26 g/m*3 13.07 C 0 km/h
1592 26-09-2015 20:00:00 12.08333 C 9.77 g/m*3 12.08 C 0.26667 km/h
1593 26-09-2015 21:00:00 11.65 C 9.67 g/m*3 11.65 C 0 km/h
1594 26-09-2015 22:00:00 11.36667 C 9.42 g/m*3 11.37 C 0 km/h
1595 26-09-2015 23:00:00 11.2 C 9.33 g/m*3 11.2 C 0 km/h
1596 27-09-2015 00:00:00 10.925 C 9.15 g/m*3 10.93 C 0.13333 km/h
1597 27-09-2015 01:00:00 10.49167 C 8.81 g/m*3 10.49 C 0.13333 km/h
1598 27-09-2015 02:00:00 9.925 C 8.53 g/m*3 9.93 C 0 km/h
1599 27-09-2015 03:00:00 9.24167 C 8.28 g/m*3 9.24 C 0 km/h
1600 27-09-2015 04:00:00 8.53333 C 8.03 g/m*3 8.53 C 0 km/h
Sensor: Nr:Datum:Temp:Abs-Feuchte:Windchill:Wind:
Aussen-T/F 1601 27-09-2015 05:00:00 7.975 C 7.81 g/m*3 7.98 C 0 km/h
1602 27-09-2015 06:00:00 7.53333 C 7.62 g/m*3 7.53 C 0 km/h
1603 27-09-2015 07:00:00 7.15 C 7.46 g/m*3 7.15 C 0 km/h
1604 27-09-2015 08:00:00 7.18333 C 7.53 g/m*3 7.18 C 0 km/h
1605 27-09-2015 09:00:00 8 C 7.94 g/m*3 8 C 0 km/h
1606 27-09-2015 10:00:00 8.9 C 8.41 g/m*3 8.9 C 0 km/h
1607 27-09-2015 11:00:00 10.39167 C 9.16 g/m*3 10.39 C 0.13333 km/h
1608 27-09-2015 12:00:00 12.975 C 9.11 g/m*3 12.98 C 4.275 km/h
1609 27-09-2015 13:00:00 15.54167 C 8.56 g/m*3 15.54 C 5.76667 km/h
1610 27-09-2015 14:00:00 17.04167 C 8.49 g/m*3 17.04 C 10.21667 km/h
1611 27-09-2015 15:00:00 17.40833 C 8.55 g/m*3 17.41 C 12.09167 km/h
1612 27-09-2015 16:00:00 17.20833 C 8.61 g/m*3 17.21 C 7.39167 km/h
1613 27-09-2015 17:00:00 16.78333 C 8.76 g/m*3 16.78 C 5.09167 km/h
1614 27-09-2015 18:00:00 14.88333 C 9.19 g/m*3 14.88 C 0.53333 km/h
1615 27-09-2015 19:00:00 12.425 C 8.85 g/m*3 12.43 C 0.53333 km/h
1616 27-09-2015 20:00:00 11.40833 C 8.53 g/m*3 11.41 C 0.26667 km/h
1617 27-09-2015 21:00:00 10.24167 C 8.29 g/m*3 10.24 C 0 km/h
1618 27-09-2015 22:00:00 9.55 C 8.06 g/m*3 9.55 C 0 km/h
1619 27-09-2015 23:00:00 9.3 C 8.01 g/m*3 9.3 C 0.13333 km/h
1620 28-09-2015 00:00:00 9.075 C 7.91 g/m*3 9.07 C 0.4 km/h
1621 28-09-2015 01:00:00 8.525 C 7.72 g/m*3 8.53 C 0 km/h
1622 28-09-2015 02:00:00 7.74167 C 7.51 g/m*3 7.74 C 0 km/h
1623 28-09-2015 03:00:00 7.13333 C 7.32 g/m*3 7.13 C 0 km/h
1624 28-09-2015 04:00:00 6.71667 C 7.17 g/m*3 6.72 C 0 km/h
1625 28-09-2015 05:00:00 6.40833 C 7.08 g/m*3 6.41 C 0 km/h
Sensor: Nr:Datum:Temp:Abs-Feuchte:Windchill:Wind:
Aussen-T/F 1626 28-09-2015 06:00:00 6.075 C 6.93 g/m*3 6.08 C 0 km/h
1627 28-09-2015 07:00:00 5.625 C 6.74 g/m*3 5.63 C 0 km/h
1628 28-09-2015 08:00:00 5.71667 C 6.84 g/m*3 5.72 C 0 km/h
1629 28-09-2015 09:00:00 6.48333 C 7.2 g/m*3 6.48 C 0 km/h
1630 28-09-2015 10:00:00 7.73333 C 7.84 g/m*3 7.73 C 0 km/h
1631 28-09-2015 11:00:00 9.41667 C 8.71 g/m*3 9.42 C 0.13333 km/h
1632 28-09-2015 12:00:00 11.94167 C 9.19 g/m*3 11.94 C 4.01667 km/h
1633 28-09-2015 13:00:00 16.325 C 8.48 g/m*3 16.33 C 10.61667 km/h
1634 28-09-2015 14:00:00 16.98333 C 8.13 g/m*3 16.98 C 10.89167 km/h
1635 28-09-2015 15:00:00 17.30833 C 8.25 g/m*3 17.31 C 8.06667 km/h
1636 28-09-2015 16:00:00 17.65 C 7.97 g/m*3 17.65 C 6.7 km/h
1637 28-09-2015 17:00:00 17.00833 C 7.94 g/m*3 17.01 C 7.65833 km/h
1638 28-09-2015 18:00:00 15.59167 C 8.52 g/m*3 15.59 C 3.20833 km/h
1639 28-09-2015 19:00:00 12.51667 C 8.48 g/m*3 12.52 C 1.46667 km/h
1640 28-09-2015 20:00:00 11.35833 C 8.28 g/m*3 11.36 C 0.93333 km/h
1641 28-09-2015 21:00:00 10.325 C 8.12 g/m*3 10.33 C 0 km/h
1642 28-09-2015 22:00:00 9.65 C 8.04 g/m*3 9.65 C 0 km/h
1643 28-09-2015 23:00:00 8.86667 C 7.83 g/m*3 8.87 C 0 km/h
1644 29-09-2015 00:00:00 8.31667 C 7.75 g/m*3 8.32 C 0.13333 km/h
1645 29-09-2015 01:00:00 7.8 C 7.54 g/m*3 7.8 C 0 km/h
1646 29-09-2015 02:00:00 7.23333 C 7.37 g/m*3 7.23 C 0 km/h
1647 29-09-2015 03:00:00 6.80833 C 7.22 g/m*3 6.81 C 0 km/h
1648 29-09-2015 04:00:00 6.6 C 7.17 g/m*3 6.6 C 0 km/h
1649 29-09-2015 05:00:00 6.45 C 7.11 g/m*3 6.45 C 0 km/h
1650 29-09-2015 06:00:00 6.4 C 7.1 g/m*3 6.4 C 0 km/h
Sensor: Nr:Datum:Temp:Abs-Feuchte:Windchill:Wind:
Aussen-T/F 1651 29-09-2015 07:00:00 6.41667 C 7.12 g/m*3 6.42 C 0 km/h
1652 29-09-2015 08:00:00 6.78333 C 7.33 g/m*3 6.78 C 0 km/h
1653 29-09-2015 09:00:00 7.5 C 7.68 g/m*3 7.5 C 0 km/h
1654 29-09-2015 10:00:00 8.85 C 8.33 g/m*3 8.85 C 0.8 km/h
1655 29-09-2015 11:00:00 11.55 C 8.93 g/m*3 11.55 C 3.6 km/h
1656 29-09-2015 12:00:00 14 C 8.67 g/m*3 14 C 8.48333 km/h
1657 29-09-2015 13:00:00 16.475 C 8.73 g/m*3 16.48 C 11.15 km/h
1658 29-09-2015 14:00:00 16.98333 C 8.59 g/m*3 16.98 C 10.35 km/h
1659 29-09-2015 15:00:00 16.96667 C 8.69 g/m*3 16.97 C 9.675 km/h
1660 29-09-2015 16:00:00 17.41667 C 8.44 g/m*3 17.42 C 10.725 km/h
1661 29-09-2015 17:00:00 16.60833 C 8.44 g/m*3 16.61 C 10.75 km/h
1662 29-09-2015 18:00:00 15.575 C 8.65 g/m*3 15.58 C 2.4 km/h
1663 29-09-2015 19:00:00 13.28333 C 8.33 g/m*3 13.28 C 1.46667 km/h
1664 29-09-2015 20:00:00 11.78333 C 8.17 g/m*3 11.78 C 1.73333 km/h
1665 29-09-2015 21:00:00 11.55 C 8.11 g/m*3 11.55 C 1.73333 km/h
1666 29-09-2015 22:00:00 10.95 C 8 g/m*3 10.95 C 2.4 km/h
1667 29-09-2015 23:00:00 10.975 C 7.87 g/m*3 10.98 C 2.66667 km/h
1668 30-09-2015 00:00:00 9.84167 C 7.68 g/m*3 9.84 C 0.66667 km/h
1669 30-09-2015 01:00:00 8.89167 C 7.55 g/m*3 8.89 C 0.13333 km/h
1670 30-09-2015 02:00:00 8.45833 C 7.5 g/m*3 8.46 C 0.13333 km/h
1671 30-09-2015 03:00:00 8.05833 C 7.41 g/m*3 8.06 C 0 km/h
1672 30-09-2015 04:00:00 7.775 C 7.37 g/m*3 7.78 C 0.13333 km/h
1673 30-09-2015 05:00:00 7.4 C 7.26 g/m*3 7.4 C 0.13333 km/h
1674 30-09-2015 06:00:00 7.025 C 7.16 g/m*3 7.03 C 0.13333 km/h
1675 30-09-2015 07:00:00 6.50833 C 6.98 g/m*3 6.51 C 0.13333 km/h
Sensor: Nr:Datum:Temp:Abs-Feuchte:Windchill:Wind:
Aussen-T/F 1676 30-09-2015 08:00:00 6.425 C 7.01 g/m*3 6.43 C 0 km/h
1677 30-09-2015 09:00:00 7.08333 C 7.32 g/m*3 7.08 C 0 km/h
1678 30-09-2015 10:00:00 8.06667 C 7.71 g/m*3 8.07 C 0.26667 km/h
1679 30-09-2015 11:00:00 9.95 C 8.23 g/m*3 9.95 C 2 km/h
1680 30-09-2015 12:00:00 13.16667 C 7.78 g/m*3 13.17 C 7.50833 km/h
1681 30-09-2015 13:00:00 15.65 C 7.99 g/m*3 15.65 C 12.36667 km/h
1682 30-09-2015 14:00:00 16.3 C 7.91 g/m*3 16.3 C 11.94167 km/h
1683 30-09-2015 15:00:00 16.55833 C 7.84 g/m*3 16.56 C 16.63333 km/h
1684 30-09-2015 16:00:00 16.30833 C 7.76 g/m*3 16.31 C 8.31667 km/h
1685 30-09-2015 17:00:00 16.25 C 7.54 g/m*3 16.25 C 11.825 km/h
1686 30-09-2015 18:00:00 15.4 C 7.78 g/m*3 15.4 C 4.83333 km/h
1687 30-09-2015 19:00:00 12.09167 C 7.59 g/m*3 12.09 C 0.93333 km/h
1688 30-09-2015 20:00:00 10.825 C 7.47 g/m*3 10.83 C 1.33333 km/h
1689 30-09-2015 21:00:00 10.20833 C 7.33 g/m*3 10.21 C 1.2 km/h
1690 30-09-2015 22:00:00 9.95 C 7.2 g/m*3 9.95 C 1.06667 km/h
1691 30-09-2015 23:00:00 9.41667 C 7.02 g/m*3 9.42 C 0.8 km/h
1692 01-10-2015 00:00:00 9.06667 C 6.94 g/m*3 9.07 C 0.66667 km/h
1693 01-10-2015 01:00:00 7.98333 C 6.77 g/m*3 7.98 C 0.4 km/h
1694 01-10-2015 02:00:00 7.3 C 6.62 g/m*3 7.3 C 0.8 km/h
1695 01-10-2015 03:00:00 7.225 C 6.58 g/m*3 7.23 C 0.66667 km/h
1696 01-10-2015 04:00:00 6.55833 C 6.48 g/m*3 6.56 C 0.13333 km/h
1697 01-10-2015 05:00:00 6.03333 C 6.41 g/m*3 6.03 C 0 km/h
1698 01-10-2015 06:00:00 5.96667 C 6.41 g/m*3 5.97 C 0.8 km/h
1699 01-10-2015 07:00:00 5.69167 C 6.35 g/m*3 5.69 C 1.06667 km/h
1700 01-10-2015 08:00:00 5.51667 C 6.33 g/m*3 5.52 C 0 km/h
Sensor: Nr:Datum:Temp:Abs-Feuchte:Windchill:Wind:
Aussen-T/F 1701 01-10-2015 09:00:00 6.15 C 6.61 g/m*3 6.15 C 0.26667 km/h
1702 01-10-2015 10:00:00 7.6 C 6.92 g/m*3 7.6 C 2.66667 km/h
1703 01-10-2015 11:00:00 10.48333 C 6.77 g/m*3 10.05 C 5.9 km/h
1704 01-10-2015 12:00:00 11.81667 C 6.77 g/m*3 11.82 C 5.75833 km/h
1705 01-10-2015 13:00:00 14.525 C 6.84 g/m*3 14.53 C 9.53333 km/h
1706 01-10-2015 14:00:00 15.16667 C 6.75 g/m*3 15.17 C 12.75833 km/h
1707 01-10-2015 15:00:00 15.58333 C 6.95 g/m*3 15.58 C 13.03333 km/h
1708 01-10-2015 16:00:00 16.06667 C 6.9 g/m*3 16.07 C 11.28333 km/h
1709 01-10-2015 17:00:00 15.70833 C 7.07 g/m*3 15.71 C 7.10833 km/h
1710 01-10-2015 18:00:00 13.65 C 7.92 g/m*3 13.65 C 1.86667 km/h
1711 01-10-2015 19:00:00 11.25 C 7.61 g/m*3 11.25 C 1.73333 km/h
1712 01-10-2015 20:00:00 10.1 C 7.31 g/m*3 10.1 C 0.93333 km/h
1713 01-10-2015 21:00:00 9.425 C 7.08 g/m*3 9.43 C 1.2 km/h
1714 01-10-2015 22:00:00 9.49167 C 7.01 g/m*3 9.49 C 1.86667 km/h
1715 01-10-2015 23:00:00 8.91667 C 6.95 g/m*3 8.92 C 0.8 km/h
1716 02-10-2015 00:00:00 7.675 C 6.79 g/m*3 7.68 C 0 km/h
1717 02-10-2015 01:00:00 6.73333 C 6.62 g/m*3 6.73 C 0 km/h
1718 02-10-2015 02:00:00 5.94167 C 6.45 g/m*3 5.94 C 0 km/h
1719 02-10-2015 03:00:00 5.28333 C 6.32 g/m*3 5.28 C 0 km/h
1720 02-10-2015 04:00:00 4.8 C 6.2 g/m*3 4.8 C 0.26667 km/h
1721 02-10-2015 05:00:00 4.28333 C 6.06 g/m*3 4.28 C 0 km/h
1722 02-10-2015 06:00:00 3.81667 C 5.91 g/m*3 3.82 C 0 km/h
1723 02-10-2015 07:00:00 3.59167 C 5.88 g/m*3 3.59 C 0 km/h
1724 02-10-2015 08:00:00 3.74167 C 5.96 g/m*3 3.74 C 0 km/h
1725 02-10-2015 09:00:00 4.3 C 6.21 g/m*3 4.3 C 0 km/h
Sensor: Nr:Datum:Temp:Abs-Feuchte:Windchill:Wind:
Aussen-T/F 1726 02-10-2015 10:00:00 5.75 C 6.85 g/m*3 5.75 C 0 km/h
1727 02-10-2015 11:00:00 7.45833 C 7.58 g/m*3 7.46 C 0 km/h
1728 02-10-2015 12:00:00 9.34167 C 8.24 g/m*3 9.34 C 0 km/h
1729 02-10-2015 13:00:00 12.90833 C 9.34 g/m*3 12.91 C 1.46667 km/h
1730 02-10-2015 14:00:00 14.53333 C 9.72 g/m*3 14.53 C 1.33333 km/h
1731 02-10-2015 15:00:00 15.95833 C 9.33 g/m*3 15.96 C 4.83333 km/h
1732 02-10-2015 16:00:00 17.75 C 9.02 g/m*3 17.75 C 4.40833 km/h
1733 02-10-2015 17:00:00 15.84167 C 9.41 g/m*3 15.84 C 3.33333 km/h
1734 02-10-2015 18:00:00 14.49167 C 9.52 g/m*3 14.49 C 2.26667 km/h
1735 02-10-2015 19:00:00 12.975 C 8.9 g/m*3 12.98 C 2.26667 km/h
1736 02-10-2015 20:00:00 12 C 8.6 g/m*3 12 C 1.46667 km/h
1737 02-10-2015 21:00:00 11.425 C 8.44 g/m*3 11.43 C 0.4 km/h
1738 02-10-2015 22:00:00 10.7 C 8.19 g/m*3 10.7 C 0.4 km/h
1739 02-10-2015 23:00:00 9.86667 C 7.9 g/m*3 9.87 C 0.26667 km/h
1740 03-10-2015 00:00:00 9.225 C 7.76 g/m*3 9.23 C 0 km/h
1741 03-10-2015 01:00:00 8.65833 C 7.69 g/m*3 8.66 C 0.13333 km/h
1742 03-10-2015 02:00:00 8.4 C 7.72 g/m*3 8.4 C 0.26667 km/h
1743 03-10-2015 03:00:00 8.19167 C 7.65 g/m*3 8.19 C 0 km/h
1744 03-10-2015 04:00:00 7.50833 C 7.41 g/m*3 7.51 C 0 km/h
1745 03-10-2015 05:00:00 7.06667 C 7.24 g/m*3 7.07 C 0 km/h
1746 03-10-2015 06:00:00 6.70833 C 7.15 g/m*3 6.71 C 0 km/h
1747 03-10-2015 07:00:00 6.41667 C 7.07 g/m*3 6.42 C 0.13333 km/h
1748 03-10-2015 08:00:00 6.45 C 7.1 g/m*3 6.45 C 0 km/h
1749 03-10-2015 09:00:00 7.11667 C 7.44 g/m*3 7.12 C 0 km/h
1750 03-10-2015 10:00:00 8.31667 C 7.99 g/m*3 8.32 C 0.66667 km/h
Sensor: Nr:Datum:Temp:Abs-Feuchte:Windchill:Wind:
Aussen-T/F 1751 03-10-2015 11:00:00 9.875 C 8.66 g/m*3 9.88 C 0 km/h
1752 03-10-2015 12:00:00 11.68333 C 9.52 g/m*3 11.68 C 0.53333 km/h
1753 03-10-2015 13:00:00 15.925 C 10.76 g/m*3 15.93 C 4.15833 km/h
1754 03-10-2015 14:00:00 18.15 C 10.56 g/m*3 18.15 C 6.43333 km/h
1755 03-10-2015 15:00:00 19.25833 C 10.42 g/m*3 19.26 C 6.725 km/h
1756 03-10-2015 16:00:00 18.80833 C 11.14 g/m*3 18.81 C 3.60833 km/h
1757 03-10-2015 17:00:00 17.83333 C 10.14 g/m*3 17.83 C 3.875 km/h
1758 03-10-2015 18:00:00 15.975 C 10.37 g/m*3 15.98 C 1.73333 km/h
1759 03-10-2015 19:00:00 14.66667 C 10.11 g/m*3 14.67 C 1.73333 km/h
1760 03-10-2015 20:00:00 13.18333 C 9.85 g/m*3 13.18 C 0.26667 km/h
1761 03-10-2015 21:00:00 12.16667 C 9.49 g/m*3 12.17 C 0.13333 km/h
1762 03-10-2015 22:00:00 11.39167 C 9.33 g/m*3 11.39 C 0 km/h
1763 03-10-2015 23:00:00 10.65833 C 9 g/m*3 10.66 C 0.13333 km/h
1764 04-10-2015 00:00:00 10.25833 C 8.91 g/m*3 10.26 C 0 km/h
1765 04-10-2015 01:00:00 10.08333 C 8.88 g/m*3 10.08 C 0.53333 km/h
1766 04-10-2015 02:00:00 9.80833 C 8.75 g/m*3 9.81 C 0 km/h
1767 04-10-2015 03:00:00 9.73333 C 8.78 g/m*3 9.73 C 0 km/h
1768 04-10-2015 04:00:00 9.55 C 8.67 g/m*3 9.55 C 0 km/h
1769 04-10-2015 05:00:00 9.79167 C 8.87 g/m*3 9.79 C 0.13333 km/h
1770 04-10-2015 06:00:00 10.18333 C 9.13 g/m*3 10.18 C 1.2 km/h
1771 04-10-2015 07:00:00 11.325 C 9.81 g/m*3 11.33 C 0.66667 km/h
1772 04-10-2015 08:00:00 11.75833 C 10.08 g/m*3 11.76 C 0.13333 km/h
1773 04-10-2015 09:00:00 12.45833 C 10.6 g/m*3 12.46 C 0.93333 km/h
1774 04-10-2015 10:00:00 13.29167 C 11.14 g/m*3 13.29 C 0.26667 km/h
1775 04-10-2015 11:00:00 14.46667 C 11.83 g/m*3 14.47 C 1.86667 km/h
Sensor: Nr:Datum:Temp:Abs-Feuchte:Windchill:Wind:
Aussen-T/F 1776 04-10-2015 12:00:00 15.95 C 12.09 g/m*3 15.95 C 8.20833 km/h
1777 04-10-2015 13:00:00 16.45833 C 11.59 g/m*3 16.46 C 9.01667 km/h
1778 04-10-2015 14:00:00 16.525 C 11.6 g/m*3 16.52 C 8.20833 km/h
1779 04-10-2015 15:00:00 17.10833 C 11.44 g/m*3 17.11 C 8.19167 km/h
1780 04-10-2015 16:00:00 16.96667 C 11.34 g/m*3 16.97 C 5.65 km/h
1781 04-10-2015 17:00:00 15.325 C 11.45 g/m*3 15.33 C 0.66667 km/h
1782 04-10-2015 18:00:00 14.94167 C 11.36 g/m*3 14.94 C 0.26667 km/h
1783 04-10-2015 19:00:00 13.525 C 10.6 g/m*3 13.53 C 1.06667 km/h
1784 04-10-2015 20:00:00 12.4 C 10.03 g/m*3 12.4 C 0.4 km/h
1785 04-10-2015 21:00:00 11.08333 C 9.32 g/m*3 11.08 C 0.13333 km/h
1786 04-10-2015 22:00:00 10.175 C 8.97 g/m*3 10.18 C 0 km/h
1787 04-10-2015 23:00:00 9.60833 C 8.71 g/m*3 9.61 C 0 km/h
1788 05-10-2015 00:00:00 9.04167 C 8.45 g/m*3 9.04 C 0 km/h
1789 05-10-2015 01:00:00 8.81667 C 8.36 g/m*3 8.82 C 0 km/h
1790 05-10-2015 02:00:00 8.66667 C 8.28 g/m*3 8.67 C 0 km/h
1791 05-10-2015 03:00:00 8.73333 C 8.36 g/m*3 8.73 C 0 km/h
1792 05-10-2015 04:00:00 8.9 C 8.5 g/m*3 8.9 C 0 km/h
1793 05-10-2015 05:00:00 9.26667 C 8.7 g/m*3 9.27 C 0.13333 km/h
1794 05-10-2015 06:00:00 9.15 C 8.63 g/m*3 9.15 C 0.26667 km/h
1795 05-10-2015 07:00:00 8.79167 C 8.44 g/m*3 8.79 C 0.66667 km/h
1796 05-10-2015 08:00:00 8.40833 C 8.23 g/m*3 8.41 C 2.53333 km/h
1797 05-10-2015 09:00:00 9.15 C 8.64 g/m*3 9.15 C 0 km/h
1798 05-10-2015 10:00:00 11.19167 C 9.89 g/m*3 11.19 C 1.6 km/h
1799 05-10-2015 11:00:00 13.28333 C 10.82 g/m*3 13.28 C 3.60833 km/h
1800 05-10-2015 12:00:00 15.20833 C 10.82 g/m*3 15.21 C 5.49167 km/h
Sensor: Nr:Datum:Temp:Abs-Feuchte:Windchill:Wind:
Aussen-T/F 1801 05-10-2015 13:00:00 15.43333 C 10.62 g/m*3 15.43 C 8.45833 km/h
1802 05-10-2015 14:00:00 15.31667 C 10.6 g/m*3 15.32 C 7.775 km/h
1803 05-10-2015 15:00:00 15.275 C 10.79 g/m*3 15.28 C 6.96667 km/h
1804 05-10-2015 16:00:00 15.34167 C 10.94 g/m*3 15.34 C 2.66667 km/h
1805 05-10-2015 17:00:00 15.625 C 11.31 g/m*3 15.63 C 0.93333 km/h
1806 05-10-2015 18:00:00 14.54167 C 11.24 g/m*3 14.54 C 0 km/h
1807 05-10-2015 19:00:00 13.51667 C 10.85 g/m*3 13.52 C 0 km/h
1808 05-10-2015 20:00:00 13.36667 C 10.9 g/m*3 13.37 C 0 km/h
1809 05-10-2015 21:00:00 13.53333 C 11.12 g/m*3 13.53 C 0 km/h
1810 05-10-2015 22:00:00 13.325 C 11.11 g/m*3 13.33 C 0 km/h
1811 05-10-2015 23:00:00 13.3 C 11.09 g/m*3 13.3 C 0 km/h
1812 06-10-2015 00:00:00 13.35 C 11.21 g/m*3 13.35 C 0 km/h
1813 06-10-2015 01:00:00 13.51667 C 11.36 g/m*3 13.52 C 0.93333 km/h
1814 06-10-2015 02:00:00 14.26667 C 11.89 g/m*3 14.27 C 6.29167 km/h
1815 06-10-2015 03:00:00 14.525 C 12 g/m*3 14.53 C 2.675 km/h
1816 06-10-2015 04:00:00 14.44167 C 11.9 g/m*3 14.44 C 0.13333 km/h
1817 06-10-2015 05:00:00 14.60833 C 12.13 g/m*3 14.61 C 0.26667 km/h
1818 06-10-2015 06:00:00 15 C 12.44 g/m*3 15 C 0 km/h
1819 06-10-2015 07:00:00 15.11667 C 12.53 g/m*3 15.12 C 0 km/h
1820 06-10-2015 08:00:00 15.3 C 12.61 g/m*3 15.3 C 0 km/h
1821 06-10-2015 09:00:00 15.88333 C 13.06 g/m*3 15.88 C 0 km/h
1822 06-10-2015 10:00:00 16.65833 C 13.61 g/m*3 16.66 C 0 km/h
1823 06-10-2015 11:00:00 17.11667 C 13.9 g/m*3 17.12 C 0 km/h
1824 06-10-2015 12:00:00 18.30833 C 14.54 g/m*3 18.31 C 0 km/h
1825 06-10-2015 13:00:00 19.54167 C 14.65 g/m*3 19.54 C 0 km/h
Sensor: Nr:Datum:Temp:Abs-Feuchte:Windchill:Wind:
Aussen-T/F 1826 06-10-2015 14:00:00 19.29167 C 14.63 g/m*3 19.29 C 0 km/h
1827 06-10-2015 15:00:00 18.19167 C 14.64 g/m*3 18.19 C 0 km/h
1828 06-10-2015 16:00:00 18.23333 C 14.72 g/m*3 18.23 C 0 km/h
1829 06-10-2015 17:00:00 17.84167 C 14.33 g/m*3 17.84 C 0 km/h
1830 06-10-2015 18:00:00 16.69167 C 13.58 g/m*3 16.69 C 0 km/h
1831 06-10-2015 19:00:00 15.575 C 12.75 g/m*3 15.58 C 0 km/h
1832 06-10-2015 20:00:00 14.89167 C 12.27 g/m*3 14.89 C 0 km/h
1833 06-10-2015 21:00:00 14.75833 C 12.26 g/m*3 14.76 C 0 km/h
1834 06-10-2015 22:00:00 14.88333 C 12.35 g/m*3 14.88 C 0 km/h
1835 06-10-2015 23:00:00 14.53333 C 12.09 g/m*3 14.53 C 0 km/h
1836 07-10-2015 00:00:00 14.33333 C 11.94 g/m*3 14.33 C 0 km/h
1837 07-10-2015 01:00:00 14.24167 C 11.87 g/m*3 14.24 C 0 km/h
1838 07-10-2015 02:00:00 14.15833 C 11.81 g/m*3 14.16 C 0 km/h
1839 07-10-2015 03:00:00 14.1 C 11.81 g/m*3 14.1 C 0.13333 km/h
1840 07-10-2015 04:00:00 14 C 11.74 g/m*3 14 C 0.13333 km/h
1841 07-10-2015 05:00:00 14.05 C 11.84 g/m*3 14.05 C 0 km/h
1842 07-10-2015 06:00:00 14.18333 C 11.95 g/m*3 14.18 C 0 km/h
1843 07-10-2015 07:00:00 14.35833 C 12.06 g/m*3 14.36 C 0 km/h
1844 07-10-2015 08:00:00 14.275 C 11.91 g/m*3 14.28 C 0 km/h
1845 07-10-2015 09:00:00 14.88333 C 12.04 g/m*3 14.88 C 4.43333 km/h
1846 07-10-2015 10:00:00 15.6 C 11.74 g/m*3 15.6 C 13.7 km/h
1847 07-10-2015 11:00:00 15.54167 C 11.26 g/m*3 15.54 C 13.7 km/h
1848 07-10-2015 12:00:00 16.4 C 11.45 g/m*3 16.4 C 14.76667 km/h
1849 07-10-2015 13:00:00 17.01667 C 11.5 g/m*3 17.02 C 15.7 km/h
1850 07-10-2015 14:00:00 16.875 C 11.43 g/m*3 16.88 C 10.61667 km/h
Sensor: Nr:Datum:Temp:Abs-Feuchte:Windchill:Wind:
Aussen-T/F 1851 07-10-2015 15:00:00 16.74167 C 11.41 g/m*3 16.74 C 8.99167 km/h
1852 07-10-2015 16:00:00 16.58333 C 11.44 g/m*3 16.58 C 10.48333 km/h
1853 07-10-2015 17:00:00 16.05 C 11.27 g/m*3 16.05 C 9.53333 km/h
1854 07-10-2015 18:00:00 15.2 C 11.11 g/m*3 15.2 C 3.60833 km/h
1855 07-10-2015 19:00:00 14.79167 C 10.9 g/m*3 14.79 C 5.9 km/h
1856 07-10-2015 20:00:00 14.59167 C 10.73 g/m*3 14.59 C 4.28333 km/h
1857 07-10-2015 21:00:00 14.05 C 10.54 g/m*3 14.05 C 2.14167 km/h
1858 07-10-2015 22:00:00 13.93333 C 10.44 g/m*3 13.93 C 2.55 km/h
1859 07-10-2015 23:00:00 13.80833 C 10.27 g/m*3 13.81 C 3.06667 km/h
1860 08-10-2015 00:00:00 13.45 C 10.23 g/m*3 13.45 C 1.2 km/h
1861 08-10-2015 01:00:00 13.49167 C 10.23 g/m*3 13.49 C 3.20833 km/h
1862 08-10-2015 02:00:00 13.05 C 10.23 g/m*3 13.05 C 0.26667 km/h
1863 08-10-2015 03:00:00 12.65833 C 10.19 g/m*3 12.66 C 0.26667 km/h
1864 08-10-2015 04:00:00 12.40833 C 10.06 g/m*3 12.41 C 0 km/h
1865 08-10-2015 05:00:00 11.65 C 9.77 g/m*3 11.65 C 0 km/h
1866 08-10-2015 06:00:00 11.9 C 9.83 g/m*3 11.9 C 0.53333 km/h
1867 08-10-2015 07:00:00 11.70833 C 9.77 g/m*3 11.71 C 0.13333 km/h
1868 08-10-2015 08:00:00 11.625 C 9.79 g/m*3 11.63 C 0 km/h
1869 08-10-2015 09:00:00 12.38333 C 9.98 g/m*3 12.38 C 1.6 km/h
1870 08-10-2015 10:00:00 13.71667 C 10.11 g/m*3 13.72 C 6.18333 km/h
1871 08-10-2015 11:00:00 14.51667 C 10.01 g/m*3 14.52 C 6.45 km/h
1872 08-10-2015 12:00:00 15.34167 C 9.9 g/m*3 15.34 C 6.025 km/h
1873 08-10-2015 13:00:00 16.125 C 9.95 g/m*3 16.13 C 1.86667 km/h
1874 08-10-2015 14:00:00 16.04167 C 10.24 g/m*3 16.04 C 5.5 km/h
1875 08-10-2015 15:00:00 14.75 C 10.58 g/m*3 14.75 C 2.4 km/h
Sensor: Nr:Datum:Temp:Abs-Feuchte:Windchill:Wind:
Aussen-T/F 1876 08-10-2015 16:00:00 14.675 C 10.55 g/m*3 14.68 C 4.66667 km/h
1877 08-10-2015 17:00:00 14.51667 C 10.32 g/m*3 14.52 C 3.33333 km/h
1878 08-10-2015 18:00:00 13.89167 C 10.28 g/m*3 13.89 C 1.60833 km/h
1879 08-10-2015 19:00:00 13.475 C 10.09 g/m*3 13.48 C 4.40833 km/h
1880 08-10-2015 20:00:00 13.2 C 10.18 g/m*3 13.2 C 1.2 km/h
1881 08-10-2015 21:00:00 12.975 C 10.13 g/m*3 12.98 C 1.2 km/h
1882 08-10-2015 22:00:00 12.74167 C 10.14 g/m*3 12.74 C 0.66667 km/h
1883 08-10-2015 23:00:00 12.63333 C 10.12 g/m*3 12.63 C 0 km/h
1884 09-10-2015 00:00:00 12.56667 C 10.15 g/m*3 12.57 C 0 km/h
1885 09-10-2015 01:00:00 12.40833 C 10.16 g/m*3 12.41 C 0 km/h
1886 09-10-2015 02:00:00 12.24167 C 10.17 g/m*3 12.24 C 0 km/h
1887 09-10-2015 03:00:00 12.18333 C 10.13 g/m*3 12.18 C 0 km/h
1888 09-10-2015 04:00:00 12.10833 C 10.11 g/m*3 12.11 C 0 km/h
1889 09-10-2015 05:00:00 12.1 C 10.09 g/m*3 12.1 C 0 km/h
1890 09-10-2015 06:00:00 12.21667 C 10.06 g/m*3 12.22 C 0 km/h
1891 09-10-2015 07:00:00 12.18333 C 10.03 g/m*3 12.18 C 0 km/h
1892 09-10-2015 08:00:00 11.925 C 9.9 g/m*3 11.93 C 0 km/h
1893 09-10-2015 09:00:00 11.725 C 9.9 g/m*3 11.73 C 0 km/h
1894 09-10-2015 10:00:00 11.78333 C 9.94 g/m*3 11.78 C 0 km/h
1895 09-10-2015 11:00:00 11.675 C 9.71 g/m*3 11.68 C 0 km/h
1896 09-10-2015 12:00:00 12.19167 C 9.91 g/m*3 12.19 C 0 km/h
1897 09-10-2015 13:00:00 12.775 C 10.12 g/m*3 12.78 C 0 km/h
1898 09-10-2015 14:00:00 12.94167 C 10.1 g/m*3 12.94 C 0 km/h
1899 09-10-2015 15:00:00 12.98333 C 10.17 g/m*3 12.98 C 0 km/h
1900 09-10-2015 16:00:00 12.9 C 10.25 g/m*3 12.9 C 0 km/h
Sensor: Nr:Datum:Temp:Abs-Feuchte:Windchill:Wind:
Aussen-T/F 1901 09-10-2015 17:00:00 12.70833 C 10.32 g/m*3 12.71 C 0 km/h
1902 09-10-2015 18:00:00 12.425 C 10.33 g/m*3 12.43 C 0 km/h
1903 09-10-2015 19:00:00 12.21667 C 10.3 g/m*3 12.22 C 0 km/h
1904 09-10-2015 20:00:00 12.21667 C 10.37 g/m*3 12.22 C 0 km/h
1905 09-10-2015 21:00:00 12.225 C 10.38 g/m*3 12.23 C 0 km/h
1906 09-10-2015 22:00:00 12.20833 C 10.36 g/m*3 12.21 C 0 km/h
1907 09-10-2015 23:00:00 12.2 C 10.36 g/m*3 12.2 C 0 km/h
1908 10-10-2015 00:00:00 12.26667 C 10.4 g/m*3 12.27 C 0 km/h
1909 10-10-2015 01:00:00 12.26667 C 10.4 g/m*3 12.27 C 0 km/h
1910 10-10-2015 02:00:00 12.25 C 10.47 g/m*3 12.25 C 0 km/h
1911 10-10-2015 03:00:00 12.24167 C 10.49 g/m*3 12.24 C 0 km/h
1912 10-10-2015 04:00:00 12.20833 C 10.47 g/m*3 12.21 C 0 km/h
1913 10-10-2015 05:00:00 12.00833 C 10.32 g/m*3 12.01 C 0 km/h
1914 10-10-2015 06:00:00 11.8 C 10.21 g/m*3 11.8 C 0 km/h
1915 10-10-2015 07:00:00 11.85 C 10.24 g/m*3 11.85 C 0 km/h
1916 10-10-2015 08:00:00 12 C 10.33 g/m*3 12 C 0 km/h
1917 10-10-2015 09:00:00 11.95 C 10.09 g/m*3 11.95 C 0 km/h
1918 10-10-2015 10:00:00 12.71667 C 9.95 g/m*3 12.72 C 0 km/h
1919 10-10-2015 11:00:00 12.84167 C 9.84 g/m*3 12.84 C 0 km/h
1920 10-10-2015 12:00:00 12.71667 C 9.69 g/m*3 12.72 C 0 km/h
1921 10-10-2015 13:00:00 14 C 9.71 g/m*3 14 C 1.73333 km/h
1922 10-10-2015 14:00:00 14.7 C 9.71 g/m*3 14.7 C 3.21667 km/h
1923 10-10-2015 15:00:00 15.325 C 9.92 g/m*3 15.33 C 2.4 km/h
1924 10-10-2015 16:00:00 15.58333 C 9.01 g/m*3 15.58 C 4.29167 km/h
1925 10-10-2015 17:00:00 14.54167 C 8.81 g/m*3 14.54 C 1.74167 km/h
Sensor: Nr:Datum:Temp:Abs-Feuchte:Windchill:Wind:
Aussen-T/F 1926 10-10-2015 18:00:00 12.4 C 8.69 g/m*3 12.4 C 0 km/h
1927 10-10-2015 19:00:00 10.43333 C 8.02 g/m*3 10.43 C 0 km/h
1928 10-10-2015 20:00:00 9.40833 C 7.69 g/m*3 9.41 C 0 km/h
1929 10-10-2015 21:00:00 9.525 C 7.95 g/m*3 9.53 C 0 km/h
1930 10-10-2015 22:00:00 9.23333 C 7.73 g/m*3 9.23 C 0 km/h
1931 10-10-2015 23:00:00 8.35833 C 7.42 g/m*3 8.36 C 0.4 km/h
1932 11-10-2015 00:00:00 8.325 C 7.44 g/m*3 8.32 C 0 km/h
1933 11-10-2015 01:00:00 7.95 C 7.27 g/m*3 7.95 C 0 km/h
1934 11-10-2015 02:00:00 8.375 C 7.19 g/m*3 8.38 C 0.53333 km/h
1935 11-10-2015 03:00:00 8.3 C 6.95 g/m*3 8.3 C 0 km/h
1936 11-10-2015 04:00:00 8.05 C 6.74 g/m*3 8.05 C 0.13333 km/h
1937 11-10-2015 05:00:00 7.8 C 6.77 g/m*3 7.8 C 0 km/h
1938 11-10-2015 06:00:00 7.35 C 6.53 g/m*3 7.35 C 0.66667 km/h
1939 11-10-2015 07:00:00 6.525 C 6.15 g/m*3 6.53 C 0.53333 km/h
1940 11-10-2015 08:00:00 5.59167 C 5.9 g/m*3 5.59 C 0 km/h
1941 11-10-2015 09:00:00 5.24167 C 5.96 g/m*3 5.24 C 0 km/h
1942 11-10-2015 10:00:00 5.48333 C 6.06 g/m*3 5.48 C 0.13333 km/h
1943 11-10-2015 11:00:00 6.75833 C 6.22 g/m*3 6.76 C 2.4 km/h
1944 11-10-2015 12:00:00 8.5 C 6.4 g/m*3 8.5 C 3.74167 km/h
1945 11-10-2015 13:00:00 11.25833 C 6.66 g/m*3 11.26 C 4.675 km/h
1946 11-10-2015 14:00:00 12.39167 C 6.64 g/m*3 12.39 C 2.66667 km/h
1947 11-10-2015 15:00:00 12.83333 C 6.79 g/m*3 12.83 C 4.53333 km/h
1948 11-10-2015 16:00:00 13.03333 C 6.76 g/m*3 13.03 C 5.08333 km/h
1949 11-10-2015 17:00:00 12.40833 C 6.69 g/m*3 12.41 C 5.49167 km/h
1950 11-10-2015 18:00:00 10.48333 C 6.53 g/m*3 10.48 C 2.13333 km/h
Sensor: Nr:Datum:Temp:Abs-Feuchte:Windchill:Wind:
Aussen-T/F 1951 11-10-2015 19:00:00 8.55 C 6.17 g/m*3 8.55 C 1.06667 km/h
1952 11-10-2015 20:00:00 7.61667 C 6.02 g/m*3 7.62 C 1.33333 km/h
1953 11-10-2015 21:00:00 6.74167 C 5.88 g/m*3 6.74 C 1.6 km/h
1954 11-10-2015 22:00:00 6.2 C 5.81 g/m*3 6.2 C 0.8 km/h
1955 11-10-2015 23:00:00 5.21667 C 5.64 g/m*3 5.22 C 0.4 km/h
1956 12-10-2015 00:00:00 4.375 C 5.49 g/m*3 4.38 C 0 km/h
1957 12-10-2015 01:00:00 3.925 C 5.33 g/m*3 3.93 C 0.93333 km/h
1958 12-10-2015 02:00:00 4.3 C 5.28 g/m*3 4.3 C 2.40833 km/h
1959 12-10-2015 03:00:00 3.1 C 5.17 g/m*3 3.1 C 0.13333 km/h
1960 12-10-2015 04:00:00 2.73333 C 5.11 g/m*3 2.73 C 0.13333 km/h
1961 12-10-2015 05:00:00 2.125 C 4.95 g/m*3 2.13 C 0 km/h
1962 12-10-2015 06:00:00 1.64167 C 4.87 g/m*3 1.64 C 0 km/h
1963 12-10-2015 07:00:00 1.24167 C 4.79 g/m*3 1.24 C 0 km/h
1964 12-10-2015 08:00:00 1.34167 C 4.87 g/m*3 1.34 C 0 km/h
1965 12-10-2015 09:00:00 2.28333 C 5.04 g/m*3 2.28 C 0 km/h
1966 12-10-2015 10:00:00 2.89167 C 5.17 g/m*3 2.89 C 0.4 km/h
1967 12-10-2015 11:00:00 4.95833 C 5.34 g/m*3 4.96 C 2.26667 km/h
1968 12-10-2015 12:00:00 6.36667 C 5.95 g/m*3 6.37 C 0.26667 km/h
1969 12-10-2015 13:00:00 8.66667 C 6.34 g/m*3 8.67 C 2.66667 km/h
1970 12-10-2015 14:00:00 9.88333 C 6.44 g/m*3 9.88 C 2.8 km/h
1971 12-10-2015 15:00:00 10.68333 C 6.79 g/m*3 10.68 C 2.26667 km/h
1972 12-10-2015 16:00:00 11.33333 C 6.93 g/m*3 11.33 C 2.14167 km/h
1973 12-10-2015 17:00:00 9.83333 C 7.47 g/m*3 9.83 C 0 km/h
1974 12-10-2015 18:00:00 8.19167 C 6.79 g/m*3 8.19 C 0.13333 km/h
1975 12-10-2015 19:00:00 7.01667 C 6.37 g/m*3 7.02 C 0 km/h
Sensor: Nr:Datum:Temp:Abs-Feuchte:Windchill:Wind:
Aussen-T/F 1976 12-10-2015 20:00:00 6.54167 C 6.13 g/m*3 6.54 C 0 km/h
1977 12-10-2015 21:00:00 5.49167 C 5.79 g/m*3 5.49 C 0.66667 km/h
1978 12-10-2015 22:00:00 4.35833 C 5.61 g/m*3 4.36 C 0 km/h
1979 12-10-2015 23:00:00 3.49167 C 5.51 g/m*3 3.49 C 0 km/h
1980 13-10-2015 00:00:00 2.85 C 5.38 g/m*3 2.85 C 0 km/h
1981 13-10-2015 01:00:00 2.23333 C 5.25 g/m*3 2.23 C 0 km/h
1982 13-10-2015 02:00:00 1.675 C 5.11 g/m*3 1.68 C 0 km/h
1983 13-10-2015 03:00:00 1.11667 C 4.94 g/m*3 1.12 C 0 km/h
1984 13-10-2015 04:00:00 0.60833 C 4.8 g/m*3 0.61 C 0.26667 km/h
1985 13-10-2015 05:00:00 0.54167 C 4.78 g/m*3 0.54 C 0.13333 km/h
1986 13-10-2015 06:00:00 0.45833 C 4.79 g/m*3 0.46 C 0.13333 km/h
1987 13-10-2015 07:00:00 0.46667 C 4.8 g/m*3 0.47 C 0.26667 km/h
1988 13-10-2015 08:00:00 0.74167 C 4.9 g/m*3 0.74 C 0.26667 km/h
1989 13-10-2015 09:00:00 1.3 C 5.09 g/m*3 1.3 C 0.4 km/h
1990 13-10-2015 10:00:00 2.10833 C 5.41 g/m*3 2.11 C 0.53333 km/h
1991 13-10-2015 11:00:00 4.41667 C 6.3 g/m*3 4.42 C 0.53333 km/h
1992 13-10-2015 12:00:00 6.35833 C 6.59 g/m*3 6.36 C 1.2 km/h
1993 13-10-2015 13:00:00 7.51667 C 6.56 g/m*3 7.52 C 2.66667 km/h
1994 13-10-2015 14:00:00 8.23333 C 6.68 g/m*3 8.23 C 2.66667 km/h
1995 13-10-2015 15:00:00 8.95 C 6.82 g/m*3 8.95 C 2.8 km/h
1996 13-10-2015 16:00:00 8.775 C 7.03 g/m*3 8.78 C 2.40833 km/h
1997 13-10-2015 17:00:00 8.025 C 6.83 g/m*3 6.61 C 8.33333 km/h
1998 13-10-2015 18:00:00 7.425 C 6.76 g/m*3 7.43 C 4.275 km/h
1999 13-10-2015 19:00:00 7.04167 C 6.64 g/m*3 7.04 C 4.8 km/h
2000 13-10-2015 20:00:00 6.76667 C 6.63 g/m*3 6.77 C 3.86667 km/h
Sensor: Nr:Datum:Temp:Abs-Feuchte:Windchill:Wind:
Aussen-T/F 2001 13-10-2015 21:00:00 6.175 C 6.69 g/m*3 6.18 C 0 km/h
2002 13-10-2015 22:00:00 5.41667 C 6.47 g/m*3 5.42 C 0.8 km/h
2003 13-10-2015 23:00:00 4.85 C 6.25 g/m*3 4.85 C 2.4 km/h
2004 14-10-2015 00:00:00 4.50833 C 6.12 g/m*3 4.51 C 2.93333 km/h
2005 14-10-2015 01:00:00 4.14167 C 5.97 g/m*3 4.14 C 3.875 km/h
2006 14-10-2015 02:00:00 3.75833 C 5.86 g/m*3 3.76 C 1.86667 km/h
2007 14-10-2015 03:00:00 3.46667 C 5.77 g/m*3 3.47 C 3.06667 km/h
2008 14-10-2015 04:00:00 3.18333 C 5.66 g/m*3 3.18 C 2.4 km/h
2009 14-10-2015 05:00:00 2.81667 C 5.53 g/m*3 2.82 C 0.93333 km/h
2010 14-10-2015 06:00:00 1.88333 C 5.21 g/m*3 1.88 C 0 km/h
2011 14-10-2015 07:00:00 1.88333 C 5.28 g/m*3 1.88 C 0 km/h
2012 14-10-2015 08:00:00 1.83333 C 5.27 g/m*3 1.83 C 0 km/h
2013 14-10-2015 09:00:00 2.025 C 5.34 g/m*3 2.03 C 0 km/h
2014 14-10-2015 10:00:00 2.475 C 5.51 g/m*3 2.48 C 0.66667 km/h
2015 14-10-2015 11:00:00 2.85 C 5.63 g/m*3 2.85 C 0.53333 km/h
2016 14-10-2015 12:00:00 3.68333 C 5.91 g/m*3 3.68 C 0.26667 km/h
2017 14-10-2015 13:00:00 4.21667 C 6.13 g/m*3 4.22 C 0 km/h
2018 14-10-2015 14:00:00 4.65833 C 6.28 g/m*3 4.66 C 0 km/h
2019 14-10-2015 15:00:00 4.74167 C 6.35 g/m*3 4.74 C 0 km/h
2020 14-10-2015 16:00:00 4.74167 C 6.34 g/m*3 4.74 C 0.53333 km/h
2021 14-10-2015 17:00:00 4.69167 C 6.32 g/m*3 4.69 C 0 km/h
2022 14-10-2015 18:00:00 4.44167 C 6.22 g/m*3 4.44 C 0 km/h
2023 14-10-2015 19:00:00 4.19167 C 6.18 g/m*3 4.19 C 0 km/h
2024 14-10-2015 20:00:00 4.18333 C 6.18 g/m*3 4.18 C 0 km/h
2025 14-10-2015 21:00:00 4.125 C 6.15 g/m*3 4.13 C 0 km/h
Sensor: Nr:Datum:Temp:Abs-Feuchte:Windchill:Wind:
Aussen-T/F 2026 14-10-2015 22:00:00 4.29167 C 6.22 g/m*3 4.29 C 0 km/h
2027 14-10-2015 23:00:00 4.40833 C 6.27 g/m*3 4.41 C 0 km/h
2028 15-10-2015 00:00:00 4.46667 C 6.3 g/m*3 4.47 C 0.13333 km/h
2029 15-10-2015 01:00:00 4.35 C 6.25 g/m*3 4.35 C 0.26667 km/h
2030 15-10-2015 02:00:00 4.26667 C 6.21 g/m*3 4.27 C 0.53333 km/h
2031 15-10-2015 03:00:00 4.06667 C 6.13 g/m*3 4.07 C 0.13333 km/h
2032 15-10-2015 04:00:00 3.9 C 6.06 g/m*3 3.9 C 0 km/h
2033 15-10-2015 05:00:00 3.75833 C 6.01 g/m*3 3.76 C 0 km/h
2034 15-10-2015 06:00:00 3.73333 C 6 g/m*3 3.73 C 0.53333 km/h
2035 15-10-2015 07:00:00 3.725 C 5.95 g/m*3 3.73 C 3.08333 km/h
2036 15-10-2015 08:00:00 3.71667 C 5.92 g/m*3 3.72 C 2 km/h
2037 15-10-2015 09:00:00 3.9 C 5.95 g/m*3 3.9 C 3.475 km/h
2038 15-10-2015 10:00:00 4.00833 C 5.98 g/m*3 4.01 C 3.46667 km/h
2039 15-10-2015 11:00:00 4.075 C 6.01 g/m*3 4.08 C 3.2 km/h
2040 15-10-2015 12:00:00 4.19167 C 6.05 g/m*3 3.08 C 5.21667 km/h
2041 15-10-2015 13:00:00 4.18333 C 6.05 g/m*3 3.07 C 5.21667 km/h
2042 15-10-2015 14:00:00 4.33333 C 6.11 g/m*3 2.6 C 7.125 km/h
2043 15-10-2015 15:00:00 4.25833 C 6.08 g/m*3 2.51 C 7.125 km/h
2044 15-10-2015 16:00:00 4.35 C 6.12 g/m*3 4.35 C 2.4 km/h
2045 15-10-2015 17:00:00 4.44167 C 6.19 g/m*3 4.44 C 1.06667 km/h
2046 15-10-2015 18:00:00 4.39167 C 6.21 g/m*3 4.39 C 1.46667 km/h
2047 15-10-2015 19:00:00 4.53333 C 6.32 g/m*3 4.53 C 0 km/h
2048 15-10-2015 20:00:00 4.725 C 6.41 g/m*3 4.72 C 0 km/h
2049 15-10-2015 21:00:00 4.83333 C 6.45 g/m*3 4.83 C 0 km/h
2050 15-10-2015 22:00:00 4.9 C 6.55 g/m*3 4.9 C 0 km/h
Sensor: Nr:Datum:Temp:Abs-Feuchte:Windchill:Wind:
Aussen-T/F 2051 15-10-2015 23:00:00 5.05833 C 6.62 g/m*3 5.06 C 0 km/h
2052 16-10-2015 00:00:00 5.2 C 6.68 g/m*3 5.2 C 0 km/h
2053 16-10-2015 01:00:00 5.25 C 6.7 g/m*3 5.25 C 0 km/h
2054 16-10-2015 02:00:00 5.25 C 6.7 g/m*3 5.25 C 0 km/h
2055 16-10-2015 03:00:00 5.175 C 6.67 g/m*3 5.18 C 0.26667 km/h
2056 16-10-2015 04:00:00 5.1 C 6.63 g/m*3 5.1 C 0 km/h
2057 16-10-2015 05:00:00 5.05833 C 6.62 g/m*3 5.06 C 0 km/h
2058 16-10-2015 06:00:00 4.93333 C 6.56 g/m*3 4.93 C 0 km/h
2059 16-10-2015 07:00:00 4.89167 C 6.54 g/m*3 4.89 C 0 km/h
2060 16-10-2015 08:00:00 5 C 6.59 g/m*3 5 C 0 km/h
2061 16-10-2015 09:00:00 5.4 C 6.77 g/m*3 5.4 C 0.53333 km/h
2062 16-10-2015 10:00:00 5.93333 C 6.94 g/m*3 5.93 C 4.8 km/h
2063 16-10-2015 11:00:00 6.7 C 7.05 g/m*3 5.66 C 6.04167 km/h
2064 16-10-2015 12:00:00 7.53333 C 7.16 g/m*3 6.8 C 5.48333 km/h
2065 16-10-2015 13:00:00 8.475 C 7.35 g/m*3 8.48 C 4.80833 km/h
2066 16-10-2015 14:00:00 8.93333 C 7.4 g/m*3 8.93 C 4.00833 km/h
2067 16-10-2015 15:00:00 9.025 C 7.43 g/m*3 9.03 C 3.33333 km/h
2068 16-10-2015 16:00:00 8.375 C 7.41 g/m*3 8.38 C 0.53333 km/h
2069 16-10-2015 17:00:00 8.05 C 7.19 g/m*3 8.05 C 2.675 km/h
2070 16-10-2015 18:00:00 7.51667 C 7.09 g/m*3 7.52 C 0.93333 km/h
2071 16-10-2015 19:00:00 7.19167 C 7.03 g/m*3 7.19 C 0.13333 km/h
2072 16-10-2015 20:00:00 6.98333 C 7.04 g/m*3 6.98 C 0 km/h
2073 16-10-2015 21:00:00 6.825 C 7.03 g/m*3 6.83 C 0.13333 km/h
2074 16-10-2015 22:00:00 6.89167 C 6.96 g/m*3 6.89 C 0.93333 km/h
2075 16-10-2015 23:00:00 6.89167 C 6.92 g/m*3 6.89 C 0.53333 km/h
Sensor: Nr:Datum:Temp:Abs-Feuchte:Windchill:Wind:
Aussen-T/F 2076 17-10-2015 00:00:00 6.8 C 6.88 g/m*3 6.8 C 0.8 km/h
2077 17-10-2015 01:00:00 6.725 C 6.91 g/m*3 6.73 C 0.93333 km/h
2078 17-10-2015 02:00:00 6.6 C 6.81 g/m*3 6.6 C 1.73333 km/h
2079 17-10-2015 03:00:00 6.41667 C 6.75 g/m*3 6.42 C 0.26667 km/h
2080 17-10-2015 04:00:00 6.2 C 6.71 g/m*3 6.2 C 0.4 km/h
2081 17-10-2015 05:00:00 6.125 C 6.56 g/m*3 6.13 C 1.33333 km/h
2082 17-10-2015 06:00:00 5.84167 C 6.52 g/m*3 5.84 C 0.66667 km/h
2083 17-10-2015 07:00:00 5.34167 C 6.5 g/m*3 5.34 C 0 km/h
2084 17-10-2015 08:00:00 5.14167 C 6.49 g/m*3 5.14 C 0 km/h
2085 17-10-2015 09:00:00 5.86667 C 6.72 g/m*3 5.87 C 1.33333 km/h
2086 17-10-2015 10:00:00 6.925 C 6.78 g/m*3 6.93 C 2 km/h
2087 17-10-2015 11:00:00 7.6 C 6.85 g/m*3 7.6 C 3.86667 km/h
2088 17-10-2015 12:00:00 8.11667 C 6.96 g/m*3 8.12 C 1.46667 km/h
2089 17-10-2015 13:00:00 8.63333 C 7.09 g/m*3 8.63 C 1.73333 km/h
2090 17-10-2015 14:00:00 8.84167 C 7.08 g/m*3 8.84 C 2.4 km/h
2091 17-10-2015 15:00:00 8.875 C 7.09 g/m*3 8.88 C 4.53333 km/h
2092 17-10-2015 16:00:00 8.94167 C 7.35 g/m*3 8.94 C 0.53333 km/h
2093 17-10-2015 17:00:00 8.16667 C 7.45 g/m*3 8.17 C 0 km/h
2094 17-10-2015 18:00:00 7.44167 C 7.33 g/m*3 7.44 C 0 km/h
2095 17-10-2015 19:00:00 6.975 C 7.17 g/m*3 6.98 C 0 km/h
2096 17-10-2015 20:00:00 6.81667 C 7.12 g/m*3 6.82 C 0 km/h
2097 17-10-2015 21:00:00 6.63333 C 7.09 g/m*3 6.63 C 0 km/h
2098 17-10-2015 22:00:00 6.45833 C 7.03 g/m*3 6.46 C 0 km/h
2099 17-10-2015 23:00:00 6.36667 C 6.99 g/m*3 6.37 C 0 km/h
2100 18-10-2015 00:00:00 6.30833 C 6.99 g/m*3 6.31 C 0 km/h
Sensor: Nr:Datum:Temp:Abs-Feuchte:Windchill:Wind:
Aussen-T/F 2101 18-10-2015 01:00:00 6.275 C 7.02 g/m*3 6.28 C 0 km/h
2102 18-10-2015 02:00:00 6.15833 C 6.97 g/m*3 6.16 C 0 km/h
2103 18-10-2015 03:00:00 6.1 C 6.94 g/m*3 6.1 C 0 km/h
2104 18-10-2015 04:00:00 6.05833 C 6.92 g/m*3 6.06 C 0 km/h
2105 18-10-2015 05:00:00 5.98333 C 6.89 g/m*3 5.98 C 0 km/h
2106 18-10-2015 06:00:00 5.96667 C 6.88 g/m*3 5.97 C 0 km/h
2107 18-10-2015 07:00:00 5.96667 C 6.88 g/m*3 5.97 C 0 km/h
2108 18-10-2015 08:00:00 6.05 C 6.92 g/m*3 6.05 C 0 km/h
2109 18-10-2015 09:00:00 6.34167 C 7.1 g/m*3 6.34 C 0 km/h
2110 18-10-2015 10:00:00 7.06667 C 7.39 g/m*3 7.07 C 0.53333 km/h
2111 18-10-2015 11:00:00 8.1 C 7.63 g/m*3 8.1 C 3.06667 km/h
2112 18-10-2015 12:00:00 8.95833 C 7.66 g/m*3 8.96 C 4.26667 km/h
2113 18-10-2015 13:00:00 9.70833 C 7.63 g/m*3 9.71 C 4 km/h
2114 18-10-2015 14:00:00 9.95833 C 7.57 g/m*3 9.96 C 3.73333 km/h
2115 18-10-2015 15:00:00 10.29167 C 7.52 g/m*3 10.29 C 2.66667 km/h
2116 18-10-2015 16:00:00 10.40833 C 7.43 g/m*3 10.41 C 3.2 km/h
2117 18-10-2015 17:00:00 9.70833 C 7.49 g/m*3 9.71 C 1.33333 km/h
2118 18-10-2015 18:00:00 7.78333 C 7.36 g/m*3 7.78 C 0 km/h
2119 18-10-2015 19:00:00 6.45833 C 6.9 g/m*3 6.46 C 0 km/h
2120 18-10-2015 20:00:00 6.25 C 6.93 g/m*3 6.25 C 0 km/h
2121 18-10-2015 21:00:00 6.11667 C 6.89 g/m*3 6.12 C 0 km/h
2122 18-10-2015 22:00:00 6.1 C 6.9 g/m*3 6.1 C 0 km/h
2123 18-10-2015 23:00:00 6.01667 C 6.86 g/m*3 6.02 C 0 km/h
2124 19-10-2015 00:00:00 5.9 C 6.85 g/m*3 5.9 C 0 km/h
2125 19-10-2015 01:00:00 5.94167 C 6.87 g/m*3 5.94 C 0.26667 km/h
Sensor: Nr:Datum:Temp:Abs-Feuchte:Windchill:Wind:
Aussen-T/F 2126 19-10-2015 02:00:00 5.94167 C 6.87 g/m*3 5.94 C 0.93333 km/h
2127 19-10-2015 03:00:00 5.91667 C 6.86 g/m*3 5.92 C 0 km/h
2128 19-10-2015 04:00:00 6.03333 C 6.91 g/m*3 6.03 C 0 km/h
2129 19-10-2015 05:00:00 6.20833 C 6.99 g/m*3 6.21 C 0.13333 km/h
2130 19-10-2015 06:00:00 6.26667 C 7.02 g/m*3 6.27 C 0.13333 km/h
2131 19-10-2015 07:00:00 6.29167 C 7.03 g/m*3 6.29 C 0 km/h
2132 19-10-2015 08:00:00 6.35833 C 7.06 g/m*3 6.36 C 0.66667 km/h
2133 19-10-2015 09:00:00 6.725 C 7.19 g/m*3 6.73 C 0.8 km/h
2134 19-10-2015 10:00:00 7.59167 C 7.43 g/m*3 7.59 C 1.6 km/h
2135 19-10-2015 11:00:00 8.53333 C 7.65 g/m*3 8.53 C 3.46667 km/h
2136 19-10-2015 12:00:00 9.78333 C 7.95 g/m*3 9.78 C 3.73333 km/h
2137 19-10-2015 13:00:00 10.55 C 8.16 g/m*3 10.36 C 5.075 km/h
2138 19-10-2015 14:00:00 10.775 C 8.2 g/m*3 10.78 C 4.675 km/h
2139 19-10-2015 15:00:00 10.9 C 8.23 g/m*3 10.9 C 1.46667 km/h
2140 19-10-2015 16:00:00 11.23333 C 8.33 g/m*3 11.23 C 1.33333 km/h
2141 19-10-2015 17:00:00 10.13333 C 8.54 g/m*3 10.13 C 0 km/h
2142 19-10-2015 18:00:00 9.7 C 8.41 g/m*3 9.7 C 0.66667 km/h
2143 19-10-2015 19:00:00 9.475 C 8.38 g/m*3 9.48 C 0 km/h
2144 19-10-2015 20:00:00 9.33333 C 8.38 g/m*3 9.33 C 0 km/h
2145 19-10-2015 21:00:00 9.25833 C 8.43 g/m*3 9.26 C 0 km/h
2146 19-10-2015 22:00:00 9.26667 C 8.5 g/m*3 9.27 C 0 km/h
2147 19-10-2015 23:00:00 9.25 C 8.51 g/m*3 9.25 C 0 km/h
2148 20-10-2015 00:00:00 9.2 C 8.55 g/m*3 9.2 C 0 km/h
2149 20-10-2015 01:00:00 9.2 C 8.51 g/m*3 9.2 C 0.26667 km/h
2150 20-10-2015 02:00:00 9.2 C 8.46 g/m*3 9.2 C 1.06667 km/h
Sensor: Nr:Datum:Temp:Abs-Feuchte:Windchill:Wind:
Aussen-T/F 2151 20-10-2015 03:00:00 9.05 C 8.4 g/m*3 9.05 C 0.13333 km/h
2152 20-10-2015 04:00:00 8.96667 C 8.36 g/m*3 8.97 C 0 km/h
2153 20-10-2015 05:00:00 8.93333 C 8.34 g/m*3 8.93 C 0.66667 km/h
2154 20-10-2015 06:00:00 8.81667 C 8.21 g/m*3 8.82 C 1.06667 km/h
2155 20-10-2015 07:00:00 8.41667 C 7.97 g/m*3 8.42 C 0 km/h
2156 20-10-2015 08:00:00 8.03333 C 7.85 g/m*3 8.03 C 0 km/h
2157 20-10-2015 09:00:00 8.06667 C 7.9 g/m*3 8.07 C 0.13333 km/h
2158 20-10-2015 10:00:00 9.225 C 8.42 g/m*3 9.23 C 0.93333 km/h
2159 20-10-2015 11:00:00 10.30833 C 8.55 g/m*3 10.31 C 0.4 km/h
2160 20-10-2015 12:00:00 10.75 C 8.67 g/m*3 10.75 C 1.06667 km/h
2161 20-10-2015 13:00:00 11.175 C 8.8 g/m*3 11.18 C 1.2 km/h
2162 20-10-2015 14:00:00 11.20833 C 8.92 g/m*3 11.21 C 0 km/h
2163 20-10-2015 15:00:00 10.60833 C 9.07 g/m*3 10.61 C 0.8 km/h
2164 20-10-2015 16:00:00 10.525 C 9.16 g/m*3 10.53 C 0.66667 km/h
2165 20-10-2015 17:00:00 9.94167 C 8.82 g/m*3 9.94 C 2.15 km/h
2166 20-10-2015 18:00:00 9.26667 C 8.56 g/m*3 9.27 C 0.13333 km/h
2167 20-10-2015 19:00:00 8.9 C 8.41 g/m*3 8.9 C 0 km/h
2168 20-10-2015 20:00:00 8.73333 C 8.32 g/m*3 8.73 C 0 km/h
2169 20-10-2015 21:00:00 8.6 C 8.25 g/m*3 8.6 C 0.13333 km/h
2170 20-10-2015 22:00:00 8.475 C 8.2 g/m*3 8.48 C 0 km/h
2171 20-10-2015 23:00:00 8.45833 C 8.26 g/m*3 8.46 C 0 km/h
2172 21-10-2015 00:00:00 8.425 C 8.24 g/m*3 8.43 C 0 km/h
2173 21-10-2015 01:00:00 8.40833 C 8.23 g/m*3 8.41 C 0 km/h
2174 21-10-2015 02:00:00 8.4 C 8.23 g/m*3 8.4 C 0 km/h
2175 21-10-2015 03:00:00 8.24167 C 8.15 g/m*3 8.24 C 0 km/h
Sensor: Nr:Datum:Temp:Abs-Feuchte:Windchill:Wind:
Aussen-T/F 2176 21-10-2015 04:00:00 8.20833 C 8.13 g/m*3 8.21 C 0 km/h
2177 21-10-2015 05:00:00 8.25 C 8.15 g/m*3 8.25 C 0 km/h
2178 21-10-2015 06:00:00 8.3 C 8.18 g/m*3 8.3 C 0 km/h
2179 21-10-2015 07:00:00 8.51667 C 8.29 g/m*3 8.52 C 0 km/h
2180 21-10-2015 08:00:00 8.68333 C 8.38 g/m*3 8.68 C 0.13333 km/h
2181 21-10-2015 09:00:00 8.925 C 8.51 g/m*3 8.93 C 1.06667 km/h
2182 21-10-2015 10:00:00 9.41667 C 8.77 g/m*3 9.42 C 1.2 km/h
2183 21-10-2015 11:00:00 10.29167 C 9.06 g/m*3 10.29 C 2.4 km/h
2184 21-10-2015 12:00:00 11.30833 C 8.97 g/m*3 11.31 C 3.2 km/h
2185 21-10-2015 13:00:00 12.25 C 8.94 g/m*3 12.25 C 6.85 km/h
2186 21-10-2015 14:00:00 12.73333 C 8.8 g/m*3 12.73 C 7.53333 km/h
2187 21-10-2015 15:00:00 13.225 C 8.48 g/m*3 13.23 C 4.68333 km/h
2188 21-10-2015 16:00:00 12.89167 C 8.87 g/m*3 12.89 C 1.33333 km/h
2189 21-10-2015 17:00:00 11.675 C 9 g/m*3 11.68 C 0 km/h
2190 21-10-2015 18:00:00 10.59167 C 8.68 g/m*3 10.59 C 0 km/h
2191 21-10-2015 19:00:00 10.00833 C 8.46 g/m*3 10.01 C 0.8 km/h
2192 21-10-2015 20:00:00 9.90833 C 8.44 g/m*3 9.91 C 0 km/h
2193 21-10-2015 21:00:00 9.29167 C 8.32 g/m*3 9.29 C 0 km/h
2194 21-10-2015 22:00:00 9.10833 C 8.26 g/m*3 9.11 C 0 km/h
2195 21-10-2015 23:00:00 9.00833 C 8.26 g/m*3 9.01 C 0 km/h
2196 22-10-2015 00:00:00 9.6 C 8.33 g/m*3 9.6 C 0.26667 km/h
2197 22-10-2015 01:00:00 10.40833 C 8.28 g/m*3 10.41 C 3.35 km/h
2198 22-10-2015 02:00:00 10.64167 C 8.25 g/m*3 9.86 C 7.525 km/h
2199 22-10-2015 03:00:00 10.53333 C 8.25 g/m*3 10.01 C 6.30833 km/h
2200 22-10-2015 04:00:00 10.45 C 8.22 g/m*3 9.05 C 10.75 km/h
Sensor: Nr:Datum:Temp:Abs-Feuchte:Windchill:Wind:
Aussen-T/F 2201 22-10-2015 05:00:00 9.875 C 8.24 g/m*3 8.25 C 11.425 km/h
2202 22-10-2015 06:00:00 10.025 C 8.23 g/m*3 8.84 C 8.98333 km/h
2203 22-10-2015 07:00:00 10.3 C 8.2 g/m*3 9.52 C 7.25 km/h
2204 22-10-2015 08:00:00 10.30833 C 8.3 g/m*3 9.2 C 8.875 km/h
2205 22-10-2015 09:00:00 10.29167 C 8.41 g/m*3 9.54 C 7.11667 km/h
2206 22-10-2015 10:00:00 10.7 C 8.55 g/m*3 9.17 C 11.96667 km/h
2207 22-10-2015 11:00:00 11.06667 C 8.89 g/m*3 11.07 C 15.025 km/h
2208 22-10-2015 12:00:00 11.61667 C 9.08 g/m*3 11.62 C 15.3 km/h
2209 22-10-2015 13:00:00 12.425 C 9.29 g/m*3 12.43 C 14.63333 km/h
2210 22-10-2015 14:00:00 12.81667 C 9.46 g/m*3 12.82 C 13.56667 km/h
2211 22-10-2015 15:00:00 12.70833 C 9.49 g/m*3 12.71 C 14.36667 km/h
2212 22-10-2015 16:00:00 12.54167 C 9.57 g/m*3 12.54 C 13.56667 km/h
2213 22-10-2015 17:00:00 12.325 C 9.62 g/m*3 12.33 C 10.76667 km/h
2214 22-10-2015 18:00:00 12.05 C 9.68 g/m*3 12.05 C 7.11667 km/h
2215 22-10-2015 19:00:00 11.74167 C 9.76 g/m*3 11.74 C 4.94167 km/h
2216 22-10-2015 20:00:00 11.66667 C 9.83 g/m*3 11.67 C 4.40833 km/h
2217 22-10-2015 21:00:00 11.6 C 9.87 g/m*3 11.6 C 1.33333 km/h
2218 22-10-2015 22:00:00 11.425 C 9.86 g/m*3 11.43 C 0 km/h
2219 22-10-2015 23:00:00 11.31667 C 9.8 g/m*3 11.32 C 0 km/h
2220 23-10-2015 00:00:00 11.24167 C 9.76 g/m*3 11.24 C 0.13333 km/h
2221 23-10-2015 01:00:00 11.2 C 9.77 g/m*3 11.2 C 0.8 km/h
2222 23-10-2015 02:00:00 11.05 C 9.64 g/m*3 11.05 C 0 km/h
2223 23-10-2015 03:00:00 10.85833 C 9.52 g/m*3 10.86 C 0 km/h
2224 23-10-2015 04:00:00 10.71667 C 9.47 g/m*3 10.72 C 0.13333 km/h
2225 23-10-2015 05:00:00 10.60833 C 9.39 g/m*3 10.61 C 0 km/h
Sensor: Nr:Datum:Temp:Abs-Feuchte:Windchill:Wind:
Aussen-T/F 2226 23-10-2015 06:00:00 9.85 C 8.95 g/m*3 9.85 C 0 km/h
2227 23-10-2015 07:00:00 8.54167 C 8.22 g/m*3 8.54 C 0 km/h
2228 23-10-2015 08:00:00 7.925 C 7.93 g/m*3 7.93 C 0 km/h
2229 23-10-2015 09:00:00 7.81667 C 7.92 g/m*3 7.82 C 0.13333 km/h
2230 23-10-2015 10:00:00 8.29167 C 8.17 g/m*3 8.29 C 0.13333 km/h
2231 23-10-2015 11:00:00 9.59167 C 8.88 g/m*3 9.59 C 2.66667 km/h
2232 23-10-2015 12:00:00 10.29167 C 9.28 g/m*3 10.29 C 0.13333 km/h
2233 23-10-2015 13:00:00 10.96667 C 9.63 g/m*3 10.97 C 0 km/h
2234 23-10-2015 14:00:00 12.16667 C 10.29 g/m*3 12.17 C 0 km/h
2235 23-10-2015 15:00:00 12.93333 C 10.41 g/m*3 12.93 C 0 km/h
2236 23-10-2015 16:00:00 12.84167 C 10.29 g/m*3 12.84 C 0 km/h
2237 23-10-2015 17:00:00 12.09167 C 9.82 g/m*3 12.09 C 0 km/h
2238 23-10-2015 18:00:00 10.53333 C 8.91 g/m*3 10.53 C 0 km/h
2239 23-10-2015 19:00:00 9.45833 C 8.39 g/m*3 9.46 C 0 km/h
2240 23-10-2015 20:00:00 8.975 C 8.25 g/m*3 8.98 C 0 km/h
2241 23-10-2015 21:00:00 9.15833 C 8.37 g/m*3 9.16 C 0 km/h
2242 23-10-2015 22:00:00 9.56667 C 8.61 g/m*3 9.57 C 0 km/h
2243 23-10-2015 23:00:00 9.8 C 8.72 g/m*3 9.8 C 0 km/h
2244 24-10-2015 00:00:00 9.8 C 8.72 g/m*3 9.8 C 0 km/h
2245 24-10-2015 01:00:00 9.925 C 8.81 g/m*3 9.93 C 0 km/h
2246 24-10-2015 02:00:00 10.1 C 8.89 g/m*3 10.1 C 0 km/h
2247 24-10-2015 03:00:00 10.1 C 8.85 g/m*3 10.1 C 0 km/h
2248 24-10-2015 04:00:00 10.08333 C 8.8 g/m*3 10.08 C 0 km/h
2249 24-10-2015 05:00:00 9.96667 C 8.72 g/m*3 9.97 C 0 km/h
2250 24-10-2015 06:00:00 9.85833 C 8.66 g/m*3 9.86 C 0 km/h
Sensor: Nr:Datum:Temp:Abs-Feuchte:Windchill:Wind:
Aussen-T/F 2251 24-10-2015 07:00:00 9.725 C 8.6 g/m*3 9.73 C 0 km/h
2252 24-10-2015 08:00:00 9.70833 C 8.66 g/m*3 9.71 C 0.26667 km/h
2253 24-10-2015 09:00:00 9.95833 C 8.77 g/m*3 9.96 C 0.26667 km/h
2254 24-10-2015 10:00:00 10.99167 C 8.75 g/m*3 10.99 C 1.2 km/h
2255 24-10-2015 11:00:00 11.91667 C 8.94 g/m*3 11.92 C 0.8 km/h
2256 24-10-2015 12:00:00 12.70833 C 9.23 g/m*3 12.71 C 3.86667 km/h
2257 24-10-2015 13:00:00 13.34167 C 9.4 g/m*3 13.34 C 3.46667 km/h
2258 24-10-2015 14:00:00 14.325 C 9.54 g/m*3 14.33 C 2.66667 km/h
2259 24-10-2015 15:00:00 15.075 C 9.53 g/m*3 15.08 C 4.275 km/h
2260 24-10-2015 16:00:00 14.30833 C 10.15 g/m*3 14.31 C 0 km/h
2261 24-10-2015 17:00:00 12.95833 C 9.79 g/m*3 12.96 C 0.13333 km/h
2262 24-10-2015 18:00:00 11.63333 C 9.37 g/m*3 11.63 C 0.26667 km/h
2263 24-10-2015 19:00:00 10.5 C 8.98 g/m*3 10.5 C 0 km/h
2264 24-10-2015 20:00:00 9.9 C 8.76 g/m*3 9.9 C 0 km/h
2265 24-10-2015 21:00:00 9.425 C 8.55 g/m*3 9.43 C 0 km/h
2266 24-10-2015 22:00:00 9.31667 C 8.55 g/m*3 9.32 C 0 km/h
2267 24-10-2015 23:00:00 9.2 C 8.57 g/m*3 9.2 C 0.4 km/h
2268 25-10-2015 00:00:00 9.18333 C 8.56 g/m*3 9.18 C 0 km/h
2269 25-10-2015 01:00:00 9.30833 C 8.63 g/m*3 9.31 C 0.13333 km/h
2270 25-10-2015 02:00:00 9.34167 C 8.65 g/m*3 9.34 C 0.13333 km/h
2271 25-10-2015 04:00:00 9.97826 C 9.1 g/m*3 9.98 C 1.53043 km/h
2272 25-10-2015 05:00:00 10.26923 C 9.21 g/m*3 10.27 C 0.98462 km/h
2273 25-10-2015 06:00:00 10.23333 C 9.16 g/m*3 10.23 C 0 km/h
2274 25-10-2015 07:00:00 10.075 C 9.08 g/m*3 10.07 C 0 km/h
2275 25-10-2015 08:00:00 10.3 C 9.29 g/m*3 10.3 C 0.13333 km/h
Sensor: Nr:Datum:Temp:Abs-Feuchte:Windchill:Wind:
Aussen-T/F 2276 25-10-2015 09:00:00 10.66667 C 9.51 g/m*3 10.67 C 0.13333 km/h
2277 25-10-2015 10:00:00 11.75833 C 10.15 g/m*3 11.76 C 0.53333 km/h
2278 25-10-2015 11:00:00 13.475 C 10.72 g/m*3 13.48 C 0.8 km/h
2279 25-10-2015 12:00:00 14.33333 C 10.62 g/m*3 14.33 C 0.8 km/h
2280 25-10-2015 13:00:00 14.60833 C 10.42 g/m*3 14.61 C 1.86667 km/h
2281 25-10-2015 14:00:00 14.78333 C 10.45 g/m*3 14.78 C 2.53333 km/h
2282 25-10-2015 15:00:00 15.09167 C 10.33 g/m*3 15.09 C 2.93333 km/h
2283 25-10-2015 16:00:00 13.91667 C 10.44 g/m*3 13.92 C 0 km/h
2284 25-10-2015 17:00:00 13.04167 C 10.23 g/m*3 13.04 C 0.13333 km/h
2285 25-10-2015 18:00:00 12.35 C 9.99 g/m*3 12.35 C 0 km/h
2286 25-10-2015 19:00:00 12.10833 C 9.98 g/m*3 12.11 C 0 km/h
2287 25-10-2015 20:00:00 11.85 C 9.85 g/m*3 11.85 C 0 km/h
2288 25-10-2015 21:00:00 11.58333 C 9.76 g/m*3 11.58 C 0 km/h
2289 25-10-2015 22:00:00 11.15833 C 9.56 g/m*3 11.16 C 0 km/h
2290 25-10-2015 23:00:00 10.95833 C 9.48 g/m*3 10.96 C 0 km/h
2291 26-10-2015 00:00:00 9.74167 C 8.77 g/m*3 9.74 C 0 km/h
2292 26-10-2015 01:00:00 8.825 C 8.34 g/m*3 8.82 C 0 km/h
2293 26-10-2015 02:00:00 8.51667 C 8.21 g/m*3 8.52 C 0 km/h
2294 26-10-2015 03:00:00 7.85833 C 7.87 g/m*3 7.86 C 0 km/h
2295 26-10-2015 04:00:00 7.55833 C 7.78 g/m*3 7.56 C 0 km/h
2296 26-10-2015 05:00:00 7.45833 C 7.74 g/m*3 7.46 C 0 km/h
2297 26-10-2015 06:00:00 7.29167 C 7.66 g/m*3 7.29 C 0 km/h
2298 26-10-2015 07:00:00 7.175 C 7.6 g/m*3 7.18 C 0 km/h
2299 26-10-2015 08:00:00 7.625 C 7.83 g/m*3 7.63 C 0 km/h
2300 26-10-2015 09:00:00 8.23333 C 8.15 g/m*3 8.23 C 0.13333 km/h
Sensor: Nr:Datum:Temp:Abs-Feuchte:Windchill:Wind:
Aussen-T/F 2301 26-10-2015 10:00:00 9.09167 C 8.64 g/m*3 9.09 C 0 km/h
2302 26-10-2015 11:00:00 10.35 C 9.39 g/m*3 10.35 C 0.13333 km/h
2303 26-10-2015 12:00:00 12.04167 C 10.21 g/m*3 12.04 C 1.86667 km/h
2304 26-10-2015 13:00:00 13.025 C 10.41 g/m*3 13.03 C 1.46667 km/h
2305 26-10-2015 14:00:00 14.40833 C 10.54 g/m*3 14.41 C 2.4 km/h
2306 26-10-2015 15:00:00 13.875 C 10.49 g/m*3 13.88 C 0.93333 km/h
2307 26-10-2015 16:00:00 12.89167 C 10.14 g/m*3 12.89 C 0 km/h
2308 26-10-2015 17:00:00 11.70833 C 9.57 g/m*3 11.71 C 0 km/h
2309 26-10-2015 18:00:00 10.48333 C 8.99 g/m*3 10.48 C 0 km/h
2310 26-10-2015 19:00:00 9.36667 C 8.51 g/m*3 9.37 C 0 km/h
2311 26-10-2015 20:00:00 8.65833 C 8.23 g/m*3 8.66 C 0 km/h
2312 26-10-2015 21:00:00 8.04167 C 7.96 g/m*3 8.04 C 0 km/h
2313 26-10-2015 22:00:00 7.74167 C 7.81 g/m*3 7.74 C 0 km/h
2314 26-10-2015 23:00:00 7.30833 C 7.6 g/m*3 7.31 C 0 km/h
2315 27-10-2015 00:00:00 6.60833 C 7.28 g/m*3 6.61 C 0 km/h
2316 27-10-2015 01:00:00 6.125 C 7.08 g/m*3 6.13 C 0 km/h
2317 27-10-2015 02:00:00 6.04167 C 7.06 g/m*3 6.04 C 0 km/h
2318 27-10-2015 03:00:00 5.79167 C 6.94 g/m*3 5.79 C 0.13333 km/h
2319 27-10-2015 04:00:00 5.56667 C 6.84 g/m*3 5.57 C 0.26667 km/h
2320 27-10-2015 05:00:00 5.13333 C 6.65 g/m*3 5.13 C 0 km/h
2321 27-10-2015 06:00:00 5.19167 C 6.68 g/m*3 5.19 C 0 km/h
2322 27-10-2015 07:00:00 5.25833 C 6.75 g/m*3 5.26 C 0.26667 km/h
2323 27-10-2015 08:00:00 5.625 C 6.91 g/m*3 5.63 C 1.46667 km/h
2324 27-10-2015 09:00:00 6.15833 C 7.19 g/m*3 6.16 C 1.2 km/h
2325 27-10-2015 10:00:00 7.01667 C 7.6 g/m*3 7.02 C 0.66667 km/h
Sensor: Nr:Datum:Temp:Abs-Feuchte:Windchill:Wind:
Aussen-T/F 2326 27-10-2015 11:00:00 8.2 C 8.21 g/m*3 8.2 C 0.26667 km/h
2327 27-10-2015 12:00:00 9.725 C 9.02 g/m*3 9.73 C 1.06667 km/h
2328 27-10-2015 13:00:00 11.60833 C 9.65 g/m*3 11.61 C 6.03333 km/h
2329 27-10-2015 14:00:00 12.26667 C 9.52 g/m*3 12.27 C 5.21667 km/h
2330 27-10-2015 15:00:00 11.60833 C 9.11 g/m*3 11.61 C 5.34167 km/h
2331 27-10-2015 16:00:00 10.59167 C 8.75 g/m*3 10.29 C 5.49167 km/h
2332 27-10-2015 17:00:00 9.74167 C 8.54 g/m*3 9.74 C 0.8 km/h
2333 27-10-2015 18:00:00 9.725 C 8.59 g/m*3 9.73 C 2.13333 km/h
2334 27-10-2015 19:00:00 9.475 C 8.45 g/m*3 9.48 C 1.33333 km/h
2335 27-10-2015 20:00:00 9.4 C 8.39 g/m*3 9.4 C 2.26667 km/h
2336 27-10-2015 21:00:00 9.3 C 8.33 g/m*3 9.3 C 1.33333 km/h
2337 27-10-2015 22:00:00 9.20833 C 8.26 g/m*3 9.21 C 1.86667 km/h
2338 27-10-2015 23:00:00 9.1 C 8.24 g/m*3 9.1 C 1.86667 km/h
2339 28-10-2015 00:00:00 9.05 C 8.23 g/m*3 9.05 C 1.73333 km/h
2340 28-10-2015 01:00:00 8.9 C 8.15 g/m*3 8.9 C 2.66667 km/h
2341 28-10-2015 02:00:00 8.725 C 8.01 g/m*3 8.73 C 1.86667 km/h
2342 28-10-2015 03:00:00 8.60833 C 7.91 g/m*3 8.61 C 1.46667 km/h
2343 28-10-2015 04:00:00 8.59167 C 7.9 g/m*3 8.59 C 1.46667 km/h
2344 28-10-2015 05:00:00 8.46667 C 7.84 g/m*3 8.47 C 2.26667 km/h
2345 28-10-2015 06:00:00 8.46667 C 7.86 g/m*3 8.47 C 2 km/h
2346 28-10-2015 07:00:00 8.58333 C 7.98 g/m*3 8.58 C 0.93333 km/h
2347 28-10-2015 08:00:00 8.81667 C 8.05 g/m*3 8.82 C 0.8 km/h
2348 28-10-2015 09:00:00 9.125 C 8.14 g/m*3 9.13 C 2.13333 km/h
2349 28-10-2015 10:00:00 9.68333 C 8.35 g/m*3 9.68 C 1.86667 km/h
2350 28-10-2015 11:00:00 10.25833 C 8.47 g/m*3 10.26 C 3.06667 km/h
Sensor: Nr:Datum:Temp:Abs-Feuchte:Windchill:Wind:
Aussen-T/F 2351 28-10-2015 12:00:00 10.95 C 8.64 g/m*3 10.95 C 4 km/h
2352 28-10-2015 13:00:00 11.275 C 8.78 g/m*3 11.28 C 3.88333 km/h
2353 28-10-2015 14:00:00 10.975 C 8.92 g/m*3 10.98 C 1.6 km/h
2354 28-10-2015 15:00:00 11.625 C 9.12 g/m*3 11.63 C 2.26667 km/h
2355 28-10-2015 16:00:00 11.51667 C 9 g/m*3 11.52 C 3.06667 km/h
2356 28-10-2015 17:00:00 10 C 8.5 g/m*3 10 C 4.15 km/h
2357 28-10-2015 18:00:00 9.81667 C 8.54 g/m*3 9.82 C 1.2 km/h
2358 28-10-2015 19:00:00 9.41667 C 8.44 g/m*3 9.42 C 0.13333 km/h
2359 28-10-2015 20:00:00 8.60833 C 8.14 g/m*3 8.61 C 0.4 km/h
2360 28-10-2015 21:00:00 8.98333 C 8.44 g/m*3 8.98 C 0 km/h
2361 28-10-2015 22:00:00 9.23333 C 8.56 g/m*3 9.23 C 0 km/h
2362 28-10-2015 23:00:00 9.39167 C 8.62 g/m*3 9.39 C 0 km/h
2363 29-10-2015 00:00:00 9.78333 C 8.86 g/m*3 9.78 C 0.13333 km/h
2364 29-10-2015 01:00:00 9.65 C 8.73 g/m*3 9.65 C 0 km/h
2365 29-10-2015 02:00:00 9.30833 C 8.62 g/m*3 9.31 C 0 km/h
2366 29-10-2015 03:00:00 9.175 C 8.56 g/m*3 9.18 C 0 km/h
2367 29-10-2015 04:00:00 9.2 C 8.57 g/m*3 9.2 C 0 km/h
2368 29-10-2015 05:00:00 9.2 C 8.57 g/m*3 9.2 C 0 km/h
2369 29-10-2015 06:00:00 9.25833 C 8.67 g/m*3 9.26 C 0 km/h
2370 29-10-2015 07:00:00 9.35 C 8.75 g/m*3 9.35 C 0 km/h
2371 29-10-2015 08:00:00 9.61667 C 8.9 g/m*3 9.62 C 0 km/h
2372 29-10-2015 09:00:00 10.33333 C 9.29 g/m*3 10.33 C 0.4 km/h
2373 29-10-2015 10:00:00 12.13333 C 10.15 g/m*3 12.13 C 4.00833 km/h
2374 29-10-2015 11:00:00 13.65 C 10.32 g/m*3 13.65 C 7.50833 km/h
2375 29-10-2015 12:00:00 14.46667 C 10.15 g/m*3 14.47 C 4.68333 km/h
Sensor: Nr:Datum:Temp:Abs-Feuchte:Windchill:Wind:
Aussen-T/F 2376 29-10-2015 13:00:00 13.74167 C 10.21 g/m*3 13.74 C 0.93333 km/h
2377 29-10-2015 14:00:00 13.85833 C 10.22 g/m*3 13.86 C 2.66667 km/h
2378 29-10-2015 15:00:00 14.275 C 10.02 g/m*3 14.28 C 4.01667 km/h
2379 29-10-2015 16:00:00 12.60833 C 9.69 g/m*3 12.61 C 1.2 km/h
2380 29-10-2015 17:00:00 11.26667 C 9.15 g/m*3 11.27 C 2 km/h
2381 29-10-2015 18:00:00 10.71667 C 8.96 g/m*3 10.72 C 1.46667 km/h
2382 29-10-2015 19:00:00 9.46667 C 8.42 g/m*3 9.47 C 0 km/h
2383 29-10-2015 20:00:00 8.39167 C 8.02 g/m*3 8.39 C 0 km/h
2384 29-10-2015 21:00:00 7.875 C 7.81 g/m*3 7.88 C 0 km/h
2385 29-10-2015 22:00:00 7.39167 C 7.63 g/m*3 7.39 C 0 km/h
2386 29-10-2015 23:00:00 6.875 C 7.38 g/m*3 6.88 C 0 km/h
2387 30-10-2015 00:00:00 6.36667 C 7.14 g/m*3 6.37 C 0 km/h
2388 30-10-2015 01:00:00 5.90833 C 6.93 g/m*3 5.91 C 0 km/h
2389 30-10-2015 02:00:00 5.64167 C 6.85 g/m*3 5.64 C 0 km/h
2390 30-10-2015 03:00:00 5.55 C 6.84 g/m*3 5.55 C 0.53333 km/h
2391 30-10-2015 04:00:00 5.39167 C 6.76 g/m*3 5.39 C 0.26667 km/h
2392 30-10-2015 05:00:00 5.45 C 6.79 g/m*3 5.45 C 0.13333 km/h
2393 30-10-2015 06:00:00 5.725 C 6.91 g/m*3 5.73 C 0.13333 km/h
2394 30-10-2015 07:00:00 6 C 7.04 g/m*3 6 C 0 km/h
2395 30-10-2015 08:00:00 6.34167 C 7.26 g/m*3 6.34 C 0 km/h
2396 30-10-2015 09:00:00 7.04167 C 7.58 g/m*3 7.04 C 0.4 km/h
2397 30-10-2015 10:00:00 7.65833 C 7.92 g/m*3 7.66 C 0.13333 km/h
2398 30-10-2015 11:00:00 8.35 C 8.29 g/m*3 8.35 C 0.4 km/h
2399 30-10-2015 12:00:00 9.24167 C 8.77 g/m*3 9.24 C 1.6 km/h
2400 30-10-2015 13:00:00 10.60833 C 9.45 g/m*3 10.61 C 2.26667 km/h
Sensor: Nr:Datum:Temp:Abs-Feuchte:Windchill:Wind:
Aussen-T/F 2401 30-10-2015 14:00:00 12.40833 C 10.19 g/m*3 12.41 C 0.4 km/h
2402 30-10-2015 15:00:00 12.59167 C 10.02 g/m*3 12.59 C 0.4 km/h
2403 30-10-2015 16:00:00 11.53333 C 9.49 g/m*3 11.53 C 0 km/h
2404 30-10-2015 17:00:00 10.43333 C 8.96 g/m*3 10.43 C 0.13333 km/h
2405 30-10-2015 18:00:00 9.28333 C 8.39 g/m*3 9.28 C 0 km/h
2406 30-10-2015 19:00:00 8.18333 C 7.92 g/m*3 8.18 C 0 km/h
2407 30-10-2015 20:00:00 7.65 C 7.71 g/m*3 7.65 C 0 km/h
2408 30-10-2015 21:00:00 7.3 C 7.58 g/m*3 7.3 C 0.13333 km/h
2409 30-10-2015 22:00:00 6.5 C 7.17 g/m*3 6.5 C 0 km/h
2410 30-10-2015 23:00:00 6.03333 C 6.98 g/m*3 6.03 C 0 km/h
2411 31-10-2015 00:00:00 5.29167 C 6.65 g/m*3 5.29 C 0 km/h
2412 31-10-2015 01:00:00 4.79167 C 6.43 g/m*3 4.79 C 0 km/h
2413 31-10-2015 02:00:00 4.31667 C 6.26 g/m*3 4.32 C 0 km/h
2414 31-10-2015 03:00:00 3.875 C 6.09 g/m*3 3.88 C 0 km/h
2415 31-10-2015 04:00:00 3.43333 C 5.93 g/m*3 3.43 C 0 km/h
2416 31-10-2015 05:00:00 3.99167 C 6.16 g/m*3 3.99 C 0 km/h
2417 31-10-2015 06:00:00 4.71667 C 6.47 g/m*3 4.72 C 0 km/h
2418 31-10-2015 07:00:00 5.65833 C 6.93 g/m*3 5.66 C 0 km/h
2419 31-10-2015 08:00:00 6.78333 C 7.49 g/m*3 6.78 C 0 km/h
2420 31-10-2015 09:00:00 7.54167 C 7.87 g/m*3 7.54 C 0 km/h
2421 31-10-2015 10:00:00 8.24167 C 8.23 g/m*3 8.24 C 0.4 km/h
2422 31-10-2015 11:00:00 8.625 C 8.38 g/m*3 8.63 C 0.66667 km/h
2423 31-10-2015 12:00:00 9.525 C 8.49 g/m*3 9.53 C 3.46667 km/h
2424 31-10-2015 13:00:00 10.5 C 8.49 g/m*3 10.5 C 3.2 km/h
2425 31-10-2015 14:00:00 10.76667 C 8.49 g/m*3 10.77 C 2.94167 km/h
Sensor: Nr:Datum:Temp:Abs-Feuchte:Windchill:Wind:
Aussen-T/F 2426 31-10-2015 15:00:00 10.64167 C 8.42 g/m*3 10.64 C 1.6 km/h
2427 31-10-2015 16:00:00 10.35 C 8.43 g/m*3 10.35 C 0.8 km/h
2428 31-10-2015 17:00:00 9.95833 C 8.41 g/m*3 9.96 C 0.13333 km/h
2429 31-10-2015 18:00:00 9.6 C 8.34 g/m*3 9.6 C 0 km/h
2430 31-10-2015 19:00:00 9.28333 C 8.26 g/m*3 9.28 C 0.26667 km/h
2431 31-10-2015 20:00:00 8.225 C 7.75 g/m*3 8.23 C 1.6 km/h
2432 31-10-2015 21:00:00 7.21667 C 7.38 g/m*3 7.22 C 0.4 km/h
2433 31-10-2015 22:00:00 5.95833 C 6.85 g/m*3 5.96 C 0 km/h
2434 31-10-2015 23:00:00 5.21667 C 6.58 g/m*3 5.22 C 0 km/h
2435 01-11-2015 00:00:00 4.675 C 6.38 g/m*3 4.68 C 0.13333 km/h
2436 01-11-2015 01:00:00 4.76667 C 6.45 g/m*3 4.77 C 0 km/h
2437 01-11-2015 02:00:00 4.99167 C 6.57 g/m*3 4.99 C 0.13333 km/h
2438 01-11-2015 03:00:00 5.125 C 6.65 g/m*3 5.13 C 0.26667 km/h
2439 01-11-2015 04:00:00 5.34167 C 6.74 g/m*3 5.34 C 0 km/h
2440 01-11-2015 05:00:00 5.76667 C 6.93 g/m*3 5.77 C 0.26667 km/h
2441 01-11-2015 06:00:00 6.03333 C 7.06 g/m*3 6.03 C 0 km/h
2442 01-11-2015 07:00:00 6.10833 C 7.09 g/m*3 6.11 C 3.06667 km/h
2443 01-11-2015 08:00:00 6.15 C 7.11 g/m*3 6.15 C 0.93333 km/h
2444 01-11-2015 09:00:00 6.28333 C 7.17 g/m*3 6.28 C 1.86667 km/h
2445 01-11-2015 10:00:00 6.81667 C 7.43 g/m*3 6.82 C 1.33333 km/h
2446 01-11-2015 11:00:00 7.375 C 7.68 g/m*3 7.38 C 2.13333 km/h
2447 01-11-2015 12:00:00 8.175 C 7.98 g/m*3 8.18 C 3.46667 km/h
2448 01-11-2015 13:00:00 8.725 C 8.16 g/m*3 8.73 C 0.93333 km/h
2449 01-11-2015 14:00:00 8.95 C 8.27 g/m*3 8.95 C 0.66667 km/h
2450 01-11-2015 15:00:00 9.2 C 8.48 g/m*3 9.2 C 1.46667 km/h
Sensor: Nr:Datum:Temp:Abs-Feuchte:Windchill:Wind:
Aussen-T/F 2451 01-11-2015 16:00:00 9.05 C 8.4 g/m*3 9.05 C 0.53333 km/h
2452 01-11-2015 17:00:00 8.14167 C 7.91 g/m*3 8.14 C 0.66667 km/h
2453 01-11-2015 18:00:00 6.96667 C 7.36 g/m*3 6.97 C 0 km/h
2454 01-11-2015 19:00:00 6.05 C 6.98 g/m*3 6.05 C 0 km/h
2455 01-11-2015 20:00:00 6.5 C 7.26 g/m*3 6.5 C 0 km/h
2456 01-11-2015 21:00:00 5.94167 C 7 g/m*3 5.94 C 0.13333 km/h
2457 01-11-2015 22:00:00 5.425 C 6.78 g/m*3 5.43 C 0 km/h
2458 01-11-2015 23:00:00 5.29167 C 6.72 g/m*3 5.29 C 0.13333 km/h
2459 02-11-2015 00:00:00 4.83333 C 6.52 g/m*3 4.83 C 0 km/h
2460 02-11-2015 01:00:00 4.33333 C 6.31 g/m*3 4.33 C 0.13333 km/h
2461 02-11-2015 02:00:00 4.075 C 6.2 g/m*3 4.08 C 0.13333 km/h
2462 02-11-2015 03:00:00 3.725 C 6.05 g/m*3 3.73 C 0.13333 km/h
2463 02-11-2015 04:00:00 3.64167 C 6.02 g/m*3 3.64 C 0.53333 km/h
2464 02-11-2015 05:00:00 3.125 C 5.82 g/m*3 3.13 C 1.73333 km/h
2465 02-11-2015 06:00:00 2.7 C 5.65 g/m*3 2.7 C 1.06667 km/h
2466 02-11-2015 07:00:00 2.44167 C 5.57 g/m*3 2.44 C 0.93333 km/h
2467 02-11-2015 08:00:00 2.60833 C 5.67 g/m*3 2.61 C 0.13333 km/h
2468 02-11-2015 09:00:00 2.825 C 5.76 g/m*3 2.83 C 2.26667 km/h
2469 02-11-2015 10:00:00 3.51667 C 6.03 g/m*3 3.52 C 2.53333 km/h
2470 02-11-2015 11:00:00 4.40833 C 6.4 g/m*3 4.41 C 0.8 km/h
2471 02-11-2015 12:00:00 5.39167 C 6.83 g/m*3 5.39 C 0.13333 km/h
2472 02-11-2015 13:00:00 6.23333 C 7.22 g/m*3 6.23 C 2.13333 km/h
2473 02-11-2015 14:00:00 7.69167 C 7.94 g/m*3 7.69 C 3.86667 km/h
2474 02-11-2015 15:00:00 8.10833 C 8.16 g/m*3 8.11 C 4.66667 km/h
2475 02-11-2015 16:00:00 8.13333 C 8.14 g/m*3 8.13 C 3.33333 km/h
Sensor: Nr:Datum:Temp:Abs-Feuchte:Windchill:Wind:
Aussen-T/F 2476 02-11-2015 17:00:00 7.28333 C 7.45 g/m*3 7.28 C 2.13333 km/h
2477 02-11-2015 18:00:00 6.51667 C 6.99 g/m*3 6.52 C 2.4 km/h
2478 02-11-2015 19:00:00 5.48333 C 6.55 g/m*3 5.48 C 1.73333 km/h
2479 02-11-2015 20:00:00 4.275 C 6.09 g/m*3 4.28 C 0.13333 km/h
2480 02-11-2015 21:00:00 3.225 C 5.73 g/m*3 3.23 C 0 km/h
2481 02-11-2015 22:00:00 3.43333 C 5.89 g/m*3 3.43 C 0.4 km/h
2482 02-11-2015 23:00:00 4.175 C 6.24 g/m*3 4.18 C 1.2 km/h
2483 03-11-2015 00:00:00 4.2 C 6.2 g/m*3 4.2 C 2.26667 km/h
2484 03-11-2015 01:00:00 4.10833 C 6.15 g/m*3 4.11 C 0.13333 km/h
2485 03-11-2015 02:00:00 4.21667 C 6.19 g/m*3 4.22 C 0.13333 km/h
2486 03-11-2015 03:00:00 4.19167 C 6.18 g/m*3 4.19 C 2.53333 km/h
2487 03-11-2015 04:00:00 3.68333 C 5.98 g/m*3 2.3 C 5.74167 km/h
2488 03-11-2015 05:00:00 3.23333 C 5.84 g/m*3 3.23 C 0.66667 km/h
2489 03-11-2015 06:00:00 3.3 C 5.87 g/m*3 3.3 C 4.28333 km/h
2490 03-11-2015 07:00:00 2.84167 C 5.7 g/m*3 2.84 C 1.06667 km/h
2491 03-11-2015 08:00:00 3.13333 C 5.82 g/m*3 3.13 C 2.66667 km/h
2492 03-11-2015 09:00:00 3.10833 C 5.79 g/m*3 3.11 C 4.54167 km/h
2493 03-11-2015 10:00:00 3.59167 C 6 g/m*3 3.59 C 2.53333 km/h
2494 03-11-2015 11:00:00 5.01667 C 6.5 g/m*3 5.02 C 2 km/h
2495 03-11-2015 12:00:00 6.00833 C 6.74 g/m*3 6.01 C 4 km/h
2496 03-11-2015 13:00:00 6.81667 C 7.04 g/m*3 6.82 C 0.8 km/h
2497 03-11-2015 14:00:00 7.425 C 7.37 g/m*3 7.43 C 0 km/h
2498 03-11-2015 15:00:00 7.95833 C 7.61 g/m*3 7.96 C 0.53333 km/h
2499 03-11-2015 16:00:00 7.34167 C 7.36 g/m*3 7.34 C 0.53333 km/h
2500 03-11-2015 17:00:00 6.55833 C 7.05 g/m*3 6.56 C 1.2 km/h
Sensor: Nr:Datum:Temp:Abs-Feuchte:Windchill:Wind:
Aussen-T/F 2501 03-11-2015 18:00:00 5.575 C 6.66 g/m*3 5.58 C 1.46667 km/h
2502 03-11-2015 19:00:00 5.26667 C 6.6 g/m*3 5.27 C 0 km/h
2503 03-11-2015 20:00:00 5.60833 C 6.79 g/m*3 5.61 C 0.26667 km/h
2504 03-11-2015 21:00:00 5.60833 C 6.79 g/m*3 5.61 C 0 km/h
2505 03-11-2015 22:00:00 5.41667 C 6.71 g/m*3 5.42 C 0.26667 km/h
2506 03-11-2015 23:00:00 5.76667 C 6.86 g/m*3 5.77 C 0 km/h
2507 04-11-2015 00:00:00 4.84167 C 6.43 g/m*3 4.84 C 0 km/h
2508 04-11-2015 01:00:00 4.19167 C 6.18 g/m*3 4.19 C 0 km/h
2509 04-11-2015 02:00:00 3.65 C 5.96 g/m*3 3.65 C 0 km/h
2510 04-11-2015 03:00:00 3.35833 C 5.86 g/m*3 3.36 C 0 km/h
2511 04-11-2015 04:00:00 2.925 C 5.71 g/m*3 2.93 C 0 km/h
2512 04-11-2015 05:00:00 3.01667 C 5.77 g/m*3 3.02 C 0 km/h
2513 04-11-2015 06:00:00 3.43333 C 5.94 g/m*3 3.43 C 0 km/h
2514 04-11-2015 07:00:00 3.44167 C 5.94 g/m*3 3.44 C 0 km/h
2515 04-11-2015 08:00:00 3.56667 C 5.99 g/m*3 3.57 C 0 km/h
2516 04-11-2015 09:00:00 4.875 C 6.59 g/m*3 4.88 C 0 km/h
2517 04-11-2015 10:00:00 6.675 C 7.43 g/m*3 6.68 C 0 km/h
2518 04-11-2015 11:00:00 8.06667 C 8.14 g/m*3 8.07 C 0 km/h
2519 04-11-2015 12:00:00 9.6 C 8.98 g/m*3 9.6 C 1.06667 km/h
2520 04-11-2015 13:00:00 11.88333 C 10.15 g/m*3 11.88 C 0 km/h
2521 04-11-2015 14:00:00 13.9 C 10.77 g/m*3 13.9 C 0.4 km/h
2522 04-11-2015 15:00:00 14.61667 C 10.55 g/m*3 14.62 C 3.33333 km/h
2523 04-11-2015 16:00:00 14.10833 C 9.78 g/m*3 14.11 C 4.80833 km/h
2524 04-11-2015 17:00:00 12.675 C 9.51 g/m*3 12.68 C 2.80833 km/h
2525 04-11-2015 18:00:00 11 C 9.08 g/m*3 11 C 0.93333 km/h
Sensor: Nr:Datum:Temp:Abs-Feuchte:Windchill:Wind:
Aussen-T/F 2526 04-11-2015 19:00:00 9.91667 C 8.68 g/m*3 9.92 C 1.46667 km/h
2527 04-11-2015 20:00:00 9.45833 C 8.58 g/m*3 9.46 C 0.53333 km/h
2528 04-11-2015 21:00:00 9.84167 C 8.85 g/m*3 9.84 C 0.93333 km/h
2529 04-11-2015 22:00:00 9.35833 C 8.5 g/m*3 9.36 C 0 km/h
2530 04-11-2015 23:00:00 8.69167 C 8.21 g/m*3 8.69 C 0 km/h
2531 05-11-2015 00:00:00 8.49167 C 8.19 g/m*3 8.49 C 0 km/h
2532 05-11-2015 01:00:00 8.63333 C 8.27 g/m*3 8.63 C 0.26667 km/h
2533 05-11-2015 02:00:00 8.90833 C 8.43 g/m*3 8.91 C 0.26667 km/h
2534 05-11-2015 03:00:00 8.05833 C 7.97 g/m*3 8.06 C 0.66667 km/h
2535 05-11-2015 04:00:00 7.75 C 7.86 g/m*3 7.75 C 0.13333 km/h
2536 05-11-2015 05:00:00 7.58333 C 7.79 g/m*3 7.58 C 0 km/h
2537 05-11-2015 06:00:00 7.70833 C 7.87 g/m*3 7.71 C 0.13333 km/h
2538 05-11-2015 07:00:00 7.54167 C 7.79 g/m*3 7.54 C 0 km/h
2539 05-11-2015 08:00:00 7.725 C 7.88 g/m*3 7.73 C 0.4 km/h
2540 05-11-2015 09:00:00 8.29167 C 8.17 g/m*3 8.29 C 1.33333 km/h
2541 05-11-2015 10:00:00 8.5 C 8.32 g/m*3 8.5 C 0.4 km/h
2542 05-11-2015 11:00:00 9.425 C 8.88 g/m*3 9.43 C 1.6 km/h
2543 05-11-2015 12:00:00 10.75833 C 9.66 g/m*3 10.76 C 3.46667 km/h
2544 05-11-2015 13:00:00 12.06667 C 10.49 g/m*3 12.07 C 3.6 km/h
2545 05-11-2015 14:00:00 13.58333 C 11.45 g/m*3 13.58 C 3.06667 km/h
2546 05-11-2015 15:00:00 14.775 C 11.62 g/m*3 14.78 C 3.2 km/h
2547 05-11-2015 16:00:00 14.65 C 11.13 g/m*3 14.65 C 5.2 km/h
2548 05-11-2015 17:00:00 13.35 C 10.53 g/m*3 13.35 C 4.53333 km/h
2549 05-11-2015 18:00:00 12.90833 C 10.33 g/m*3 12.91 C 3.06667 km/h
2550 05-11-2015 19:00:00 12.50833 C 10.1 g/m*3 12.51 C 1.73333 km/h
Sensor: Nr:Datum:Temp:Abs-Feuchte:Windchill:Wind:
Aussen-T/F 2551 05-11-2015 20:00:00 11.9 C 9.87 g/m*3 11.9 C 1.33333 km/h
2552 05-11-2015 21:00:00 11.61667 C 9.78 g/m*3 11.62 C 1.06667 km/h
2553 05-11-2015 22:00:00 11.25833 C 9.63 g/m*3 11.26 C 0 km/h
2554 05-11-2015 23:00:00 11.2 C 9.63 g/m*3 11.2 C 0 km/h
2555 06-11-2015 00:00:00 11.06667 C 9.62 g/m*3 11.07 C 0 km/h
2556 06-11-2015 01:00:00 11 C 9.61 g/m*3 11 C 0 km/h
2557 06-11-2015 02:00:00 10.80833 C 9.52 g/m*3 10.81 C 0 km/h
2558 06-11-2015 03:00:00 10.93333 C 9.67 g/m*3 10.93 C 0.26667 km/h
2559 06-11-2015 04:00:00 10.85833 C 9.62 g/m*3 10.86 C 0 km/h
2560 06-11-2015 05:00:00 10.90833 C 9.65 g/m*3 10.91 C 0 km/h
2561 06-11-2015 06:00:00 11.09167 C 9.77 g/m*3 11.09 C 0 km/h
2562 06-11-2015 07:00:00 10.39167 C 9.34 g/m*3 10.39 C 0 km/h
2563 06-11-2015 08:00:00 10.11667 C 9.18 g/m*3 10.12 C 0.26667 km/h
2564 06-11-2015 09:00:00 11.03333 C 9.81 g/m*3 11.03 C 0.66667 km/h
2565 06-11-2015 10:00:00 12.01667 C 10.45 g/m*3 12.02 C 0 km/h
2566 06-11-2015 11:00:00 13.58333 C 11.46 g/m*3 13.58 C 4.14167 km/h
2567 06-11-2015 12:00:00 15.4 C 11.81 g/m*3 15.4 C 8.19167 km/h
2568 06-11-2015 13:00:00 15.73333 C 11.78 g/m*3 15.73 C 10.61667 km/h
2569 06-11-2015 14:00:00 15.8 C 11.71 g/m*3 15.8 C 4.69167 km/h
2570 06-11-2015 15:00:00 16.14167 C 11.55 g/m*3 16.14 C 5.09167 km/h
2571 06-11-2015 16:00:00 16.41667 C 11.51 g/m*3 16.42 C 5.35833 km/h
2572 06-11-2015 17:00:00 15.375 C 11.11 g/m*3 15.38 C 2.80833 km/h
2573 06-11-2015 18:00:00 14.90833 C 11.15 g/m*3 14.91 C 2.80833 km/h
2574 06-11-2015 19:00:00 15.50833 C 11.45 g/m*3 15.51 C 6.84167 km/h
2575 06-11-2015 20:00:00 15.61667 C 11.85 g/m*3 15.62 C 2 km/h
Sensor: Nr:Datum:Temp:Abs-Feuchte:Windchill:Wind:
Aussen-T/F 2576 06-11-2015 21:00:00 14.88333 C 11.97 g/m*3 14.88 C 0.13333 km/h
2577 06-11-2015 22:00:00 14.74167 C 12.14 g/m*3 14.74 C 1.73333 km/h
2578 06-11-2015 23:00:00 15.225 C 12.6 g/m*3 15.23 C 3.2 km/h
2579 07-11-2015 00:00:00 15.53333 C 12.85 g/m*3 15.53 C 4.41667 km/h
2580 07-11-2015 01:00:00 15.66667 C 12.95 g/m*3 15.67 C 5.08333 km/h
2581 07-11-2015 02:00:00 15.80833 C 13.06 g/m*3 15.81 C 6.85 km/h
2582 07-11-2015 03:00:00 16.00833 C 13.13 g/m*3 16.01 C 6.96667 km/h
2583 07-11-2015 04:00:00 16.08333 C 13.15 g/m*3 16.08 C 3.89167 km/h
2584 07-11-2015 05:00:00 15.95 C 13.04 g/m*3 15.95 C 0.26667 km/h
2585 07-11-2015 06:00:00 15.875 C 13.09 g/m*3 15.88 C 0.93333 km/h
2586 07-11-2015 07:00:00 15.89167 C 13.13 g/m*3 15.89 C 0.93333 km/h
2587 07-11-2015 08:00:00 15.99167 C 13.21 g/m*3 15.99 C 0 km/h
2588 07-11-2015 09:00:00 16.6 C 13.7 g/m*3 16.6 C 0.13333 km/h
2589 07-11-2015 10:00:00 17.15833 C 14.01 g/m*3 17.16 C 5.5 km/h
2590 07-11-2015 11:00:00 18.05 C 13.86 g/m*3 18.05 C 10.625 km/h
2591 07-11-2015 12:00:00 18.4 C 13.7 g/m*3 18.4 C 7.91667 km/h
2592 07-11-2015 13:00:00 18.375 C 13.7 g/m*3 18.38 C 7.25 km/h
2593 07-11-2015 14:00:00 18.15833 C 13.64 g/m*3 18.16 C 4.01667 km/h
2594 07-11-2015 15:00:00 17.98333 C 13.55 g/m*3 17.98 C 1.86667 km/h
2595 07-11-2015 16:00:00 17.05 C 13.24 g/m*3 17.05 C 2.66667 km/h
2596 07-11-2015 17:00:00 16.2 C 12.81 g/m*3 16.2 C 2.26667 km/h
2597 07-11-2015 18:00:00 15.80833 C 12.66 g/m*3 15.81 C 2.13333 km/h
2598 07-11-2015 19:00:00 15.60833 C 12.62 g/m*3 15.61 C 0.53333 km/h
2599 07-11-2015 20:00:00 15.31667 C 12.43 g/m*3 15.32 C 0.66667 km/h
2600 07-11-2015 21:00:00 15.225 C 12.46 g/m*3 15.23 C 1.46667 km/h
Sensor: Nr:Datum:Temp:Abs-Feuchte:Windchill:Wind:
Aussen-T/F 2601 07-11-2015 22:00:00 15.34167 C 12.57 g/m*3 15.34 C 2.8 km/h
2602 07-11-2015 23:00:00 15.61667 C 12.77 g/m*3 15.62 C 3.075 km/h
2603 08-11-2015 00:00:00 15.075 C 12.3 g/m*3 15.08 C 2.275 km/h
2604 08-11-2015 01:00:00 14.48333 C 11.93 g/m*3 14.48 C 0.53333 km/h
2605 08-11-2015 02:00:00 13.96667 C 11.6 g/m*3 13.97 C 1.875 km/h
2606 08-11-2015 03:00:00 13.56667 C 11.32 g/m*3 13.57 C 2.8 km/h
2607 08-11-2015 04:00:00 12.36667 C 10.45 g/m*3 12.37 C 0 km/h
2608 08-11-2015 05:00:00 11.49167 C 9.89 g/m*3 11.49 C 0 km/h
2609 08-11-2015 06:00:00 10.86667 C 9.55 g/m*3 10.87 C 0 km/h
2610 08-11-2015 07:00:00 10.41667 C 9.33 g/m*3 10.42 C 0 km/h
2611 08-11-2015 08:00:00 10 C 9.09 g/m*3 10 C 0 km/h
2612 08-11-2015 09:00:00 10.51667 C 9.42 g/m*3 10.52 C 0 km/h
2613 08-11-2015 10:00:00 10.80833 C 9.59 g/m*3 10.81 C 0 km/h
2614 08-11-2015 11:00:00 11.45 C 10.05 g/m*3 11.45 C 0 km/h
2615 08-11-2015 12:00:00 13.375 C 11.37 g/m*3 13.38 C 0 km/h
2616 08-11-2015 13:00:00 14.60833 C 12.1 g/m*3 14.61 C 0 km/h
2617 08-11-2015 14:00:00 16.7 C 12.9 g/m*3 16.7 C 0 km/h
2618 08-11-2015 15:00:00 17.01667 C 12.72 g/m*3 17.02 C 0.13333 km/h
2619 08-11-2015 16:00:00 15.88333 C 12.02 g/m*3 15.88 C 0.93333 km/h
2620 08-11-2015 17:00:00 14.24167 C 11.29 g/m*3 14.24 C 2 km/h
2621 08-11-2015 18:00:00 13.51667 C 10.96 g/m*3 13.52 C 2.93333 km/h
2622 08-11-2015 19:00:00 12.9 C 10.69 g/m*3 12.9 C 2.53333 km/h
2623 08-11-2015 20:00:00 12.63333 C 10.62 g/m*3 12.63 C 1.73333 km/h
2624 08-11-2015 21:00:00 12.18333 C 10.35 g/m*3 12.18 C 0 km/h
2625 08-11-2015 22:00:00 11.60833 C 10.03 g/m*3 11.61 C 0 km/h
Sensor: Nr:Datum:Temp:Abs-Feuchte:Windchill:Wind:
Aussen-T/F 2626 08-11-2015 23:00:00 11.675 C 10.12 g/m*3 11.68 C 0.66667 km/h
2627 09-11-2015 00:00:00 11.44167 C 9.99 g/m*3 11.44 C 1.60833 km/h
2628 09-11-2015 01:00:00 13.01667 C 10.97 g/m*3 13.02 C 10.075 km/h
2629 09-11-2015 02:00:00 15.25 C 11.36 g/m*3 15.25 C 10.89167 km/h
2630 09-11-2015 03:00:00 15.44167 C 11.29 g/m*3 15.44 C 9 km/h
2631 09-11-2015 04:00:00 15.15833 C 11.25 g/m*3 15.16 C 6.98333 km/h
2632 09-11-2015 05:00:00 15.04167 C 11.34 g/m*3 15.04 C 6.3 km/h
2633 09-11-2015 06:00:00 15.04167 C 11.46 g/m*3 15.04 C 6.975 km/h
2634 09-11-2015 07:00:00 14.9 C 11.87 g/m*3 14.9 C 4.275 km/h
2635 09-11-2015 08:00:00 14.325 C 11.75 g/m*3 14.33 C 1.6 km/h
2636 09-11-2015 09:00:00 14.54167 C 11.99 g/m*3 14.54 C 1.46667 km/h
2637 09-11-2015 10:00:00 14.34167 C 11.89 g/m*3 14.34 C 4.28333 km/h
2638 09-11-2015 11:00:00 15.84167 C 11.53 g/m*3 15.84 C 15.83333 km/h
2639 09-11-2015 12:00:00 16.85833 C 10.7 g/m*3 16.86 C 16.36667 km/h
2640 09-11-2015 13:00:00 16.68333 C 9.57 g/m*3 16.68 C 22.39167 km/h
2641 09-11-2015 14:00:00 15.9 C 9.43 g/m*3 15.9 C 11.56667 km/h
2642 09-11-2015 15:00:00 15.44286 C 9.5 g/m*3 15.44 C 8.74286 km/h
2643 09-11-2015 16:00:00 15.1 C 9.55 g/m*3 15.1 C 1.6 km/h
2644 09-11-2015 17:00:00 14.43333 C 9.3 g/m*3 14.43 C 6.975 km/h
2645 09-11-2015 18:00:00 14.54167 C 9.22 g/m*3 14.54 C 11 km/h
2646 09-11-2015 19:00:00 14.725 C 9.11 g/m*3 14.73 C 16.5 km/h
2647 09-11-2015 20:00:00 14.75 C 9.47 g/m*3 14.75 C 14.5 km/h
2648 09-11-2015 21:00:00 14.55 C 9.68 g/m*3 14.55 C 13.575 km/h
2649 09-11-2015 22:00:00 14.35833 C 9.6 g/m*3 14.36 C 17.16667 km/h
2650 09-11-2015 23:00:00 14.25 C 9.46 g/m*3 14.25 C 18.36667 km/h
Sensor: Nr:Datum:Temp:Abs-Feuchte:Windchill:Wind:
Aussen-T/F 2651 10-11-2015 00:00:00 14.06667 C 9.36 g/m*3 14.07 C 13.96667 km/h
2652 10-11-2015 01:00:00 13.825 C 9.28 g/m*3 13.83 C 15.56667 km/h
2653 10-11-2015 02:00:00 13.76667 C 9.32 g/m*3 13.77 C 15.69167 km/h
2654 10-11-2015 03:00:00 13.48333 C 9.33 g/m*3 13.48 C 16.36667 km/h
2655 10-11-2015 04:00:00 12.96667 C 9.23 g/m*3 12.97 C 9.53333 km/h
2656 10-11-2015 05:00:00 12.79167 C 9.24 g/m*3 12.79 C 9.55 km/h
2657 10-11-2015 06:00:00 12.675 C 9.1 g/m*3 12.68 C 11.3 km/h
2658 10-11-2015 07:00:00 12.575 C 9.14 g/m*3 12.58 C 14.1 km/h
2659 10-11-2015 08:00:00 12.74167 C 9.26 g/m*3 12.74 C 15.03333 km/h
2660 10-11-2015 09:00:00 12.95 C 9.38 g/m*3 12.95 C 14.76667 km/h
2661 10-11-2015 10:00:00 13.14167 C 9.5 g/m*3 13.14 C 16.76667 km/h
2662 10-11-2015 11:00:00 13.55 C 9.65 g/m*3 13.55 C 16.5 km/h
2663 10-11-2015 12:00:00 13.45833 C 9.67 g/m*3 13.46 C 10.06667 km/h
2664 10-11-2015 13:00:00 13.43333 C 9.78 g/m*3 13.43 C 9.275 km/h
2665 10-11-2015 14:00:00 13.525 C 9.85 g/m*3 13.53 C 14.63333 km/h
2666 10-11-2015 15:00:00 13.35 C 9.8 g/m*3 13.35 C 16.5 km/h
2667 10-11-2015 16:00:00 13.26667 C 9.85 g/m*3 13.27 C 13.7 km/h
2668 10-11-2015 17:00:00 13.16667 C 9.88 g/m*3 13.17 C 12.9 km/h
2669 10-11-2015 18:00:00 12.75833 C 9.84 g/m*3 12.76 C 13.43333 km/h
2670 10-11-2015 19:00:00 12.54167 C 9.91 g/m*3 12.54 C 14.1 km/h
2671 10-11-2015 20:00:00 12.40833 C 9.84 g/m*3 12.41 C 13.83333 km/h
2672 10-11-2015 21:00:00 12.55 C 9.93 g/m*3 12.55 C 11.81667 km/h
2673 10-11-2015 22:00:00 12.56667 C 9.95 g/m*3 12.57 C 2.675 km/h
2674 10-11-2015 23:00:00 12.35 C 9.91 g/m*3 12.35 C 2.13333 km/h
2675 11-11-2015 00:00:00 12.35833 C 9.9 g/m*3 12.36 C 5.76667 km/h
Sensor: Nr:Datum:Temp:Abs-Feuchte:Windchill:Wind:
Aussen-T/F 2676 11-11-2015 01:00:00 12.40833 C 9.96 g/m*3 12.41 C 8.2 km/h
2677 11-11-2015 02:00:00 12.30833 C 9.89 g/m*3 12.31 C 7.10833 km/h
2678 11-11-2015 03:00:00 11.7 C 9.54 g/m*3 11.7 C 3.75833 km/h
2679 11-11-2015 04:00:00 11.775 C 9.67 g/m*3 11.78 C 9.40833 km/h
2680 11-11-2015 05:00:00 12.075 C 9.74 g/m*3 12.08 C 9.94167 km/h
2681 11-11-2015 06:00:00 12.04167 C 9.63 g/m*3 12.04 C 6.98333 km/h
2682 11-11-2015 07:00:00 11.80833 C 9.44 g/m*3 11.81 C 5.9 km/h
2683 11-11-2015 08:00:00 11.8 C 9.15 g/m*3 11.8 C 4.68333 km/h
2684 11-11-2015 09:00:00 12.01667 C 8.71 g/m*3 12.02 C 9.00833 km/h
2685 11-11-2015 10:00:00 12.36667 C 8.62 g/m*3 12.37 C 10.75833 km/h
2686 11-11-2015 11:00:00 12.49167 C 8.39 g/m*3 12.49 C 12.63333 km/h
2687 11-11-2015 12:00:00 12.775 C 8.41 g/m*3 12.78 C 11.43333 km/h
2688 11-11-2015 13:00:00 12.975 C 8.43 g/m*3 12.98 C 10.21667 km/h
2689 11-11-2015 14:00:00 13.25833 C 8.47 g/m*3 13.26 C 9.55 km/h
2690 11-11-2015 15:00:00 12.64167 C 8.46 g/m*3 12.64 C 5.24167 km/h
2691 11-11-2015 16:00:00 11.35 C 8.29 g/m*3 11.35 C 2.53333 km/h
2692 11-11-2015 17:00:00 9.78333 C 7.95 g/m*3 9.78 C 2.8 km/h
2693 11-11-2015 18:00:00 9.375 C 7.92 g/m*3 9.38 C 3.35833 km/h
2694 11-11-2015 19:00:00 10.51667 C 7.97 g/m*3 9.89 C 6.7 km/h
2695 11-11-2015 20:00:00 10.89167 C 8.14 g/m*3 10.89 C 1.33333 km/h
2696 11-11-2015 21:00:00 10.7 C 8.41 g/m*3 10.7 C 0 km/h
2697 11-11-2015 22:00:00 10.66667 C 8.58 g/m*3 10.67 C 0 km/h
2698 11-11-2015 23:00:00 10.875 C 8.71 g/m*3 10.88 C 0 km/h
2699 12-11-2015 00:00:00 11.075 C 8.82 g/m*3 11.08 C 0.4 km/h
2700 12-11-2015 01:00:00 11.275 C 8.99 g/m*3 11.28 C 0.53333 km/h
Sensor: Nr:Datum:Temp:Abs-Feuchte:Windchill:Wind:
Aussen-T/F 2701 12-11-2015 02:00:00 11.425 C 9.09 g/m*3 11.43 C 1.2 km/h
2702 12-11-2015 03:00:00 12.1 C 9.31 g/m*3 12.1 C 6.44167 km/h
2703 12-11-2015 04:00:00 12.05 C 9.39 g/m*3 12.05 C 6.29167 km/h
2704 12-11-2015 05:00:00 11.9 C 9.46 g/m*3 11.9 C 6.29167 km/h
2705 12-11-2015 06:00:00 11.825 C 9.57 g/m*3 11.83 C 7.93333 km/h
2706 12-11-2015 07:00:00 11.56667 C 9.45 g/m*3 11.57 C 2.53333 km/h
2707 12-11-2015 08:00:00 11.06667 C 9.26 g/m*3 11.07 C 1.06667 km/h
2708 12-11-2015 09:00:00 11.75833 C 9.66 g/m*3 11.76 C 9.28333 km/h
2709 12-11-2015 10:00:00 12.60833 C 9.78 g/m*3 12.61 C 7.925 km/h
2710 12-11-2015 11:00:00 13.41667 C 9.88 g/m*3 13.42 C 10.63333 km/h
2711 12-11-2015 12:00:00 13.53333 C 9.86 g/m*3 13.53 C 5.375 km/h
2712 12-11-2015 13:00:00 13.70833 C 9.51 g/m*3 13.71 C 4.95 km/h
2713 12-11-2015 14:00:00 13.61667 C 9.36 g/m*3 13.62 C 3.075 km/h
2714 12-11-2015 15:00:00 12.975 C 9.4 g/m*3 12.98 C 3.2 km/h
2715 12-11-2015 16:00:00 13.16667 C 9.62 g/m*3 13.17 C 2.4 km/h
2716 12-11-2015 17:00:00 12.74167 C 9.39 g/m*3 12.74 C 0.26667 km/h
2717 12-11-2015 18:00:00 12.50833 C 9.27 g/m*3 12.51 C 0 km/h
2718 12-11-2015 19:00:00 11.125 C 8.74 g/m*3 11.13 C 4.53333 km/h
2719 12-11-2015 20:00:00 10.15 C 8.54 g/m*3 10.15 C 2 km/h
2720 12-11-2015 21:00:00 9.15833 C 8.23 g/m*3 9.16 C 0 km/h
2721 12-11-2015 22:00:00 8.61667 C 8.01 g/m*3 8.62 C 0 km/h
2722 12-11-2015 23:00:00 7.80833 C 7.7 g/m*3 7.81 C 0 km/h
2723 13-11-2015 00:00:00 7.05833 C 7.39 g/m*3 7.06 C 0 km/h
2724 13-11-2015 01:00:00 7.56667 C 7.72 g/m*3 7.57 C 0 km/h
2725 13-11-2015 02:00:00 8.15 C 8.01 g/m*3 8.15 C 0 km/h
Sensor: Nr:Datum:Temp:Abs-Feuchte:Windchill:Wind:
Aussen-T/F 2726 13-11-2015 03:00:00 8.45 C 8.17 g/m*3 8.45 C 1.73333 km/h
2727 13-11-2015 04:00:00 8.55833 C 8.22 g/m*3 8.56 C 4.41667 km/h
2728 13-11-2015 05:00:00 8.90833 C 8.35 g/m*3 8.91 C 4.54167 km/h
2729 13-11-2015 06:00:00 9.73333 C 8.66 g/m*3 9.23 C 5.75 km/h
2730 13-11-2015 07:00:00 9.375 C 8.41 g/m*3 9.38 C 1.06667 km/h
2731 13-11-2015 08:00:00 9.68333 C 8.66 g/m*3 9.68 C 0.4 km/h
2732 13-11-2015 09:00:00 11 C 9.11 g/m*3 10.54 C 6.31667 km/h
2733 13-11-2015 10:00:00 11.95833 C 9.25 g/m*3 11.96 C 12.9 km/h
2734 13-11-2015 11:00:00 12.44167 C 9.44 g/m*3 12.44 C 14.9 km/h
2735 13-11-2015 12:00:00 13 C 9.59 g/m*3 13 C 15.96667 km/h
2736 13-11-2015 13:00:00 13.3 C 9.7 g/m*3 13.3 C 13.3 km/h
2737 13-11-2015 14:00:00 13.18333 C 9.73 g/m*3 13.18 C 10.75833 km/h
2738 13-11-2015 15:00:00 13.09167 C 9.87 g/m*3 13.09 C 9.00833 km/h
2739 13-11-2015 16:00:00 12.98333 C 10.07 g/m*3 12.98 C 8.33333 km/h
2740 13-11-2015 17:00:00 12.50833 C 9.85 g/m*3 12.51 C 9.95 km/h
2741 13-11-2015 18:00:00 12.30833 C 9.42 g/m*3 12.31 C 10.08333 km/h
2742 13-11-2015 19:00:00 11.51667 C 8.38 g/m*3 11.52 C 6.58333 km/h
2743 13-11-2015 20:00:00 10.84167 C 7.85 g/m*3 9.08 C 13.95833 km/h
2744 13-11-2015 21:00:00 10.05833 C 7.19 g/m*3 8.35 C 12.225 km/h
2745 13-11-2015 22:00:00 8.91667 C 6.88 g/m*3 7.87 C 7.39167 km/h
2746 13-11-2015 23:00:00 7.85833 C 6.75 g/m*3 7.12 C 5.625 km/h
2747 14-11-2015 00:00:00 7.71667 C 6.6 g/m*3 7.72 C 4.825 km/h
2748 14-11-2015 01:00:00 7.375 C 6.45 g/m*3 6.41 C 6.15833 km/h
2749 14-11-2015 02:00:00 7.56667 C 6.61 g/m*3 5.76 C 9.80833 km/h
2750 14-11-2015 03:00:00 7.75833 C 6.87 g/m*3 6.21 C 8.73333 km/h
Sensor: Nr:Datum:Temp:Abs-Feuchte:Windchill:Wind:
Aussen-T/F 2751 14-11-2015 04:00:00 7.725 C 6.95 g/m*3 5.8 C 10.625 km/h
2752 14-11-2015 05:00:00 7.975 C 6.96 g/m*3 5.22 C 16.5 km/h
2753 14-11-2015 06:00:00 8.225 C 6.97 g/m*3 5.55 C 16.36667 km/h
2754 14-11-2015 07:00:00 8.31667 C 7 g/m*3 5.65 C 16.5 km/h
2755 14-11-2015 08:00:00 8.59167 C 7.07 g/m*3 6.02 C 16.23333 km/h
2756 14-11-2015 09:00:00 8.94167 C 7.09 g/m*3 6.5 C 15.83333 km/h
2757 14-11-2015 10:00:00 9.25 C 7.15 g/m*3 6.94 C 15.43333 km/h
2758 14-11-2015 11:00:00 10 C 7.31 g/m*3 7.61 C 17.70833 km/h
2759 14-11-2015 12:00:00 10.425 C 7.41 g/m*3 8.47 C 14.76667 km/h
2760 14-11-2015 13:00:00 10.50833 C 7.58 g/m*3 8.63 C 14.225 km/h
2761 14-11-2015 14:00:00 10.075 C 7.84 g/m*3 8.1 C 14.23333 km/h
2762 14-11-2015 15:00:00 9.325 C 7.95 g/m*3 7.79 C 10.2 km/h
2763 14-11-2015 16:00:00 8.875 C 7.95 g/m*3 8.17 C 6.025 km/h
2764 14-11-2015 17:00:00 8.7 C 7.86 g/m*3 8.21 C 5.20833 km/h
2765 14-11-2015 18:00:00 8.79167 C 7.89 g/m*3 8.79 C 2.26667 km/h
2766 14-11-2015 19:00:00 9.2 C 7.86 g/m*3 7.1 C 13.69167 km/h
2767 14-11-2015 20:00:00 9.74167 C 7.7 g/m*3 7.68 C 14.36667 km/h
2768 14-11-2015 21:00:00 9.68333 C 7.56 g/m*3 7.75 C 13.3 km/h
2769 14-11-2015 22:00:00 9.71667 C 7.52 g/m*3 7.45 C 15.96667 km/h
2770 14-11-2015 23:00:00 9.55 C 7.67 g/m*3 6.8 C 20.11667 km/h
2771 15-11-2015 00:00:00 9.39167 C 7.78 g/m*3 6.15 C 25.06667 km/h
2772 15-11-2015 01:00:00 9.66667 C 7.98 g/m*3 6.68 C 23.05 km/h
2773 15-11-2015 02:00:00 9.925 C 8.19 g/m*3 7.12 C 21.71667 km/h
2774 15-11-2015 03:00:00 10.25833 C 8.42 g/m*3 7.57 C 21.44167 km/h
2775 15-11-2015 04:00:00 10.60833 C 8.64 g/m*3 7.7 C 25.35 km/h
Sensor: Nr:Datum:Temp:Abs-Feuchte:Windchill:Wind:
Aussen-T/F 2776 15-11-2015 05:00:00 11.15 C 8.88 g/m*3 11.15 C 17.16667 km/h
2777 15-11-2015 06:00:00 11.3 C 9.01 g/m*3 11.3 C 15.7 km/h
2778 15-11-2015 07:00:00 11.79167 C 9.14 g/m*3 11.79 C 19.175 km/h
2779 15-11-2015 08:00:00 12.19167 C 9.28 g/m*3 12.19 C 19.30833 km/h
2780 15-11-2015 09:00:00 12.69167 C 9.45 g/m*3 12.69 C 19.575 km/h
2781 15-11-2015 10:00:00 13.49167 C 9.74 g/m*3 13.49 C 19.56667 km/h
2782 15-11-2015 11:00:00 14.43333 C 10 g/m*3 14.43 C 22.24167 km/h
2783 15-11-2015 12:00:00 14.825 C 10.12 g/m*3 14.83 C 22.91667 km/h
2784 15-11-2015 13:00:00 15.09167 C 10.2 g/m*3 15.09 C 22.25 km/h
2785 15-11-2015 14:00:00 14.91667 C 10.08 g/m*3 14.92 C 21.85833 km/h
2786 15-11-2015 15:00:00 14.71667 C 10 g/m*3 14.72 C 19.30833 km/h
2787 15-11-2015 16:00:00 14.28333 C 9.87 g/m*3 14.28 C 16.9 km/h
2788 15-11-2015 17:00:00 13.475 C 9.74 g/m*3 13.48 C 15.16667 km/h
2789 15-11-2015 18:00:00 13.23333 C 9.66 g/m*3 13.23 C 15.56667 km/h
2790 15-11-2015 19:00:00 13.14167 C 9.52 g/m*3 13.14 C 14.76667 km/h
2791 15-11-2015 20:00:00 12.9 C 9.34 g/m*3 12.9 C 15.56667 km/h
2792 15-11-2015 21:00:00 12.68333 C 9.29 g/m*3 12.68 C 9.78333 km/h
2793 15-11-2015 22:00:00 12.46667 C 9.34 g/m*3 12.47 C 2.93333 km/h
2794 15-11-2015 23:00:00 12.29167 C 9.3 g/m*3 12.29 C 6.28333 km/h
2795 16-11-2015 00:00:00 12.14167 C 9.22 g/m*3 12.14 C 7.50833 km/h
2796 16-11-2015 01:00:00 12.39167 C 9.19 g/m*3 12.39 C 4.00833 km/h
2797 16-11-2015 02:00:00 12.28333 C 9.1 g/m*3 12.28 C 6.70833 km/h
2798 16-11-2015 03:00:00 11.96667 C 8.96 g/m*3 11.97 C 11.025 km/h
2799 16-11-2015 04:00:00 11.6 C 8.86 g/m*3 11.6 C 6.98333 km/h
2800 16-11-2015 05:00:00 10.96667 C 8.53 g/m*3 10.97 C 4.675 km/h
Sensor: Nr:Datum:Temp:Abs-Feuchte:Windchill:Wind:
Aussen-T/F 2801 16-11-2015 06:00:00 10.45833 C 8.38 g/m*3 10.46 C 2.8 km/h
2802 16-11-2015 07:00:00 10.78333 C 8.2 g/m*3 9.43 C 10.875 km/h
2803 16-11-2015 08:00:00 10.78333 C 7.89 g/m*3 10.09 C 7.23333 km/h
2804 16-11-2015 09:00:00 10.91667 C 7.92 g/m*3 9.95 C 8.725 km/h
2805 16-11-2015 10:00:00 11.29167 C 7.95 g/m*3 11.29 C 13.43333 km/h
2806 16-11-2015 11:00:00 11.725 C 8.15 g/m*3 11.73 C 17.03333 km/h
2807 16-11-2015 12:00:00 11.88333 C 8.28 g/m*3 11.88 C 15.16667 km/h
2808 16-11-2015 13:00:00 11.825 C 8.4 g/m*3 11.83 C 8.325 km/h
2809 16-11-2015 14:00:00 12.03333 C 8.55 g/m*3 12.03 C 11.15833 km/h
2810 16-11-2015 15:00:00 12 C 8.6 g/m*3 12 C 12.09167 km/h
2811 16-11-2015 16:00:00 11.81667 C 8.67 g/m*3 11.82 C 11.96667 km/h
2812 16-11-2015 17:00:00 11.50833 C 8.83 g/m*3 11.51 C 15.7 km/h
2813 16-11-2015 18:00:00 11.3 C 8.98 g/m*3 11.3 C 14.63333 km/h
2814 16-11-2015 19:00:00 11.59167 C 9.22 g/m*3 11.59 C 16.76667 km/h
2815 16-11-2015 20:00:00 11.79167 C 9.34 g/m*3 11.79 C 11.7 km/h
2816 16-11-2015 21:00:00 11.90833 C 9.4 g/m*3 11.91 C 15.7 km/h
2817 16-11-2015 22:00:00 12.04167 C 9.43 g/m*3 12.04 C 14.23333 km/h
2818 16-11-2015 23:00:00 12.21667 C 9.51 g/m*3 12.22 C 15.025 km/h
2819 17-11-2015 00:00:00 12.3 C 9.64 g/m*3 12.3 C 10.35 km/h
2820 17-11-2015 01:00:00 12.55833 C 9.78 g/m*3 12.56 C 11.025 km/h
2821 17-11-2015 02:00:00 12.875 C 9.92 g/m*3 12.88 C 11.29167 km/h
2822 17-11-2015 03:00:00 13.21667 C 10.06 g/m*3 13.22 C 13.025 km/h
2823 17-11-2015 04:00:00 12.84167 C 10.17 g/m*3 12.84 C 9.81667 km/h
2824 17-11-2015 05:00:00 12.675 C 10.21 g/m*3 12.68 C 12.20833 km/h
2825 17-11-2015 06:00:00 12.99167 C 10.18 g/m*3 12.99 C 16.76667 km/h
Sensor: Nr:Datum:Temp:Abs-Feuchte:Windchill:Wind:
Aussen-T/F 2826 17-11-2015 07:00:00 13.41667 C 10.26 g/m*3 13.42 C 20.36667 km/h
2827 17-11-2015 08:00:00 13.19167 C 10.51 g/m*3 13.19 C 17.43333 km/h
2828 17-11-2015 09:00:00 13.35 C 10.57 g/m*3 13.35 C 13.55833 km/h
2829 17-11-2015 10:00:00 13.39167 C 10.78 g/m*3 13.39 C 8.725 km/h
2830 17-11-2015 11:00:00 14.05 C 11.13 g/m*3 14.05 C 11.025 km/h
2831 17-11-2015 12:00:00 13.99167 C 11.31 g/m*3 13.99 C 5.75833 km/h
2832 17-11-2015 13:00:00 14.59167 C 11.53 g/m*3 14.59 C 7.36667 km/h
2833 17-11-2015 14:00:00 14.9 C 11.35 g/m*3 14.9 C 12.1 km/h
2834 17-11-2015 15:00:00 15.06667 C 11.1 g/m*3 15.07 C 12.36667 km/h
2835 17-11-2015 16:00:00 14.85833 C 11.03 g/m*3 14.86 C 8.46667 km/h
2836 17-11-2015 17:00:00 14.89167 C 11.1 g/m*3 14.89 C 13.95833 km/h
2837 17-11-2015 18:00:00 14.68333 C 11.28 g/m*3 14.68 C 13.56667 km/h
2838 17-11-2015 19:00:00 15.075 C 11.37 g/m*3 15.08 C 16.5 km/h
2839 17-11-2015 20:00:00 15.025 C 11.41 g/m*3 15.03 C 13.96667 km/h
2840 17-11-2015 21:00:00 15.26667 C 11.45 g/m*3 15.27 C 17.04167 km/h
2841 17-11-2015 22:00:00 15.725 C 11.74 g/m*3 15.73 C 20.64167 km/h
2842 17-11-2015 23:00:00 16 C 11.68 g/m*3 16 C 26.675 km/h
2843 18-11-2015 00:00:00 15.81667 C 10.82 g/m*3 15.82 C 19.975 km/h
2844 18-11-2015 01:00:00 15.70833 C 10.53 g/m*3 15.71 C 17.44167 km/h
2845 18-11-2015 02:00:00 15.46667 C 10.17 g/m*3 15.47 C 16.1 km/h
2846 18-11-2015 03:00:00 15.11667 C 9 g/m*3 15.12 C 21.59167 km/h
2847 18-11-2015 04:00:00 14.19167 C 8.7 g/m*3 14.19 C 16.23333 km/h
2848 18-11-2015 05:00:00 13.90833 C 8.64 g/m*3 13.91 C 15.83333 km/h
2849 18-11-2015 06:00:00 13.8 C 8.69 g/m*3 13.8 C 17.16667 km/h
2850 18-11-2015 07:00:00 13.5 C 8.61 g/m*3 13.5 C 12.76667 km/h
Sensor: Nr:Datum:Temp:Abs-Feuchte:Windchill:Wind:
Aussen-T/F 2851 18-11-2015 08:00:00 13.4 C 8.62 g/m*3 13.4 C 13.96667 km/h
2852 18-11-2015 09:00:00 13.575 C 8.72 g/m*3 13.58 C 13.425 km/h
2853 18-11-2015 10:00:00 13.90833 C 8.73 g/m*3 13.91 C 15.03333 km/h
2854 18-11-2015 11:00:00 14.09167 C 8.84 g/m*3 14.09 C 13.7 km/h
2855 18-11-2015 12:00:00 14.175 C 8.67 g/m*3 14.18 C 13.28333 km/h
2856 18-11-2015 13:00:00 14.11667 C 8.46 g/m*3 14.12 C 14.36667 km/h
2857 18-11-2015 14:00:00 13.86667 C 8.35 g/m*3 13.87 C 15.96667 km/h
2858 18-11-2015 15:00:00 13.58333 C 8.15 g/m*3 13.58 C 17.84167 km/h
2859 18-11-2015 16:00:00 13.075 C 7.98 g/m*3 13.08 C 14.49167 km/h
2860 18-11-2015 17:00:00 12.76667 C 8.05 g/m*3 12.77 C 17.70833 km/h
2861 18-11-2015 18:00:00 12.64167 C 8.06 g/m*3 12.64 C 17.44167 km/h
2862 18-11-2015 19:00:00 12.825 C 8.31 g/m*3 12.83 C 20.11667 km/h
2863 18-11-2015 20:00:00 13.03333 C 8.47 g/m*3 13.03 C 25.60833 km/h
2864 18-11-2015 21:00:00 13.14167 C 8.65 g/m*3 13.14 C 23.71667 km/h
2865 18-11-2015 22:00:00 13.475 C 8.9 g/m*3 13.48 C 20.64167 km/h
2866 18-11-2015 23:00:00 13.84167 C 9.23 g/m*3 13.84 C 15.83333 km/h
2867 19-11-2015 00:00:00 14.24167 C 9.59 g/m*3 14.24 C 15.96667 km/h
2868 19-11-2015 01:00:00 14.26667 C 9.84 g/m*3 14.27 C 15.03333 km/h
2869 19-11-2015 02:00:00 14.55 C 9.83 g/m*3 14.55 C 14.36667 km/h
2870 19-11-2015 03:00:00 14.325 C 10.15 g/m*3 14.33 C 8.45833 km/h
2871 19-11-2015 04:00:00 13.65833 C 9.97 g/m*3 13.66 C 10.88333 km/h
2872 19-11-2015 05:00:00 14 C 9.47 g/m*3 14 C 10.48333 km/h
2873 19-11-2015 06:00:00 13.56667 C 9.37 g/m*3 13.57 C 15.84167 km/h
2874 19-11-2015 07:00:00 13.325 C 9.07 g/m*3 13.33 C 11.40833 km/h
2875 19-11-2015 08:00:00 13.09167 C 9.11 g/m*3 13.09 C 13.55833 km/h
Sensor: Nr:Datum:Temp:Abs-Feuchte:Windchill:Wind:
Aussen-T/F 2876 19-11-2015 09:00:00 13.13333 C 8.47 g/m*3 13.13 C 15.83333 km/h
2877 19-11-2015 10:00:00 13.18333 C 8.29 g/m*3 13.18 C 17.56667 km/h
2878 19-11-2015 11:00:00 12.99167 C 9.08 g/m*3 12.99 C 16.1 km/h
2879 19-11-2015 12:00:00 12.89167 C 9.63 g/m*3 12.89 C 14.63333 km/h
2880 19-11-2015 13:00:00 12.775 C 9.65 g/m*3 12.78 C 14.1 km/h
2881 19-11-2015 14:00:00 11.83333 C 9.74 g/m*3 11.83 C 6.575 km/h
2882 19-11-2015 15:00:00 11.41667 C 9.44 g/m*3 11.42 C 13.025 km/h
2883 19-11-2015 16:00:00 11.13333 C 9.3 g/m*3 11.13 C 4.95 km/h
2884 19-11-2015 17:00:00 10.38333 C 9.02 g/m*3 10.38 C 3.88333 km/h
2885 19-11-2015 18:00:00 10.05833 C 8.94 g/m*3 10.06 C 0.13333 km/h
2886 19-11-2015 19:00:00 9.925 C 8.93 g/m*3 9.93 C 0 km/h
2887 19-11-2015 20:00:00 10.1 C 9.09 g/m*3 10.1 C 1.74167 km/h
2888 19-11-2015 21:00:00 10.55833 C 9.31 g/m*3 8.66 C 14.50833 km/h
2889 19-11-2015 22:00:00 9.33333 C 8.51 g/m*3 8.39 C 7.24167 km/h
2890 19-11-2015 23:00:00 8.925 C 8.36 g/m*3 8.93 C 1.06667 km/h
2891 20-11-2015 00:00:00 8.99167 C 8.46 g/m*3 8.99 C 0 km/h
2892 20-11-2015 01:00:00 8.94167 C 8.43 g/m*3 8.94 C 0 km/h
2893 20-11-2015 02:00:00 9.41667 C 8.76 g/m*3 9.42 C 1.46667 km/h
2894 20-11-2015 03:00:00 9.725 C 8.96 g/m*3 9.73 C 2.4 km/h
2895 20-11-2015 04:00:00 9.80833 C 9 g/m*3 9.81 C 2.13333 km/h
2896 20-11-2015 05:00:00 9.5 C 8.8 g/m*3 9.5 C 2.53333 km/h
2897 20-11-2015 06:00:00 8.75 C 8.3 g/m*3 8.75 C 3.875 km/h
2898 20-11-2015 07:00:00 8.54167 C 8.08 g/m*3 7.75 C 6.16667 km/h
2899 20-11-2015 08:00:00 8.7 C 7.96 g/m*3 8.7 C 4.8 km/h
2900 20-11-2015 09:00:00 8.66667 C 7.9 g/m*3 7.37 C 8.325 km/h
Sensor: Nr:Datum:Temp:Abs-Feuchte:Windchill:Wind:
Aussen-T/F 2901 20-11-2015 10:00:00 8.675 C 7.87 g/m*3 7.83 C 6.43333 km/h
2902 20-11-2015 11:00:00 8.40833 C 7.9 g/m*3 7.67 C 5.89167 km/h
2903 20-11-2015 12:00:00 8.4 C 7.9 g/m*3 8.4 C 3.35 km/h
2904 20-11-2015 13:00:00 8.23333 C 7.89 g/m*3 8.23 C 3.33333 km/h
2905 20-11-2015 14:00:00 7.70833 C 7.62 g/m*3 7.71 C 4.14167 km/h
2906 20-11-2015 15:00:00 6.95 C 7.26 g/m*3 6.95 C 3.74167 km/h
2907 20-11-2015 16:00:00 6.40833 C 7.04 g/m*3 6.41 C 2 km/h
2908 20-11-2015 17:00:00 5.94167 C 6.87 g/m*3 5.94 C 3.86667 km/h
2909 20-11-2015 18:00:00 5.68333 C 6.8 g/m*3 5.68 C 2.26667 km/h
2910 20-11-2015 19:00:00 5.5 C 6.73 g/m*3 5.5 C 4.55 km/h
2911 20-11-2015 20:00:00 5.65 C 6.74 g/m*3 4.59 C 5.63333 km/h
2912 20-11-2015 21:00:00 5.275 C 6.57 g/m*3 5.28 C 1.33333 km/h
2913 20-11-2015 22:00:00 5.00833 C 6.44 g/m*3 5.01 C 3.20833 km/h
2914 20-11-2015 23:00:00 4.58333 C 6.21 g/m*3 4.58 C 4.68333 km/h
2915 21-11-2015 00:00:00 4.21667 C 6.05 g/m*3 3.01 C 5.48333 km/h
2916 21-11-2015 01:00:00 4.36667 C 6 g/m*3 2.3 C 8.33333 km/h
2917 21-11-2015 02:00:00 5.10833 C 6.11 g/m*3 2.89 C 9.55833 km/h
2918 21-11-2015 03:00:00 4.86667 C 6.02 g/m*3 2.86 C 8.45833 km/h
2919 21-11-2015 04:00:00 4.55833 C 5.87 g/m*3 2.17 C 9.80833 km/h
2920 21-11-2015 05:00:00 4.375 C 5.86 g/m*3 2.5 C 7.63333 km/h
2921 21-11-2015 06:00:00 4.63333 C 5.87 g/m*3 3.34 C 5.89167 km/h
2922 21-11-2015 07:00:00 4.28333 C 5.86 g/m*3 4.28 C 4.00833 km/h
2923 21-11-2015 08:00:00 4.48333 C 5.92 g/m*3 4.48 C 4.13333 km/h
2924 21-11-2015 09:00:00 4.725 C 6.07 g/m*3 4.72 C 0.53333 km/h
2925 21-11-2015 10:00:00 5.34167 C 6.2 g/m*3 5.34 C 0 km/h
Sensor: Nr:Datum:Temp:Abs-Feuchte:Windchill:Wind:
Aussen-T/F 2926 21-11-2015 11:00:00 6.025 C 6.3 g/m*3 6.03 C 3.46667 km/h
2927 21-11-2015 12:00:00 6.25833 C 6.27 g/m*3 6.26 C 3.48333 km/h
2928 21-11-2015 13:00:00 6.725 C 6.24 g/m*3 5.42 C 6.975 km/h
2929 21-11-2015 14:00:00 4.99167 C 5.87 g/m*3 3.49 C 6.71667 km/h
2930 21-11-2015 15:00:00 3.63333 C 5.77 g/m*3 3.63 C 2.4 km/h
2931 21-11-2015 16:00:00 2.025 C 5.19 g/m*3 2.03 C 1.6 km/h
2932 21-11-2015 17:00:00 1.975 C 5.27 g/m*3 1.98 C 0.93333 km/h
2933 21-11-2015 18:00:00 2.33333 C 5.45 g/m*3 2.33 C 0.53333 km/h
2934 21-11-2015 19:00:00 2.56667 C 5.54 g/m*3 2.57 C 2.66667 km/h
2935 21-11-2015 20:00:00 1.65833 C 5.19 g/m*3 1.66 C 3.6 km/h
2936 21-11-2015 21:00:00 1.10833 C 5.02 g/m*3 1.11 C 1.6 km/h
2937 21-11-2015 22:00:00 1.20833 C 5.06 g/m*3 1.21 C 0.4 km/h
2938 21-11-2015 23:00:00 1.65833 C 5.22 g/m*3 1.66 C 2 km/h
2939 22-11-2015 00:00:00 1.28333 C 5.08 g/m*3 1.28 C 1.86667 km/h
2940 22-11-2015 01:00:00 1.43333 C 5.17 g/m*3 1.43 C 2.4 km/h
2941 22-11-2015 02:00:00 1.9 C 5.35 g/m*3 1.9 C 2.26667 km/h
2942 22-11-2015 03:00:00 2.08333 C 5.41 g/m*3 2.08 C 2.13333 km/h
2943 22-11-2015 04:00:00 1.81667 C 5.31 g/m*3 1.82 C 1.73333 km/h
2944 22-11-2015 05:00:00 2.425 C 5.53 g/m*3 0.52 C 6.7 km/h
2945 22-11-2015 06:00:00 2.73333 C 5.45 g/m*3 0.2 C 8.99167 km/h
2946 22-11-2015 07:00:00 2.75833 C 5.37 g/m*3 0.69 C 7.36667 km/h
2947 22-11-2015 08:00:00 2.83333 C 5.37 g/m*3 1.53 C 5.225 km/h
2948 22-11-2015 09:00:00 3.08333 C 5.52 g/m*3 3.08 C 2.28333 km/h
2949 22-11-2015 10:00:00 3.58333 C 5.71 g/m*3 3.58 C 0.8 km/h
2950 22-11-2015 11:00:00 3.74167 C 5.71 g/m*3 3.74 C 2.675 km/h
Sensor: Nr:Datum:Temp:Abs-Feuchte:Windchill:Wind:
Aussen-T/F 2951 22-11-2015 12:00:00 4.54167 C 5.93 g/m*3 4.54 C 4.825 km/h
2952 22-11-2015 13:00:00 4.875 C 5.71 g/m*3 4.88 C 4.94167 km/h
2953 22-11-2015 14:00:00 5.45 C 5.44 g/m*3 2.96 C 11.15 km/h
2954 22-11-2015 15:00:00 5.35 C 5.29 g/m*3 3 C 10.35 km/h
2955 22-11-2015 16:00:00 4.64167 C 5.16 g/m*3 2.49 C 8.875 km/h
2956 22-11-2015 17:00:00 3.56667 C 5.12 g/m*3 0.2 C 13.69167 km/h
2957 22-11-2015 18:00:00 1.58333 C 5.04 g/m*3 -1.87 C 11.95 km/h
2958 22-11-2015 19:00:00 1.50833 C 5.1 g/m*3 1.51 C 4.825 km/h
2959 22-11-2015 20:00:00 1.60833 C 5.14 g/m*3 1.61 C 3.2 km/h
2960 22-11-2015 21:00:00 1.675 C 5.22 g/m*3 1.68 C 4.14167 km/h
2961 22-11-2015 22:00:00 2 C 5.32 g/m*3 2 C 4.96667 km/h
2962 22-11-2015 23:00:00 1.95833 C 5.18 g/m*3 -0.16 C 7.10833 km/h
2963 23-11-2015 00:00:00 1.68333 C 5.06 g/m*3 1.68 C 4.41667 km/h
2964 23-11-2015 01:00:00 1.84167 C 5.09 g/m*3 1.84 C 4.68333 km/h
2965 23-11-2015 02:00:00 2.24167 C 5.2 g/m*3 0.25 C 6.85833 km/h
2966 23-11-2015 03:00:00 2.68333 C 5.3 g/m*3 0.36 C 8.19167 km/h
2967 23-11-2015 04:00:00 2.70833 C 5.36 g/m*3 1.13 C 5.89167 km/h
2968 23-11-2015 05:00:00 2.7 C 5.36 g/m*3 2.7 C 4.81667 km/h
2969 23-11-2015 06:00:00 2.78333 C 5.39 g/m*3 1.12 C 6.15833 km/h
2970 23-11-2015 07:00:00 2.8 C 5.4 g/m*3 2.8 C 3.33333 km/h
2971 23-11-2015 08:00:00 2.9 C 5.43 g/m*3 2.9 C 4.675 km/h
2972 23-11-2015 09:00:00 3.05833 C 5.48 g/m*3 3.06 C 1.86667 km/h
2973 23-11-2015 10:00:00 3.38333 C 5.53 g/m*3 3.38 C 2.93333 km/h
2974 23-11-2015 11:00:00 3.825 C 5.58 g/m*3 3.83 C 2.93333 km/h
2975 23-11-2015 12:00:00 4.50833 C 5.75 g/m*3 4.51 C 4.26667 km/h
Sensor: Nr:Datum:Temp:Abs-Feuchte:Windchill:Wind:
Aussen-T/F 2976 23-11-2015 13:00:00 4.83333 C 5.69 g/m*3 3.76 C 5.34167 km/h
2977 23-11-2015 14:00:00 4.15 C 5.59 g/m*3 4.15 C 1.06667 km/h
2978 23-11-2015 15:00:00 3.45833 C 5.49 g/m*3 3.46 C 2.13333 km/h
2979 23-11-2015 16:00:00 2.68333 C 5.3 g/m*3 2.68 C 4.4 km/h
2980 23-11-2015 17:00:00 1.70833 C 5.08 g/m*3 1.71 C 1.60833 km/h
2981 23-11-2015 18:00:00 1.3 C 4.99 g/m*3 1.3 C 0 km/h
2982 23-11-2015 19:00:00 1.09167 C 4.96 g/m*3 1.09 C 0 km/h
2983 23-11-2015 20:00:00 0.85 C 4.88 g/m*3 0.85 C 0.4 km/h
2984 23-11-2015 21:00:00 0.875 C 4.89 g/m*3 0.88 C 0.26667 km/h
2985 23-11-2015 22:00:00 0.81667 C 4.88 g/m*3 0.82 C 0.13333 km/h
2986 23-11-2015 23:00:00 0.66667 C 4.86 g/m*3 0.67 C 0.26667 km/h
2987 24-11-2015 00:00:00 0.75833 C 4.9 g/m*3 0.76 C 0.53333 km/h
2988 24-11-2015 01:00:00 0.8 C 4.91 g/m*3 0.8 C 0 km/h
2989 24-11-2015 02:00:00 0.65833 C 4.87 g/m*3 0.66 C 0.13333 km/h
2990 24-11-2015 03:00:00 0.24167 C 4.73 g/m*3 0.24 C 0.4 km/h
2991 24-11-2015 04:00:00 -0.18333 C 4.59 g/m*3 -0.18 C 0 km/h
2992 24-11-2015 05:00:00 -0.05833 C 4.63 g/m*3 -0.06 C 0.4 km/h
2993 24-11-2015 06:00:00 -0.09167 C 4.62 g/m*3 -0.09 C 0.53333 km/h
2994 24-11-2015 07:00:00 -0.31667 C 4.55 g/m*3 -0.32 C 1.73333 km/h
2995 24-11-2015 08:00:00 0.16667 C 4.71 g/m*3 0.17 C 4.14167 km/h
2996 24-11-2015 09:00:00 0.99167 C 4.91 g/m*3 0.99 C 3.475 km/h
2997 24-11-2015 10:00:00 1.95 C 5.06 g/m*3 1.95 C 1.2 km/h
2998 24-11-2015 11:00:00 2.975 C 5.13 g/m*3 2.98 C 4.15 km/h
2999 24-11-2015 12:00:00 3.625 C 5.16 g/m*3 1.36 C 8.59167 km/h
3000 24-11-2015 13:00:00 3.71667 C 5.09 g/m*3 1.3 C 9.275 km/h
Sensor: Nr:Datum:Temp:Abs-Feuchte:Windchill:Wind:
Aussen-T/F 3001 24-11-2015 14:00:00 3.90833 C 5.1 g/m*3 2.32 C 6.43333 km/h
3002 24-11-2015 15:00:00 3.7 C 4.96 g/m*3 2.22 C 6.01667 km/h
3003 24-11-2015 16:00:00 3.36667 C 4.91 g/m*3 1.83 C 6.03333 km/h
3004 24-11-2015 17:00:00 3.15 C 4.9 g/m*3 3.15 C 4.825 km/h
3005 24-11-2015 18:00:00 3.21667 C 4.94 g/m*3 1.47 C 6.575 km/h
3006 24-11-2015 19:00:00 3.025 C 5.08 g/m*3 1.34 C 6.30833 km/h
3007 24-11-2015 20:00:00 2.21667 C 5.19 g/m*3 2.22 C 2.13333 km/h
3008 24-11-2015 21:00:00 2.3 C 5.26 g/m*3 0.46 C 6.43333 km/h
3009 24-11-2015 22:00:00 2.45833 C 5.3 g/m*3 0.55 C 6.70833 km/h
3010 24-11-2015 23:00:00 2.73333 C 5.34 g/m*3 -0.13 C 10.34167 km/h
3011 25-11-2015 00:00:00 2.76667 C 5.37 g/m*3 -0.47 C 12.09167 km/h
3012 25-11-2015 01:00:00 2.74167 C 5.43 g/m*3 -0.33 C 11.29167 km/h
3013 25-11-2015 02:00:00 2.83333 C 5.46 g/m*3 -0.39 C 12.1 km/h
3014 25-11-2015 03:00:00 2.85 C 5.51 g/m*3 0.63 C 7.925 km/h
3015 25-11-2015 04:00:00 3.00833 C 5.59 g/m*3 1.23 C 6.575 km/h
3016 25-11-2015 05:00:00 3.275 C 5.69 g/m*3 0.77 C 9.28333 km/h
3017 25-11-2015 06:00:00 3.53333 C 5.76 g/m*3 0.63 C 11.28333 km/h
3018 25-11-2015 07:00:00 3.79167 C 5.83 g/m*3 1.1 C 10.5 km/h
3019 25-11-2015 08:00:00 4.03333 C 5.93 g/m*3 1.67 C 9.275 km/h
3020 25-11-2015 09:00:00 4.35833 C 5.99 g/m*3 1.93 C 9.81667 km/h
3021 25-11-2015 10:00:00 4.825 C 6.17 g/m*3 3.06 C 7.50833 km/h
3022 25-11-2015 11:00:00 5.45833 C 6.34 g/m*3 3.63 C 8.18333 km/h
3023 25-11-2015 12:00:00 6.31667 C 6.53 g/m*3 3.79 C 12.36667 km/h
3024 25-11-2015 13:00:00 6.55 C 6.56 g/m*3 4.21 C 11.56667 km/h
3025 25-11-2015 14:00:00 6.23333 C 6.53 g/m*3 4.6 C 7.925 km/h
Sensor: Nr:Datum:Temp:Abs-Feuchte:Windchill:Wind:
Aussen-T/F 3026 25-11-2015 15:00:00 5.90833 C 6.4 g/m*3 4.76 C 6.01667 km/h
3027 25-11-2015 16:00:00 5.5 C 6.36 g/m*3 5.5 C 2.8 km/h
3028 25-11-2015 17:00:00 5.3 C 6.31 g/m*3 5.3 C 2.66667 km/h
3029 25-11-2015 18:00:00 5.3 C 6.31 g/m*3 5.3 C 1.33333 km/h
3030 25-11-2015 19:00:00 5.3 C 6.34 g/m*3 5.3 C 0.4 km/h
3031 25-11-2015 20:00:00 5.2 C 6.35 g/m*3 5.2 C 1.6 km/h
3032 25-11-2015 21:00:00 5.25 C 6.42 g/m*3 5.25 C 1.33333 km/h
3033 25-11-2015 22:00:00 5.36667 C 6.47 g/m*3 5.37 C 0.66667 km/h
3034 25-11-2015 23:00:00 5.575 C 6.48 g/m*3 5.58 C 4.14167 km/h
3035 26-11-2015 00:00:00 5.6 C 6.46 g/m*3 5.6 C 3.46667 km/h
3036 26-11-2015 01:00:00 5.325 C 6.41 g/m*3 5.33 C 2.54167 km/h
3037 26-11-2015 02:00:00 5.31667 C 6.45 g/m*3 5.32 C 2.4 km/h
3038 26-11-2015 03:00:00 5.4 C 6.45 g/m*3 5.4 C 2.675 km/h
3039 26-11-2015 04:00:00 5.475 C 6.48 g/m*3 5.48 C 3.86667 km/h
3040 26-11-2015 05:00:00 5.325 C 6.5 g/m*3 5.33 C 2.8 km/h
3041 26-11-2015 06:00:00 5.3 C 6.52 g/m*3 5.3 C 3.06667 km/h
3042 26-11-2015 07:00:00 5.18333 C 6.47 g/m*3 5.18 C 3.6 km/h
3043 26-11-2015 08:00:00 5.075 C 6.42 g/m*3 5.08 C 2.4 km/h
3044 26-11-2015 09:00:00 5.15 C 6.41 g/m*3 5.15 C 4.54167 km/h
3045 26-11-2015 10:00:00 5.24167 C 6.41 g/m*3 4.23 C 5.35 km/h
3046 26-11-2015 11:00:00 5.38333 C 6.41 g/m*3 3.71 C 7.525 km/h
3047 26-11-2015 12:00:00 5.55 C 6.42 g/m*3 5.55 C 4.54167 km/h
3048 26-11-2015 13:00:00 5.81667 C 6.42 g/m*3 5.82 C 3.86667 km/h
3049 26-11-2015 14:00:00 6.25 C 6.39 g/m*3 6.25 C 1.2 km/h
3050 26-11-2015 15:00:00 6.4 C 6.54 g/m*3 6.4 C 1.33333 km/h
Sensor: Nr:Datum:Temp:Abs-Feuchte:Windchill:Wind:
Aussen-T/F 3051 26-11-2015 16:00:00 6 C 6.53 g/m*3 6 C 0.13333 km/h
3052 26-11-2015 17:00:00 5.46667 C 6.48 g/m*3 5.47 C 0.26667 km/h
3053 26-11-2015 18:00:00 4.70833 C 6.19 g/m*3 4.71 C 3.46667 km/h
3054 26-11-2015 19:00:00 3.85 C 5.92 g/m*3 3.85 C 1.46667 km/h
3055 26-11-2015 20:00:00 3.50833 C 5.83 g/m*3 3.51 C 0.26667 km/h
3056 26-11-2015 21:00:00 2.60833 C 5.5 g/m*3 2.61 C 0.4 km/h
3057 26-11-2015 22:00:00 1.85 C 5.24 g/m*3 1.85 C 0 km/h
3058 26-11-2015 23:00:00 2.35833 C 5.47 g/m*3 2.36 C 1.2 km/h
3059 27-11-2015 00:00:00 2.6 C 5.56 g/m*3 2.6 C 1.2 km/h
3060 27-11-2015 01:00:00 2.41667 C 5.49 g/m*3 2.42 C 2.66667 km/h
3061 27-11-2015 02:00:00 2.09167 C 5.37 g/m*3 2.09 C 0.93333 km/h
3062 27-11-2015 03:00:00 1.56667 C 5.18 g/m*3 1.57 C 4.26667 km/h
3063 27-11-2015 04:00:00 1.2 C 5.09 g/m*3 1.2 C 1.06667 km/h
3064 27-11-2015 05:00:00 1.09167 C 5.07 g/m*3 1.09 C 0.8 km/h
3065 27-11-2015 06:00:00 1.21667 C 5.11 g/m*3 1.22 C 0.13333 km/h
3066 27-11-2015 07:00:00 1.525 C 5.22 g/m*3 1.53 C 1.73333 km/h
3067 27-11-2015 08:00:00 1.675 C 5.27 g/m*3 1.68 C 1.6 km/h
3068 27-11-2015 09:00:00 1.70833 C 5.28 g/m*3 1.71 C 4.26667 km/h
3069 27-11-2015 10:00:00 1.66667 C 5.27 g/m*3 -0.12 C 6.01667 km/h
3070 27-11-2015 11:00:00 1.875 C 5.34 g/m*3 1.88 C 3.2 km/h
3071 27-11-2015 12:00:00 2.48333 C 5.55 g/m*3 2.48 C 1.2 km/h
3072 27-11-2015 13:00:00 3.11667 C 5.74 g/m*3 3.12 C 1.46667 km/h
3073 27-11-2015 14:00:00 3.825 C 5.91 g/m*3 3.83 C 2.53333 km/h
3074 27-11-2015 15:00:00 4.025 C 5.91 g/m*3 2.95 C 5.075 km/h
3075 27-11-2015 16:00:00 3.63333 C 5.77 g/m*3 3.63 C 2.66667 km/h
Sensor: Nr:Datum:Temp:Abs-Feuchte:Windchill:Wind:
Aussen-T/F 3076 27-11-2015 17:00:00 3.23333 C 5.65 g/m*3 3.23 C 0.66667 km/h
3077 27-11-2015 18:00:00 2.98333 C 5.49 g/m*3 2.98 C 2.8 km/h
3078 27-11-2015 19:00:00 2.71667 C 5.32 g/m*3 2.72 C 0.93333 km/h
3079 27-11-2015 20:00:00 2.325 C 5.22 g/m*3 2.33 C 0.53333 km/h
3080 27-11-2015 21:00:00 2.06667 C 5.06 g/m*3 2.07 C 2.26667 km/h
3081 27-11-2015 22:00:00 1.71667 C 4.96 g/m*3 1.72 C 0.53333 km/h
3082 27-11-2015 23:00:00 0.83333 C 4.74 g/m*3 0.83 C 1.6 km/h
3083 28-11-2015 00:00:00 0.81667 C 4.84 g/m*3 0.82 C 0.13333 km/h
3084 28-11-2015 01:00:00 1.68333 C 5.04 g/m*3 1.68 C 3.625 km/h
3085 28-11-2015 02:00:00 2.15 C 5.2 g/m*3 2.15 C 1.46667 km/h
3086 28-11-2015 03:00:00 2.49167 C 5.27 g/m*3 2.49 C 3.74167 km/h
3087 28-11-2015 04:00:00 3.10833 C 5.39 g/m*3 3.11 C 1.86667 km/h
3088 28-11-2015 05:00:00 3.275 C 5.46 g/m*3 -0.25 C 14.225 km/h
3089 28-11-2015 06:00:00 3.16667 C 5.54 g/m*3 -0.87 C 17.3 km/h
3090 28-11-2015 07:00:00 3.275 C 5.63 g/m*3 -0.15 C 13.7 km/h
3091 28-11-2015 08:00:00 3.68333 C 5.84 g/m*3 1.13 C 9.81667 km/h
3092 28-11-2015 09:00:00 4.46364 C 6.23 g/m*3 3.01 C 6.28182 km/h
3093 28-11-2015 10:00:00 5 C 6.43 g/m*3 3.39 C 7.08 km/h
3094 28-11-2015 11:00:00 5.35833 C 6.38 g/m*3 3.44 C 8.45 km/h
3095 28-11-2015 12:00:00 5.975 C 5.92 g/m*3 3.11 C 13.96667 km/h
3096 28-11-2015 13:00:00 6.4 C 5.59 g/m*3 3.8 C 12.9 km/h
3097 28-11-2015 14:00:00 6.36667 C 5.45 g/m*3 3.87 C 12.23333 km/h
3098 28-11-2015 15:00:00 5.91667 C 5.46 g/m*3 3.6 C 10.74167 km/h
3099 28-11-2015 16:00:00 5.03333 C 5.34 g/m*3 3.27 C 7.65 km/h
3100 28-11-2015 17:00:00 4.28333 C 5.32 g/m*3 2.63 C 6.825 km/h
Sensor: Nr:Datum:Temp:Abs-Feuchte:Windchill:Wind:
Aussen-T/F 3101 28-11-2015 18:00:00 4.50833 C 5.38 g/m*3 2.08 C 9.95833 km/h
3102 28-11-2015 19:00:00 4.85 C 5.44 g/m*3 3.09 C 7.51667 km/h
3103 28-11-2015 20:00:00 5.625 C 5.68 g/m*3 2.5 C 15.15833 km/h
3104 28-11-2015 21:00:00 6.15833 C 5.91 g/m*3 2.86 C 17.3 km/h
3105 28-11-2015 22:00:00 6.35 C 6 g/m*3 2.77 C 19.98333 km/h
3106 28-11-2015 23:00:00 6.675 C 6 g/m*3 2.87 C 22.925 km/h
3107 29-11-2015 00:00:00 6.88333 C 6.07 g/m*3 3.11 C 23.2 km/h
3108 29-11-2015 01:00:00 6.93333 C 6.14 g/m*3 3.15 C 23.45833 km/h
3109 29-11-2015 02:00:00 6.675 C 6.38 g/m*3 2.46 C 27.35833 km/h
3110 29-11-2015 03:00:00 6.3 C 6.47 g/m*3 2.17 C 25.2 km/h
3111 29-11-2015 04:00:00 6.375 C 6.58 g/m*3 2.24 C 25.46667 km/h
3112 29-11-2015 05:00:00 6.66667 C 6.7 g/m*3 2.86 C 22.91667 km/h
3113 29-11-2015 06:00:00 7.275 C 6.94 g/m*3 3.68 C 22.50833 km/h
3114 29-11-2015 07:00:00 7.58333 C 7.08 g/m*3 4.4 C 19.3 km/h
3115 29-11-2015 08:00:00 7.91667 C 7.26 g/m*3 4.88 C 18.76667 km/h
3116 29-11-2015 09:00:00 8.375 C 7.54 g/m*3 5.43 C 19.04167 km/h
3117 29-11-2015 10:00:00 9.05 C 7.81 g/m*3 6.47 C 17.3 km/h
3118 29-11-2015 11:00:00 9.64167 C 8.04 g/m*3 7.26 C 16.76667 km/h
3119 29-11-2015 12:00:00 10.425 C 8.24 g/m*3 8.39 C 15.43333 km/h
3120 29-11-2015 13:00:00 10.55833 C 8.4 g/m*3 8.25 C 18.23333 km/h
3121 29-11-2015 14:00:00 10.29167 C 8.53 g/m*3 7.72 C 20.24167 km/h
3122 29-11-2015 15:00:00 10.45 C 8.64 g/m*3 7.81 C 21.44167 km/h
3123 29-11-2015 16:00:00 10.63333 C 8.6 g/m*3 8.34 C 18.23333 km/h
3124 29-11-2015 17:00:00 10.65 C 8.48 g/m*3 7.94 C 22.91667 km/h
3125 29-11-2015 18:00:00 10.81667 C 8.35 g/m*3 8.4 C 20.10833 km/h
Sensor: Nr:Datum:Temp:Abs-Feuchte:Windchill:Wind:
Aussen-T/F 3126 29-11-2015 19:00:00 10.73333 C 8.4 g/m*3 8.17 C 21.45 km/h
3127 29-11-2015 20:00:00 10.73333 C 8.43 g/m*3 7.87 C 25.2 km/h
3128 29-11-2015 21:00:00 11.15 C 8.49 g/m*3 11.15 C 23.875 km/h
3129 29-11-2015 22:00:00 11.125 C 8.47 g/m*3 11.13 C 25.325 km/h
3130 29-11-2015 23:00:00 11.26667 C 8.3 g/m*3 11.27 C 26.675 km/h
3131 30-11-2015 00:00:00 11.18333 C 8.35 g/m*3 11.18 C 23.99167 km/h
3132 30-11-2015 01:00:00 10.94167 C 8.39 g/m*3 8.3 C 23.075 km/h
3133 30-11-2015 02:00:00 10.80833 C 8.41 g/m*3 8.51 C 18.76667 km/h
3134 30-11-2015 03:00:00 10.55 C 8.46 g/m*3 8.62 C 14.76667 km/h
3135 30-11-2015 04:00:00 8.78333 C 7.96 g/m*3 7.34 C 9.14167 km/h
3136 30-11-2015 05:00:00 7.84167 C 7.67 g/m*3 6.76 C 6.84167 km/h
3137 30-11-2015 06:00:00 7.75 C 7.65 g/m*3 7.04 C 5.48333 km/h
3138 30-11-2015 07:00:00 7.66667 C 7.67 g/m*3 7.67 C 2 km/h
3139 30-11-2015 08:00:00 7.775 C 7.79 g/m*3 7.78 C 1.46667 km/h
3140 30-11-2015 09:00:00 8.1 C 7.99 g/m*3 8.1 C 0.93333 km/h
3141 30-11-2015 10:00:00 8.68333 C 8.32 g/m*3 8.68 C 1.33333 km/h